<?xml version='1.0' encoding='UTF-8'?><gpx version="1.1" creator="JPX - https://github.com/jenetics/jpx" xmlns="http://www.topografix.com/GPX/1/1"><trk><trkseg><trkpt lat="42.3865707" lon="14.3191574"><ele>8.0</ele><time>2026-05-03T08:51:51.342Z</time></trkpt><trkpt lat="42.3864851" lon="14.3191263"><ele>8.0</ele><time>2026-05-03T08:53:43.338Z</time></trkpt><trkpt lat="42.3863526" lon="14.3190782"><ele>8.0</ele><time>2026-05-03T08:53:45.345Z</time></trkpt><trkpt lat="42.3862713" lon="14.3190507"><ele>8.0</ele><time>2026-05-03T08:53:46.358Z</time></trkpt><trkpt lat="42.3861868" lon="14.3190279"><ele>8.0</ele><time>2026-05-03T08:53:47.354Z</time></trkpt><trkpt lat="42.3860995" lon="14.3190163"><ele>8.200000000000001</ele><time>2026-05-03T08:53:48.341Z</time></trkpt><trkpt lat="42.38601" lon="14.3190298"><ele>8.4</ele><time>2026-05-03T08:53:49.358Z</time></trkpt><trkpt lat="42.3859159" lon="14.3190488"><ele>8.600000000000001</ele><time>2026-05-03T08:53:50.344Z</time></trkpt><trkpt lat="42.3858181" lon="14.3190781"><ele>8.8</ele><time>2026-05-03T08:53:51.346Z</time></trkpt><trkpt lat="42.3857097" lon="14.3191166"><ele>9.0</ele><time>2026-05-03T08:53:52.366Z</time></trkpt><trkpt lat="42.3855924" lon="14.3191452"><ele>9.2</ele><time>2026-05-03T08:53:53.351Z</time></trkpt><trkpt lat="42.3854721" lon="14.3191697"><ele>9.4</ele><time>2026-05-03T08:53:54.36Z</time></trkpt><trkpt lat="42.3853623" lon="14.3191817"><ele>9.6</ele><time>2026-05-03T08:53:55.36Z</time></trkpt><trkpt lat="42.3852638" lon="14.3191809"><ele>9.8</ele><time>2026-05-03T08:53:56.359Z</time></trkpt><trkpt lat="42.3851731" lon="14.3191733"><ele>10.0</ele><time>2026-05-03T08:53:57.366Z</time></trkpt><trkpt lat="42.3850893" lon="14.3191665"><ele>10.0</ele><time>2026-05-03T08:53:58.348Z</time></trkpt><trkpt lat="42.3850041" lon="14.3191521"><ele>10.0</ele><time>2026-05-03T08:53:59.356Z</time></trkpt><trkpt lat="42.3849174" lon="14.3191231"><ele>10.0</ele><time>2026-05-03T08:54:00.339Z</time></trkpt><trkpt lat="42.3848243" lon="14.3190826"><ele>10.0</ele><time>2026-05-03T08:54:01.35Z</time></trkpt><trkpt lat="42.3847273" lon="14.3190336"><ele>10.0</ele><time>2026-05-03T08:54:02.35Z</time></trkpt><trkpt lat="42.3846323" lon="14.3189818"><ele>10.0</ele><time>2026-05-03T08:54:03.351Z</time></trkpt><trkpt lat="42.3845434" lon="14.318927"><ele>10.0</ele><time>2026-05-03T08:54:04.35Z</time></trkpt><trkpt lat="42.3843889" lon="14.3187987"><ele>10.0</ele><time>2026-05-03T08:54:06.346Z</time></trkpt><trkpt lat="42.3843255" lon="14.3187143"><ele>10.0</ele><time>2026-05-03T08:54:07.342Z</time></trkpt><trkpt lat="42.3842664" lon="14.3186107"><ele>10.0</ele><time>2026-05-03T08:54:08.344Z</time></trkpt><trkpt lat="42.3842142" lon="14.3184926"><ele>10.0</ele><time>2026-05-03T08:54:09.359Z</time></trkpt><trkpt lat="42.3841639" lon="14.3183689"><ele>10.0</ele><time>2026-05-03T08:54:10.351Z</time></trkpt><trkpt lat="42.3841166" lon="14.3182493"><ele>10.0</ele><time>2026-05-03T08:54:11.34Z</time></trkpt><trkpt lat="42.3840711" lon="14.318134"><ele>10.0</ele><time>2026-05-03T08:54:12.336Z</time></trkpt><trkpt lat="42.3840289" lon="14.3180258"><ele>10.0</ele><time>2026-05-03T08:54:13.35Z</time></trkpt><trkpt lat="42.3839921" lon="14.317924"><ele>10.0</ele><time>2026-05-03T08:54:14.334Z</time></trkpt><trkpt lat="42.3839533" lon="14.3178063"><ele>10.0</ele><time>2026-05-03T08:54:15.353Z</time></trkpt><trkpt lat="42.3839238" lon="14.3176773"><ele>10.0</ele><time>2026-05-03T08:54:16.352Z</time></trkpt><trkpt lat="42.383908" lon="14.3175294"><ele>10.0</ele><time>2026-05-03T08:54:17.357Z</time></trkpt><trkpt lat="42.3839023" lon="14.3173744"><ele>10.0</ele><time>2026-05-03T08:54:18.358Z</time></trkpt><trkpt lat="42.383899" lon="14.3172051"><ele>10.0</ele><time>2026-05-03T08:54:19.338Z</time></trkpt><trkpt lat="42.383896" lon="14.3170357"><ele>10.0</ele><time>2026-05-03T08:54:20.35Z</time></trkpt><trkpt lat="42.3838969" lon="14.3168693"><ele>10.0</ele><time>2026-05-03T08:54:21.35Z</time></trkpt><trkpt lat="42.3838981" lon="14.3167106"><ele>10.0</ele><time>2026-05-03T08:54:22.364Z</time></trkpt><trkpt lat="42.3838961" lon="14.3165671"><ele>10.0</ele><time>2026-05-03T08:54:23.356Z</time></trkpt><trkpt lat="42.3838887" lon="14.3164532"><ele>10.0</ele><time>2026-05-03T08:54:24.35Z</time></trkpt><trkpt lat="42.3838746" lon="14.316344"><ele>10.0</ele><time>2026-05-03T08:54:25.373Z</time></trkpt><trkpt lat="42.3838119" lon="14.3160721"><ele>10.0</ele><time>2026-05-03T08:54:27.363Z</time></trkpt><trkpt lat="42.383763" lon="14.3159409"><ele>10.0</ele><time>2026-05-03T08:54:28.344Z</time></trkpt><trkpt lat="42.3836987" lon="14.3158174"><ele>10.0</ele><time>2026-05-03T08:54:29.352Z</time></trkpt><trkpt lat="42.383616" lon="14.3156958"><ele>10.0</ele><time>2026-05-03T08:54:30.336Z</time></trkpt><trkpt lat="42.3835265" lon="14.3155654"><ele>10.0</ele><time>2026-05-03T08:54:31.348Z</time></trkpt><trkpt lat="42.3834343" lon="14.3154486"><ele>10.0</ele><time>2026-05-03T08:54:32.329Z</time></trkpt><trkpt lat="42.3833414" lon="14.3153378"><ele>10.0</ele><time>2026-05-03T08:54:33.341Z</time></trkpt><trkpt lat="42.383254" lon="14.3152317"><ele>10.0</ele><time>2026-05-03T08:54:34.336Z</time></trkpt><trkpt lat="42.3831732" lon="14.3151279"><ele>10.0</ele><time>2026-05-03T08:54:35.343Z</time></trkpt><trkpt lat="42.3830944" lon="14.3150249"><ele>10.0</ele><time>2026-05-03T08:54:36.343Z</time></trkpt><trkpt lat="42.3830207" lon="14.3149225"><ele>10.0</ele><time>2026-05-03T08:54:37.344Z</time></trkpt><trkpt lat="42.382951" lon="14.3148188"><ele>10.0</ele><time>2026-05-03T08:54:38.359Z</time></trkpt><trkpt lat="42.3828888" lon="14.3147117"><ele>10.0</ele><time>2026-05-03T08:54:39.358Z</time></trkpt><trkpt lat="42.3828317" lon="14.3146"><ele>10.0</ele><time>2026-05-03T08:54:40.349Z</time></trkpt><trkpt lat="42.3827848" lon="14.3144812"><ele>10.0</ele><time>2026-05-03T08:54:41.335Z</time></trkpt><trkpt lat="42.3827453" lon="14.3143578"><ele>10.0</ele><time>2026-05-03T08:54:42.371Z</time></trkpt><trkpt lat="42.3827122" lon="14.3142379"><ele>10.0</ele><time>2026-05-03T08:54:43.363Z</time></trkpt><trkpt lat="42.3826876" lon="14.3141189"><ele>10.0</ele><time>2026-05-03T08:54:44.36Z</time></trkpt><trkpt lat="42.3826713" lon="14.313995"><ele>10.25</ele><time>2026-05-03T08:54:45.359Z</time></trkpt><trkpt lat="42.3826657" lon="14.3138603"><ele>10.5</ele><time>2026-05-03T08:54:46.363Z</time></trkpt><trkpt lat="42.3826669" lon="14.3135698"><ele>10.75</ele><time>2026-05-03T08:54:48.353Z</time></trkpt><trkpt lat="42.3826683" lon="14.313423"><ele>11.0</ele><time>2026-05-03T08:54:49.358Z</time></trkpt><trkpt lat="42.3826727" lon="14.313277"><ele>11.0</ele><time>2026-05-03T08:54:50.366Z</time></trkpt><trkpt lat="42.3826732" lon="14.3131368"><ele>11.0</ele><time>2026-05-03T08:54:51.352Z</time></trkpt><trkpt lat="42.3826725" lon="14.3130014"><ele>11.0</ele><time>2026-05-03T08:54:52.354Z</time></trkpt><trkpt lat="42.3826707" lon="14.3128706"><ele>11.0</ele><time>2026-05-03T08:54:53.368Z</time></trkpt><trkpt lat="42.3826686" lon="14.312744"><ele>11.0</ele><time>2026-05-03T08:54:54.36Z</time></trkpt><trkpt lat="42.3826683" lon="14.3126106"><ele>11.0</ele><time>2026-05-03T08:54:55.355Z</time></trkpt><trkpt lat="42.3826698" lon="14.3124716"><ele>11.0</ele><time>2026-05-03T08:54:56.354Z</time></trkpt><trkpt lat="42.3826716" lon="14.3123289"><ele>11.0</ele><time>2026-05-03T08:54:57.365Z</time></trkpt><trkpt lat="42.3826744" lon="14.3121861"><ele>11.0</ele><time>2026-05-03T08:54:58.38Z</time></trkpt><trkpt lat="42.3826768" lon="14.3120494"><ele>11.0</ele><time>2026-05-03T08:54:59.353Z</time></trkpt><trkpt lat="42.3826767" lon="14.3119146"><ele>11.166666666666666</ele><time>2026-05-03T08:55:00.347Z</time></trkpt><trkpt lat="42.3826683" lon="14.3117861"><ele>11.333333333333332</ele><time>2026-05-03T08:55:01.363Z</time></trkpt><trkpt lat="42.3826359" lon="14.3116732"><ele>11.5</ele><time>2026-05-03T08:55:02.365Z</time></trkpt><trkpt lat="42.3825805" lon="14.3115839"><ele>11.666666666666666</ele><time>2026-05-03T08:55:03.339Z</time></trkpt><trkpt lat="42.3825123" lon="14.3115138"><ele>11.833333333333334</ele><time>2026-05-03T08:55:04.387Z</time></trkpt><trkpt lat="42.3824331" lon="14.3114814"><ele>12.0</ele><time>2026-05-03T08:55:05.371Z</time></trkpt><trkpt lat="42.3823533" lon="14.3114813"><ele>12.0</ele><time>2026-05-03T08:55:06.352Z</time></trkpt><trkpt lat="42.3822798" lon="14.3114924"><ele>12.0</ele><time>2026-05-03T08:55:07.352Z</time></trkpt><trkpt lat="42.3821052" lon="14.3115767"><ele>12.0</ele><time>2026-05-03T08:55:10.349Z</time></trkpt><trkpt lat="42.382061" lon="14.3116517"><ele>12.0</ele><time>2026-05-03T08:55:11.346Z</time></trkpt><trkpt lat="42.3820138" lon="14.3117645"><ele>12.0</ele><time>2026-05-03T08:55:12.362Z</time></trkpt><trkpt lat="42.3819619" lon="14.3118797"><ele>12.0</ele><time>2026-05-03T08:55:13.363Z</time></trkpt><trkpt lat="42.3818936" lon="14.3119958"><ele>12.0</ele><time>2026-05-03T08:55:14.344Z</time></trkpt><trkpt lat="42.3818118" lon="14.3120984"><ele>12.0</ele><time>2026-05-03T08:55:15.392Z</time></trkpt><trkpt lat="42.381738" lon="14.3121992"><ele>12.0</ele><time>2026-05-03T08:55:16.345Z</time></trkpt><trkpt lat="42.3816741" lon="14.3122773"><ele>12.0</ele><time>2026-05-03T08:55:17.341Z</time></trkpt><trkpt lat="42.3816231" lon="14.3123416"><ele>12.0</ele><time>2026-05-03T08:55:18.362Z</time></trkpt><trkpt lat="42.381542" lon="14.3124341"><ele>12.0</ele><time>2026-05-03T08:55:20.344Z</time></trkpt><trkpt lat="42.3814258" lon="14.3124611"><ele>12.0</ele><time>2026-05-03T08:55:22.349Z</time></trkpt><trkpt lat="42.3813564" lon="14.312442"><ele>12.0</ele><time>2026-05-03T08:55:23.366Z</time></trkpt><trkpt lat="42.3812756" lon="14.3124026"><ele>12.0</ele><time>2026-05-03T08:55:24.339Z</time></trkpt><trkpt lat="42.3811722" lon="14.3123478"><ele>12.5</ele><time>2026-05-03T08:55:25.343Z</time></trkpt><trkpt lat="42.3810574" lon="14.3122861"><ele>13.0</ele><time>2026-05-03T08:55:26.341Z</time></trkpt><trkpt lat="42.3809418" lon="14.3122273"><ele>13.5</ele><time>2026-05-03T08:55:27.339Z</time></trkpt><trkpt lat="42.3808296" lon="14.3121862"><ele>14.0</ele><time>2026-05-03T08:55:28.337Z</time></trkpt><trkpt lat="42.3806442" lon="14.3121602"><ele>14.0</ele><time>2026-05-03T08:55:30.364Z</time></trkpt><trkpt lat="42.3805517" lon="14.3121464"><ele>13.999999999999998</ele><time>2026-05-03T08:55:32.346Z</time></trkpt><trkpt lat="42.3804526" lon="14.3121042"><ele>13.999999999999998</ele><time>2026-05-03T08:55:34.355Z</time></trkpt><trkpt lat="42.3803834" lon="14.3120564"><ele>14.0</ele><time>2026-05-03T08:55:35.355Z</time></trkpt><trkpt lat="42.3803013" lon="14.3119961"><ele>14.0</ele><time>2026-05-03T08:55:36.363Z</time></trkpt><trkpt lat="42.380225" lon="14.3119278"><ele>14.000000000000002</ele><time>2026-05-03T08:55:37.357Z</time></trkpt><trkpt lat="42.3801396" lon="14.3118623"><ele>14.0</ele><time>2026-05-03T08:55:38.364Z</time></trkpt><trkpt lat="42.3800486" lon="14.3117906"><ele>14.0</ele><time>2026-05-03T08:55:39.358Z</time></trkpt><trkpt lat="42.3799705" lon="14.3117349"><ele>14.0</ele><time>2026-05-03T08:55:40.345Z</time></trkpt><trkpt lat="42.3799048" lon="14.3116983"><ele>14.000000000000002</ele><time>2026-05-03T08:55:41.368Z</time></trkpt><trkpt lat="42.3798394" lon="14.3116763"><ele>14.0</ele><time>2026-05-03T08:55:42.348Z</time></trkpt><trkpt lat="42.3797633" lon="14.3116708"><ele>14.0</ele><time>2026-05-03T08:55:43.335Z</time></trkpt><trkpt lat="42.3796881" lon="14.3116628"><ele>13.999999999999998</ele><time>2026-05-03T08:55:44.362Z</time></trkpt><trkpt lat="42.3796124" lon="14.3116471"><ele>13.999999999999998</ele><time>2026-05-03T08:55:45.353Z</time></trkpt><trkpt lat="42.3795324" lon="14.3116258"><ele>14.0</ele><time>2026-05-03T08:55:46.352Z</time></trkpt><trkpt lat="42.3794356" lon="14.3115869"><ele>14.0</ele><time>2026-05-03T08:55:47.357Z</time></trkpt><trkpt lat="42.3793233" lon="14.3115463"><ele>14.0</ele><time>2026-05-03T08:55:48.355Z</time></trkpt><trkpt lat="42.3792138" lon="14.3115119"><ele>14.0</ele><time>2026-05-03T08:55:49.333Z</time></trkpt><trkpt lat="42.3789854" lon="14.3114782"><ele>14.0</ele><time>2026-05-03T08:55:51.347Z</time></trkpt><trkpt lat="42.378871" lon="14.3114935"><ele>14.799999999999999</ele><time>2026-05-03T08:55:52.344Z</time></trkpt><trkpt lat="42.3787738" lon="14.3115087"><ele>15.599999999999998</ele><time>2026-05-03T08:55:53.365Z</time></trkpt><trkpt lat="42.3786803" lon="14.3115134"><ele>16.4</ele><time>2026-05-03T08:55:54.353Z</time></trkpt><trkpt lat="42.3785868" lon="14.3115037"><ele>17.2</ele><time>2026-05-03T08:55:55.355Z</time></trkpt><trkpt lat="42.3784842" lon="14.3114841"><ele>18.0</ele><time>2026-05-03T08:55:56.35Z</time></trkpt><trkpt lat="42.3783696" lon="14.31143"><ele>17.5</ele><time>2026-05-03T08:55:57.34Z</time></trkpt><trkpt lat="42.3782442" lon="14.3113569"><ele>17.0</ele><time>2026-05-03T08:55:58.358Z</time></trkpt><trkpt lat="42.3781264" lon="14.3112941"><ele>16.5</ele><time>2026-05-03T08:55:59.35Z</time></trkpt><trkpt lat="42.3780248" lon="14.3112476"><ele>16.0</ele><time>2026-05-03T08:56:00.354Z</time></trkpt><trkpt lat="42.377929" lon="14.3112005"><ele>16.0</ele><time>2026-05-03T08:56:01.357Z</time></trkpt><trkpt lat="42.3778346" lon="14.3111422"><ele>16.0</ele><time>2026-05-03T08:56:02.369Z</time></trkpt><trkpt lat="42.3777428" lon="14.3110671"><ele>16.0</ele><time>2026-05-03T08:56:03.349Z</time></trkpt><trkpt lat="42.3776461" lon="14.3109905"><ele>16.0</ele><time>2026-05-03T08:56:04.363Z</time></trkpt><trkpt lat="42.3775581" lon="14.3109232"><ele>16.0</ele><time>2026-05-03T08:56:05.33Z</time></trkpt><trkpt lat="42.377476" lon="14.3108751"><ele>16.0</ele><time>2026-05-03T08:56:06.346Z</time></trkpt><trkpt lat="42.3773967" lon="14.3108363"><ele>16.0</ele><time>2026-05-03T08:56:07.379Z</time></trkpt><trkpt lat="42.3773181" lon="14.310807"><ele>16.0</ele><time>2026-05-03T08:56:08.369Z</time></trkpt><trkpt lat="42.3772413" lon="14.3107825"><ele>16.0</ele><time>2026-05-03T08:56:09.35Z</time></trkpt><trkpt lat="42.3771626" lon="14.3107752"><ele>16.0</ele><time>2026-05-03T08:56:10.37Z</time></trkpt><trkpt lat="42.3770148" lon="14.3107451"><ele>16.333333333333332</ele><time>2026-05-03T08:56:12.37Z</time></trkpt><trkpt lat="42.3769331" lon="14.3107177"><ele>16.666666666666664</ele><time>2026-05-03T08:56:13.355Z</time></trkpt><trkpt lat="42.3768562" lon="14.3107007"><ele>17.0</ele><time>2026-05-03T08:56:14.353Z</time></trkpt><trkpt lat="42.3767852" lon="14.3107026"><ele>17.333333333333332</ele><time>2026-05-03T08:56:15.361Z</time></trkpt><trkpt lat="42.3767091" lon="14.3107027"><ele>17.666666666666668</ele><time>2026-05-03T08:56:16.35Z</time></trkpt><trkpt lat="42.3766166" lon="14.3107007"><ele>18.0</ele><time>2026-05-03T08:56:17.341Z</time></trkpt><trkpt lat="42.3765131" lon="14.3106885"><ele>18.0</ele><time>2026-05-03T08:56:18.36Z</time></trkpt><trkpt lat="42.3764135" lon="14.3106742"><ele>18.0</ele><time>2026-05-03T08:56:19.352Z</time></trkpt><trkpt lat="42.376311" lon="14.3106621"><ele>18.0</ele><time>2026-05-03T08:56:20.355Z</time></trkpt><trkpt lat="42.3762128" lon="14.3106497"><ele>18.0</ele><time>2026-05-03T08:56:21.371Z</time></trkpt><trkpt lat="42.376109" lon="14.3106296"><ele>18.0</ele><time>2026-05-03T08:56:22.35Z</time></trkpt><trkpt lat="42.3760045" lon="14.3106009"><ele>17.6</ele><time>2026-05-03T08:56:23.375Z</time></trkpt><trkpt lat="42.375911" lon="14.3105831"><ele>17.200000000000003</ele><time>2026-05-03T08:56:24.376Z</time></trkpt><trkpt lat="42.3758146" lon="14.310573"><ele>16.8</ele><time>2026-05-03T08:56:25.342Z</time></trkpt><trkpt lat="42.3757119" lon="14.3105525"><ele>16.400000000000002</ele><time>2026-05-03T08:56:26.34Z</time></trkpt><trkpt lat="42.3756067" lon="14.3105198"><ele>16.0</ele><time>2026-05-03T08:56:27.388Z</time></trkpt><trkpt lat="42.3755101" lon="14.3104778"><ele>17.25</ele><time>2026-05-03T08:56:28.363Z</time></trkpt><trkpt lat="42.3754141" lon="14.3104254"><ele>18.5</ele><time>2026-05-03T08:56:29.343Z</time></trkpt><trkpt lat="42.375317" lon="14.3103727"><ele>19.75</ele><time>2026-05-03T08:56:30.369Z</time></trkpt><trkpt lat="42.3752216" lon="14.3103153"><ele>21.0</ele><time>2026-05-03T08:56:31.367Z</time></trkpt><trkpt lat="42.3750298" lon="14.3101494"><ele>21.0</ele><time>2026-05-03T08:56:33.348Z</time></trkpt><trkpt lat="42.3749388" lon="14.3100708"><ele>21.0</ele><time>2026-05-03T08:56:34.372Z</time></trkpt><trkpt lat="42.3748768" lon="14.310013"><ele>21.0</ele><time>2026-05-03T08:56:35.353Z</time></trkpt><trkpt lat="42.3747797" lon="14.3099583"><ele>21.0</ele><time>2026-05-03T08:56:37.355Z</time></trkpt><trkpt lat="42.3746617" lon="14.3100065"><ele>21.0</ele><time>2026-05-03T08:56:39.34Z</time></trkpt><trkpt lat="42.374601" lon="14.3100544"><ele>21.166666666666668</ele><time>2026-05-03T08:56:40.35Z</time></trkpt><trkpt lat="42.3745308" lon="14.3101047"><ele>21.333333333333332</ele><time>2026-05-03T08:56:41.334Z</time></trkpt><trkpt lat="42.374464" lon="14.3101475"><ele>21.5</ele><time>2026-05-03T08:56:42.344Z</time></trkpt><trkpt lat="42.3743941" lon="14.3101612"><ele>21.666666666666664</ele><time>2026-05-03T08:56:43.349Z</time></trkpt><trkpt lat="42.3743246" lon="14.3101626"><ele>21.833333333333332</ele><time>2026-05-03T08:56:44.358Z</time></trkpt><trkpt lat="42.3742404" lon="14.310132"><ele>22.0</ele><time>2026-05-03T08:56:45.355Z</time></trkpt><trkpt lat="42.3741504" lon="14.3100664"><ele>22.0</ele><time>2026-05-03T08:56:46.34Z</time></trkpt><trkpt lat="42.3740557" lon="14.3099908"><ele>22.0</ele><time>2026-05-03T08:56:47.346Z</time></trkpt><trkpt lat="42.3739704" lon="14.3099174"><ele>22.0</ele><time>2026-05-03T08:56:48.34Z</time></trkpt><trkpt lat="42.3738942" lon="14.3098532"><ele>22.0</ele><time>2026-05-03T08:56:49.349Z</time></trkpt><trkpt lat="42.3738351" lon="14.3097875"><ele>22.0</ele><time>2026-05-03T08:56:50.343Z</time></trkpt><trkpt lat="42.373773" lon="14.3097103"><ele>25.0</ele><time>2026-05-03T08:56:51.346Z</time></trkpt><trkpt lat="42.3736927" lon="14.3096256"><ele>28.0</ele><time>2026-05-03T08:56:52.347Z</time></trkpt><trkpt lat="42.3734876" lon="14.3094512"><ele>31.0</ele><time>2026-05-03T08:56:54.335Z</time></trkpt><trkpt lat="42.3733795" lon="14.3093796"><ele>31.0</ele><time>2026-05-03T08:56:55.351Z</time></trkpt><trkpt lat="42.3732811" lon="14.3093193"><ele>31.0</ele><time>2026-05-03T08:56:56.337Z</time></trkpt><trkpt lat="42.3731916" lon="14.3092577"><ele>31.0</ele><time>2026-05-03T08:56:57.334Z</time></trkpt><trkpt lat="42.3730962" lon="14.3091906"><ele>31.0</ele><time>2026-05-03T08:56:58.354Z</time></trkpt><trkpt lat="42.3730063" lon="14.3091223"><ele>31.0</ele><time>2026-05-03T08:56:59.354Z</time></trkpt><trkpt lat="42.3729235" lon="14.3090614"><ele>31.6</ele><time>2026-05-03T08:57:00.349Z</time></trkpt><trkpt lat="42.3728329" lon="14.3090155"><ele>32.2</ele><time>2026-05-03T08:57:01.363Z</time></trkpt><trkpt lat="42.3727316" lon="14.3089886"><ele>32.8</ele><time>2026-05-03T08:57:02.339Z</time></trkpt><trkpt lat="42.3726306" lon="14.3089726"><ele>33.4</ele><time>2026-05-03T08:57:03.342Z</time></trkpt><trkpt lat="42.3725365" lon="14.3089353"><ele>34.0</ele><time>2026-05-03T08:57:04.361Z</time></trkpt><trkpt lat="42.3724437" lon="14.3088838"><ele>33.5</ele><time>2026-05-03T08:57:05.353Z</time></trkpt><trkpt lat="42.3723599" lon="14.3088377"><ele>33.0</ele><time>2026-05-03T08:57:06.34Z</time></trkpt><trkpt lat="42.3722602" lon="14.308777"><ele>32.5</ele><time>2026-05-03T08:57:07.349Z</time></trkpt><trkpt lat="42.3721457" lon="14.308689"><ele>32.0</ele><time>2026-05-03T08:57:08.344Z</time></trkpt><trkpt lat="42.3720216" lon="14.3085953"><ele>32.0</ele><time>2026-05-03T08:57:09.348Z</time></trkpt><trkpt lat="42.3719034" lon="14.3085039"><ele>32.0</ele><time>2026-05-03T08:57:10.345Z</time></trkpt><trkpt lat="42.3717853" lon="14.3084108"><ele>32.0</ele><time>2026-05-03T08:57:11.372Z</time></trkpt><trkpt lat="42.3716693" lon="14.308324"><ele>32.0</ele><time>2026-05-03T08:57:12.361Z</time></trkpt><trkpt lat="42.3715523" lon="14.3082319"><ele>31.333333333333332</ele><time>2026-05-03T08:57:13.348Z</time></trkpt><trkpt lat="42.3713205" lon="14.3080547"><ele>30.666666666666664</ele><time>2026-05-03T08:57:15.35Z</time></trkpt><trkpt lat="42.3712262" lon="14.3079764"><ele>30.0</ele><time>2026-05-03T08:57:16.369Z</time></trkpt><trkpt lat="42.3711369" lon="14.3079072"><ele>30.0</ele><time>2026-05-03T08:57:17.356Z</time></trkpt><trkpt lat="42.3710508" lon="14.3078422"><ele>30.0</ele><time>2026-05-03T08:57:18.358Z</time></trkpt><trkpt lat="42.3709726" lon="14.3077754"><ele>30.0</ele><time>2026-05-03T08:57:19.355Z</time></trkpt><trkpt lat="42.3709044" lon="14.3077214"><ele>30.0</ele><time>2026-05-03T08:57:20.363Z</time></trkpt><trkpt lat="42.3708191" lon="14.307652"><ele>30.0</ele><time>2026-05-03T08:57:22.367Z</time></trkpt><trkpt lat="42.3707709" lon="14.3077494"><ele>30.0</ele><time>2026-05-03T08:57:27.335Z</time></trkpt><trkpt lat="42.3707434" lon="14.3078263"><ele>30.0</ele><time>2026-05-03T08:57:28.377Z</time></trkpt><trkpt lat="42.3707121" lon="14.3079336"><ele>30.0</ele><time>2026-05-03T08:57:29.337Z</time></trkpt><trkpt lat="42.3706828" lon="14.3080424"><ele>30.0</ele><time>2026-05-03T08:57:30.362Z</time></trkpt><trkpt lat="42.3706561" lon="14.3081437"><ele>30.0</ele><time>2026-05-03T08:57:31.331Z</time></trkpt><trkpt lat="42.3706306" lon="14.3082432"><ele>30.0</ele><time>2026-05-03T08:57:32.377Z</time></trkpt><trkpt lat="42.370607" lon="14.3083388"><ele>32.0</ele><time>2026-05-03T08:57:33.361Z</time></trkpt><trkpt lat="42.3705826" lon="14.3084278"><ele>34.0</ele><time>2026-05-03T08:57:34.351Z</time></trkpt><trkpt lat="42.3705411" lon="14.3086221"><ele>36.0</ele><time>2026-05-03T08:57:36.335Z</time></trkpt><trkpt lat="42.3705318" lon="14.3087077"><ele>38.0</ele><time>2026-05-03T08:57:37.366Z</time></trkpt><trkpt lat="42.3705007" lon="14.3087951"><ele>40.0</ele><time>2026-05-03T08:57:39.346Z</time></trkpt><trkpt lat="42.3704368" lon="14.3088036"><ele>42.0</ele><time>2026-05-03T08:57:41.351Z</time></trkpt><trkpt lat="42.3703679" lon="14.308784"><ele>43.5</ele><time>2026-05-03T08:57:42.334Z</time></trkpt><trkpt lat="42.3702978" lon="14.3087547"><ele>45.0</ele><time>2026-05-03T08:57:43.352Z</time></trkpt><trkpt lat="42.3702249" lon="14.3087283"><ele>46.5</ele><time>2026-05-03T08:57:44.343Z</time></trkpt><trkpt lat="42.3701422" lon="14.3086995"><ele>48.0</ele><time>2026-05-03T08:57:45.344Z</time></trkpt><trkpt lat="42.3700602" lon="14.3086731"><ele>49.5</ele><time>2026-05-03T08:57:46.344Z</time></trkpt><trkpt lat="42.3699809" lon="14.3086514"><ele>51.0</ele><time>2026-05-03T08:57:47.338Z</time></trkpt><trkpt lat="42.3699058" lon="14.3086334"><ele>51.0</ele><time>2026-05-03T08:57:48.354Z</time></trkpt><trkpt lat="42.3698339" lon="14.3086102"><ele>51.0</ele><time>2026-05-03T08:57:49.36Z</time></trkpt><trkpt lat="42.3697517" lon="14.308595"><ele>51.0</ele><time>2026-05-03T08:57:50.346Z</time></trkpt><trkpt lat="42.3696738" lon="14.3086052"><ele>51.0</ele><time>2026-05-03T08:57:51.335Z</time></trkpt><trkpt lat="42.3695958" lon="14.3086923"><ele>51.0</ele><time>2026-05-03T08:57:53.35Z</time></trkpt><trkpt lat="42.3695668" lon="14.3087752"><ele>51.0</ele><time>2026-05-03T08:57:54.347Z</time></trkpt><trkpt lat="42.369543" lon="14.3088822"><ele>57.0</ele><time>2026-05-03T08:57:55.35Z</time></trkpt><trkpt lat="42.3694811" lon="14.309108"><ele>63.0</ele><time>2026-05-03T08:57:57.337Z</time></trkpt><trkpt lat="42.3694616" lon="14.3092388"><ele>69.0</ele><time>2026-05-03T08:57:58.343Z</time></trkpt><trkpt lat="42.3694337" lon="14.3093778"><ele>75.0</ele><time>2026-05-03T08:57:59.361Z</time></trkpt><trkpt lat="42.3694113" lon="14.3094967"><ele>75.0</ele><time>2026-05-03T08:58:00.355Z</time></trkpt><trkpt lat="42.3693833" lon="14.3095735"><ele>75.0</ele><time>2026-05-03T08:58:01.356Z</time></trkpt><trkpt lat="42.3693631" lon="14.3096633"><ele>75.0</ele><time>2026-05-03T08:58:02.352Z</time></trkpt><trkpt lat="42.3693527" lon="14.3097598"><ele>75.0</ele><time>2026-05-03T08:58:03.334Z</time></trkpt><trkpt lat="42.369335" lon="14.3098505"><ele>75.0</ele><time>2026-05-03T08:58:04.363Z</time></trkpt><trkpt lat="42.3692575" lon="14.3099531"><ele>75.0</ele><time>2026-05-03T08:58:06.337Z</time></trkpt><trkpt lat="42.3691891" lon="14.3099576"><ele>79.0</ele><time>2026-05-03T08:58:09.327Z</time></trkpt><trkpt lat="42.3691245" lon="14.3099642"><ele>83.0</ele><time>2026-05-03T08:58:13.361Z</time></trkpt><trkpt lat="42.3691677" lon="14.3100344"><ele>87.0</ele><time>2026-05-03T08:58:16.34Z</time></trkpt><trkpt lat="42.3691317" lon="14.3102431"><ele>91.0</ele><time>2026-05-03T08:58:31.342Z</time></trkpt><trkpt lat="42.3691071" lon="14.3103524"><ele>95.0</ele><time>2026-05-03T08:58:34.345Z</time></trkpt><trkpt lat="42.3690751" lon="14.3104351"><ele>99.0</ele><time>2026-05-03T08:58:36.373Z</time></trkpt><trkpt lat="42.3690438" lon="14.3105689"><ele>103.75</ele><time>2026-05-03T08:58:38.346Z</time></trkpt><trkpt lat="42.369016" lon="14.3108414"><ele>108.5</ele><time>2026-05-03T08:58:42.343Z</time></trkpt><trkpt lat="42.3690081" lon="14.310939"><ele>113.25</ele><time>2026-05-03T08:58:44.344Z</time></trkpt><trkpt lat="42.3690135" lon="14.3110727"><ele>118.0</ele><time>2026-05-03T08:58:47.355Z</time></trkpt><trkpt lat="42.3690056" lon="14.3112013"><ele>118.00000000000001</ele><time>2026-05-03T08:58:49.342Z</time></trkpt><trkpt lat="42.3690003" lon="14.3113262"><ele>118.0</ele><time>2026-05-03T08:58:51.343Z</time></trkpt><trkpt lat="42.3690031" lon="14.3114537"><ele>118.0</ele><time>2026-05-03T08:58:53.352Z</time></trkpt><trkpt lat="42.3690125" lon="14.3115826"><ele>118.0</ele><time>2026-05-03T08:58:55.335Z</time></trkpt><trkpt lat="42.369012" lon="14.3116934"><ele>118.00000000000001</ele><time>2026-05-03T08:58:57.335Z</time></trkpt><trkpt lat="42.3689715" lon="14.3117674"><ele>118.0</ele><time>2026-05-03T08:59:03.362Z</time></trkpt><trkpt lat="42.3687788" lon="14.3118167"><ele>119.00000000000001</ele><time>2026-05-03T09:00:39.348Z</time></trkpt><trkpt lat="42.3686985" lon="14.3117595"><ele>120.0</ele><time>2026-05-03T09:00:41.344Z</time></trkpt><trkpt lat="42.3686191" lon="14.3116754"><ele>121.0</ele><time>2026-05-03T09:00:43.339Z</time></trkpt><trkpt lat="42.3685522" lon="14.3115428"><ele>122.0</ele><time>2026-05-03T09:00:45.353Z</time></trkpt><trkpt lat="42.3685139" lon="14.3114626"><ele>123.00000000000001</ele><time>2026-05-03T09:00:46.353Z</time></trkpt><trkpt lat="42.3684816" lon="14.3113823"><ele>124.0</ele><time>2026-05-03T09:00:47.361Z</time></trkpt><trkpt lat="42.3684428" lon="14.3113044"><ele>124.00000000000001</ele><time>2026-05-03T09:00:48.353Z</time></trkpt><trkpt lat="42.3684054" lon="14.3112146"><ele>124.0</ele><time>2026-05-03T09:00:49.38Z</time></trkpt><trkpt lat="42.3683684" lon="14.3111304"><ele>124.0</ele><time>2026-05-03T09:00:50.336Z</time></trkpt><trkpt lat="42.3682982" lon="14.3109965"><ele>124.0</ele><time>2026-05-03T09:00:52.358Z</time></trkpt><trkpt lat="42.3682435" lon="14.3108809"><ele>124.00000000000001</ele><time>2026-05-03T09:00:54.36Z</time></trkpt><trkpt lat="42.3682165" lon="14.3107993"><ele>124.0</ele><time>2026-05-03T09:01:05.361Z</time></trkpt><trkpt lat="42.3681669" lon="14.3106296"><ele>126.0</ele><time>2026-05-03T09:01:19.34Z</time></trkpt><trkpt lat="42.3681617" lon="14.3105388"><ele>128.0</ele><time>2026-05-03T09:01:27.346Z</time></trkpt><trkpt lat="42.3680635" lon="14.3103568"><ele>130.0</ele><time>2026-05-03T09:01:42.36Z</time></trkpt><trkpt lat="42.3680574" lon="14.3102526"><ele>132.0</ele><time>2026-05-03T09:01:50.342Z</time></trkpt><trkpt lat="42.3679989" lon="14.3100839"><ele>134.0</ele><time>2026-05-03T09:01:57.35Z</time></trkpt><trkpt lat="42.3679391" lon="14.3100429"><ele>134.0</ele><time>2026-05-03T09:02:21.364Z</time></trkpt><trkpt lat="42.3678369" lon="14.3098951"><ele>134.0</ele><time>2026-05-03T09:02:51.344Z</time></trkpt><trkpt lat="42.3679107" lon="14.3100172"><ele>134.0</ele><time>2026-05-03T09:08:02.344Z</time></trkpt><trkpt lat="42.3679721" lon="14.3100512"><ele>134.0</ele><time>2026-05-03T09:10:25.345Z</time></trkpt><trkpt lat="42.368048" lon="14.3102567"><ele>134.0</ele><time>2026-05-03T09:10:31.345Z</time></trkpt><trkpt lat="42.3680796" lon="14.3103793"><ele>134.0</ele><time>2026-05-03T09:10:33.338Z</time></trkpt><trkpt lat="42.368094" lon="14.3104645"><ele>134.0</ele><time>2026-05-03T09:10:35.36Z</time></trkpt><trkpt lat="42.3680374" lon="14.3103884"><ele>134.0</ele><time>2026-05-03T09:10:55.341Z</time></trkpt><trkpt lat="42.3679507" lon="14.3101825"><ele>134.0</ele><time>2026-05-03T09:10:58.347Z</time></trkpt><trkpt lat="42.3678804" lon="14.3100645"><ele>134.0</ele><time>2026-05-03T09:11:00.356Z</time></trkpt><trkpt lat="42.3678144" lon="14.3099694"><ele>134.0</ele><time>2026-05-03T09:11:02.35Z</time></trkpt><trkpt lat="42.3677656" lon="14.309912"><ele>134.0</ele><time>2026-05-03T09:11:04.335Z</time></trkpt><trkpt lat="42.367732" lon="14.3098206"><ele>134.0</ele><time>2026-05-03T09:11:21.327Z</time></trkpt><trkpt lat="42.3676362" lon="14.3096846"><ele>134.0</ele><time>2026-05-03T09:11:25.358Z</time></trkpt><trkpt lat="42.3675643" lon="14.3096132"><ele>132.8</ele><time>2026-05-03T09:11:28.346Z</time></trkpt><trkpt lat="42.3674899" lon="14.3095833"><ele>131.60000000000002</ele><time>2026-05-03T09:11:31.341Z</time></trkpt><trkpt lat="42.3674168" lon="14.3095646"><ele>130.4</ele><time>2026-05-03T09:11:34.344Z</time></trkpt><trkpt lat="42.3673448" lon="14.309609"><ele>129.20000000000002</ele><time>2026-05-03T09:11:58.347Z</time></trkpt><trkpt lat="42.3672127" lon="14.3096964"><ele>128.0</ele><time>2026-05-03T09:13:01.354Z</time></trkpt><trkpt lat="42.3670272" lon="14.3098542"><ele>128.0</ele><time>2026-05-03T09:13:05.336Z</time></trkpt><trkpt lat="42.3669337" lon="14.3099378"><ele>128.0</ele><time>2026-05-03T09:13:07.327Z</time></trkpt><trkpt lat="42.3668176" lon="14.3100279"><ele>128.0</ele><time>2026-05-03T09:13:09.347Z</time></trkpt><trkpt lat="42.3667348" lon="14.3100788"><ele>128.0</ele><time>2026-05-03T09:13:10.341Z</time></trkpt><trkpt lat="42.366655" lon="14.3101273"><ele>128.0</ele><time>2026-05-03T09:13:11.339Z</time></trkpt><trkpt lat="42.3665776" lon="14.3101771"><ele>127.99999999999999</ele><time>2026-05-03T09:13:12.353Z</time></trkpt><trkpt lat="42.3665042" lon="14.310223"><ele>128.0</ele><time>2026-05-03T09:13:13.33Z</time></trkpt><trkpt lat="42.3664352" lon="14.3102645"><ele>128.0</ele><time>2026-05-03T09:13:14.361Z</time></trkpt><trkpt lat="42.3663748" lon="14.310294"><ele>128.0</ele><time>2026-05-03T09:13:15.342Z</time></trkpt><trkpt lat="42.3662853" lon="14.3103432"><ele>127.99999999999999</ele><time>2026-05-03T09:13:17.357Z</time></trkpt><trkpt lat="42.3662226" lon="14.310309"><ele>128.0</ele><time>2026-05-03T09:13:19.337Z</time></trkpt><trkpt lat="42.3662301" lon="14.3101523"><ele>123.0</ele><time>2026-05-03T09:13:21.332Z</time></trkpt><trkpt lat="42.3662447" lon="14.3100483"><ele>118.00000000000001</ele><time>2026-05-03T09:13:22.345Z</time></trkpt><trkpt lat="42.3662746" lon="14.3098449"><ele>113.0</ele><time>2026-05-03T09:13:24.331Z</time></trkpt><trkpt lat="42.3662898" lon="14.3097378"><ele>108.0</ele><time>2026-05-03T09:13:25.333Z</time></trkpt><trkpt lat="42.3663055" lon="14.3096537"><ele>103.0</ele><time>2026-05-03T09:13:26.342Z</time></trkpt><trkpt lat="42.3663297" lon="14.3095183"><ele>104.4</ele><time>2026-05-03T09:13:28.348Z</time></trkpt><trkpt lat="42.3663088" lon="14.3093926"><ele>105.80000000000001</ele><time>2026-05-03T09:13:30.339Z</time></trkpt><trkpt lat="42.3663108" lon="14.3092719"><ele>107.2</ele><time>2026-05-03T09:13:32.332Z</time></trkpt><trkpt lat="42.3663256" lon="14.3091787"><ele>108.6</ele><time>2026-05-03T09:13:37.344Z</time></trkpt><trkpt lat="42.3663453" lon="14.3090893"><ele>110.0</ele><time>2026-05-03T09:13:45.332Z</time></trkpt><trkpt lat="42.3663909" lon="14.3089145"><ele>103.66666666666666</ele><time>2026-05-03T09:14:02.349Z</time></trkpt><trkpt lat="42.3664072" lon="14.3088307"><ele>97.33333333333333</ele><time>2026-05-03T09:14:08.348Z</time></trkpt><trkpt lat="42.3665022" lon="14.3086841"><ele>91.0</ele><time>2026-05-03T09:16:17.342Z</time></trkpt><trkpt lat="42.3664723" lon="14.3083457"><ele>91.0</ele><time>2026-05-03T09:22:31.342Z</time></trkpt><trkpt lat="42.3664649" lon="14.3081739"><ele>91.0</ele><time>2026-05-03T09:22:44.353Z</time></trkpt><trkpt lat="42.3664493" lon="14.3080833"><ele>91.0</ele><time>2026-05-03T09:22:50.334Z</time></trkpt><trkpt lat="42.36646" lon="14.3079966"><ele>91.0</ele><time>2026-05-03T09:23:19.351Z</time></trkpt><trkpt lat="42.3664596" lon="14.3077156"><ele>87.83333333333333</ele><time>2026-05-03T09:23:53.352Z</time></trkpt><trkpt lat="42.3664596" lon="14.3076102"><ele>84.66666666666666</ele><time>2026-05-03T09:24:00.355Z</time></trkpt><trkpt lat="42.3664427" lon="14.3075151"><ele>81.5</ele><time>2026-05-03T09:24:04.341Z</time></trkpt><trkpt lat="42.3664629" lon="14.30743"><ele>78.33333333333333</ele><time>2026-05-03T09:24:07.346Z</time></trkpt><trkpt lat="42.3664582" lon="14.3072363"><ele>75.16666666666667</ele><time>2026-05-03T09:24:14.369Z</time></trkpt><trkpt lat="42.3664857" lon="14.3071351"><ele>72.0</ele><time>2026-05-03T09:24:18.348Z</time></trkpt><trkpt lat="42.3664923" lon="14.3070483"><ele>68.0</ele><time>2026-05-03T09:24:21.355Z</time></trkpt><trkpt lat="42.3664923" lon="14.3069357"><ele>64.0</ele><time>2026-05-03T09:24:24.336Z</time></trkpt><trkpt lat="42.366506" lon="14.3068321"><ele>60.0</ele><time>2026-05-03T09:24:27.346Z</time></trkpt><trkpt lat="42.3665043" lon="14.3067302"><ele>56.0</ele><time>2026-05-03T09:24:30.353Z</time></trkpt><trkpt lat="42.3664315" lon="14.306563"><ele>52.0</ele><time>2026-05-03T09:24:36.34Z</time></trkpt><trkpt lat="42.3663755" lon="14.3065061"><ele>50.83333333333333</ele><time>2026-05-03T09:24:39.354Z</time></trkpt><trkpt lat="42.3663156" lon="14.3064719"><ele>49.666666666666664</ele><time>2026-05-03T09:24:42.341Z</time></trkpt><trkpt lat="42.3662489" lon="14.3064526"><ele>48.5</ele><time>2026-05-03T09:24:51.372Z</time></trkpt><trkpt lat="42.3661299" lon="14.3063596"><ele>47.33333333333333</ele><time>2026-05-03T09:25:06.347Z</time></trkpt><trkpt lat="42.3660567" lon="14.3063112"><ele>46.166666666666664</ele><time>2026-05-03T09:25:10.356Z</time></trkpt><trkpt lat="42.3659849" lon="14.3062372"><ele>45.0</ele><time>2026-05-03T09:25:13.375Z</time></trkpt><trkpt lat="42.3657126" lon="14.3062473"><ele>44.0</ele><time>2026-05-03T09:45:59.355Z</time></trkpt><trkpt lat="42.3656453" lon="14.3062466"><ele>43.0</ele><time>2026-05-03T09:46:00.374Z</time></trkpt><trkpt lat="42.3655484" lon="14.3062304"><ele>42.0</ele><time>2026-05-03T09:46:02.374Z</time></trkpt><trkpt lat="42.3654301" lon="14.3062384"><ele>41.0</ele><time>2026-05-03T09:46:04.349Z</time></trkpt><trkpt lat="42.3653577" lon="14.3062429"><ele>40.0</ele><time>2026-05-03T09:46:05.368Z</time></trkpt><trkpt lat="42.3652848" lon="14.3062258"><ele>39.0</ele><time>2026-05-03T09:46:06.35Z</time></trkpt><trkpt lat="42.3652115" lon="14.3061938"><ele>39.0</ele><time>2026-05-03T09:46:07.348Z</time></trkpt><trkpt lat="42.3651378" lon="14.3061701"><ele>39.0</ele><time>2026-05-03T09:46:08.341Z</time></trkpt><trkpt lat="42.3650666" lon="14.3061613"><ele>39.0</ele><time>2026-05-03T09:46:09.342Z</time></trkpt><trkpt lat="42.3649935" lon="14.3061668"><ele>39.0</ele><time>2026-05-03T09:46:10.338Z</time></trkpt><trkpt lat="42.3649136" lon="14.3061898"><ele>39.0</ele><time>2026-05-03T09:46:11.337Z</time></trkpt><trkpt lat="42.3648302" lon="14.3062151"><ele>39.0</ele><time>2026-05-03T09:46:12.358Z</time></trkpt><trkpt lat="42.3647373" lon="14.3062575"><ele>38.75</ele><time>2026-05-03T09:46:13.342Z</time></trkpt><trkpt lat="42.3646408" lon="14.306312"><ele>38.5</ele><time>2026-05-03T09:46:14.33Z</time></trkpt><trkpt lat="42.3645491" lon="14.3063586"><ele>38.25</ele><time>2026-05-03T09:46:15.354Z</time></trkpt><trkpt lat="42.3644635" lon="14.306415"><ele>38.0</ele><time>2026-05-03T09:46:16.355Z</time></trkpt><trkpt lat="42.3643043" lon="14.306552"><ele>38.83333333333333</ele><time>2026-05-03T09:46:18.353Z</time></trkpt><trkpt lat="42.3642269" lon="14.3066342"><ele>39.666666666666664</ele><time>2026-05-03T09:46:19.336Z</time></trkpt><trkpt lat="42.3641536" lon="14.3067109"><ele>40.5</ele><time>2026-05-03T09:46:20.339Z</time></trkpt><trkpt lat="42.3640891" lon="14.3067758"><ele>41.333333333333336</ele><time>2026-05-03T09:46:21.348Z</time></trkpt><trkpt lat="42.3640295" lon="14.3068308"><ele>42.16666666666667</ele><time>2026-05-03T09:46:22.35Z</time></trkpt><trkpt lat="42.363963" lon="14.3068827"><ele>43.0</ele><time>2026-05-03T09:46:23.344Z</time></trkpt><trkpt lat="42.3638954" lon="14.3069326"><ele>42.199999999999996</ele><time>2026-05-03T09:46:24.358Z</time></trkpt><trkpt lat="42.3638191" lon="14.3069678"><ele>41.4</ele><time>2026-05-03T09:46:25.341Z</time></trkpt><trkpt lat="42.3637349" lon="14.3070022"><ele>40.599999999999994</ele><time>2026-05-03T09:46:26.35Z</time></trkpt><trkpt lat="42.3636363" lon="14.3070285"><ele>39.8</ele><time>2026-05-03T09:46:27.359Z</time></trkpt><trkpt lat="42.3635314" lon="14.3070519"><ele>39.0</ele><time>2026-05-03T09:46:28.35Z</time></trkpt><trkpt lat="42.3634317" lon="14.3070652"><ele>39.0</ele><time>2026-05-03T09:46:29.346Z</time></trkpt><trkpt lat="42.3633304" lon="14.3070699"><ele>39.0</ele><time>2026-05-03T09:46:30.342Z</time></trkpt><trkpt lat="42.3632326" lon="14.3070752"><ele>39.0</ele><time>2026-05-03T09:46:31.338Z</time></trkpt><trkpt lat="42.3631381" lon="14.307073"><ele>39.0</ele><time>2026-05-03T09:46:32.37Z</time></trkpt><trkpt lat="42.3630393" lon="14.3070623"><ele>39.0</ele><time>2026-05-03T09:46:33.347Z</time></trkpt><trkpt lat="42.362929" lon="14.3070481"><ele>38.75</ele><time>2026-05-03T09:46:34.359Z</time></trkpt><trkpt lat="42.3628207" lon="14.307032"><ele>38.5</ele><time>2026-05-03T09:46:35.341Z</time></trkpt><trkpt lat="42.362721" lon="14.307011"><ele>38.25</ele><time>2026-05-03T09:46:36.354Z</time></trkpt><trkpt lat="42.3626292" lon="14.3069938"><ele>38.0</ele><time>2026-05-03T09:46:37.347Z</time></trkpt><trkpt lat="42.3624221" lon="14.3069774"><ele>38.0</ele><time>2026-05-03T09:46:39.348Z</time></trkpt><trkpt lat="42.3623032" lon="14.3069756"><ele>38.0</ele><time>2026-05-03T09:46:40.345Z</time></trkpt><trkpt lat="42.3621875" lon="14.3069727"><ele>38.0</ele><time>2026-05-03T09:46:41.345Z</time></trkpt><trkpt lat="42.3620673" lon="14.3069725"><ele>38.0</ele><time>2026-05-03T09:46:42.351Z</time></trkpt><trkpt lat="42.3619545" lon="14.3069745"><ele>37.83333333333333</ele><time>2026-05-03T09:46:43.331Z</time></trkpt><trkpt lat="42.3618624" lon="14.3069776"><ele>37.666666666666664</ele><time>2026-05-03T09:46:44.352Z</time></trkpt><trkpt lat="42.3617799" lon="14.306972"><ele>37.5</ele><time>2026-05-03T09:46:45.344Z</time></trkpt><trkpt lat="42.3617002" lon="14.3069623"><ele>37.333333333333336</ele><time>2026-05-03T09:46:46.34Z</time></trkpt><trkpt lat="42.3616245" lon="14.3069528"><ele>37.16666666666667</ele><time>2026-05-03T09:46:47.338Z</time></trkpt><trkpt lat="42.3615525" lon="14.3069219"><ele>37.0</ele><time>2026-05-03T09:46:48.353Z</time></trkpt><trkpt lat="42.3614762" lon="14.3068585"><ele>37.0</ele><time>2026-05-03T09:46:49.341Z</time></trkpt><trkpt lat="42.3613995" lon="14.306773"><ele>37.0</ele><time>2026-05-03T09:46:50.337Z</time></trkpt><trkpt lat="42.3613317" lon="14.3066879"><ele>37.0</ele><time>2026-05-03T09:46:51.36Z</time></trkpt><trkpt lat="42.3612568" lon="14.3066125"><ele>37.0</ele><time>2026-05-03T09:46:52.345Z</time></trkpt><trkpt lat="42.3611766" lon="14.3065518"><ele>37.0</ele><time>2026-05-03T09:46:53.336Z</time></trkpt><trkpt lat="42.3610719" lon="14.306513"><ele>37.0</ele><time>2026-05-03T09:46:54.353Z</time></trkpt><trkpt lat="42.3609427" lon="14.3064833"><ele>37.0</ele><time>2026-05-03T09:46:55.352Z</time></trkpt><trkpt lat="42.3608177" lon="14.3064618"><ele>37.0</ele><time>2026-05-03T09:46:56.343Z</time></trkpt><trkpt lat="42.3607039" lon="14.3064243"><ele>37.0</ele><time>2026-05-03T09:46:57.34Z</time></trkpt><trkpt lat="42.3605972" lon="14.3063844"><ele>33.66666666666667</ele><time>2026-05-03T09:46:58.354Z</time></trkpt><trkpt lat="42.3603844" lon="14.306269"><ele>30.333333333333336</ele><time>2026-05-03T09:47:00.358Z</time></trkpt><trkpt lat="42.3602731" lon="14.3062174"><ele>27.0</ele><time>2026-05-03T09:47:01.351Z</time></trkpt><trkpt lat="42.3601723" lon="14.3061759"><ele>27.0</ele><time>2026-05-03T09:47:02.343Z</time></trkpt><trkpt lat="42.3600805" lon="14.3061479"><ele>27.000000000000004</ele><time>2026-05-03T09:47:03.354Z</time></trkpt><trkpt lat="42.3599879" lon="14.3061408"><ele>27.000000000000004</ele><time>2026-05-03T09:47:04.346Z</time></trkpt><trkpt lat="42.3598937" lon="14.3061613"><ele>27.0</ele><time>2026-05-03T09:47:05.343Z</time></trkpt><trkpt lat="42.3597935" lon="14.306216"><ele>27.0</ele><time>2026-05-03T09:47:06.35Z</time></trkpt><trkpt lat="42.3596903" lon="14.306277"><ele>28.0</ele><time>2026-05-03T09:47:07.354Z</time></trkpt><trkpt lat="42.359579" lon="14.3063247"><ele>29.000000000000004</ele><time>2026-05-03T09:47:08.328Z</time></trkpt><trkpt lat="42.3594643" lon="14.3063583"><ele>30.000000000000004</ele><time>2026-05-03T09:47:09.358Z</time></trkpt><trkpt lat="42.3593568" lon="14.3063861"><ele>31.0</ele><time>2026-05-03T09:47:10.344Z</time></trkpt><trkpt lat="42.359267" lon="14.3064114"><ele>32.0</ele><time>2026-05-03T09:47:11.345Z</time></trkpt><trkpt lat="42.359191" lon="14.3064373"><ele>32.166666666666664</ele><time>2026-05-03T09:47:12.356Z</time></trkpt><trkpt lat="42.3591249" lon="14.3064712"><ele>32.33333333333333</ele><time>2026-05-03T09:47:13.342Z</time></trkpt><trkpt lat="42.3590638" lon="14.3065329"><ele>32.5</ele><time>2026-05-03T09:47:14.364Z</time></trkpt><trkpt lat="42.3590102" lon="14.3066289"><ele>32.666666666666664</ele><time>2026-05-03T09:47:15.355Z</time></trkpt><trkpt lat="42.3589553" lon="14.3067391"><ele>32.833333333333336</ele><time>2026-05-03T09:47:16.338Z</time></trkpt><trkpt lat="42.3588938" lon="14.3068475"><ele>33.0</ele><time>2026-05-03T09:47:17.345Z</time></trkpt><trkpt lat="42.3588247" lon="14.3069473"><ele>32.6</ele><time>2026-05-03T09:47:18.337Z</time></trkpt><trkpt lat="42.3587536" lon="14.3070312"><ele>32.199999999999996</ele><time>2026-05-03T09:47:19.35Z</time></trkpt><trkpt lat="42.3585949" lon="14.3071306"><ele>31.8</ele><time>2026-05-03T09:47:21.347Z</time></trkpt><trkpt lat="42.358508" lon="14.3071486"><ele>31.4</ele><time>2026-05-03T09:47:22.346Z</time></trkpt><trkpt lat="42.3584172" lon="14.307139"><ele>31.0</ele><time>2026-05-03T09:47:23.327Z</time></trkpt><trkpt lat="42.3583088" lon="14.3070933"><ele>31.0</ele><time>2026-05-03T09:47:24.34Z</time></trkpt><trkpt lat="42.3581706" lon="14.3070279"><ele>31.0</ele><time>2026-05-03T09:47:25.354Z</time></trkpt><trkpt lat="42.358022" lon="14.3069536"><ele>31.0</ele><time>2026-05-03T09:47:26.335Z</time></trkpt><trkpt lat="42.3578766" lon="14.3068823"><ele>31.333333333333336</ele><time>2026-05-03T09:47:27.358Z</time></trkpt><trkpt lat="42.3577367" lon="14.3068115"><ele>31.666666666666664</ele><time>2026-05-03T09:47:28.337Z</time></trkpt><trkpt lat="42.3575932" lon="14.3067446"><ele>32.0</ele><time>2026-05-03T09:47:29.342Z</time></trkpt><trkpt lat="42.3574458" lon="14.3066691"><ele>32.0</ele><time>2026-05-03T09:47:30.351Z</time></trkpt><trkpt lat="42.3573049" lon="14.3066007"><ele>32.0</ele><time>2026-05-03T09:47:31.354Z</time></trkpt><trkpt lat="42.3571694" lon="14.3065415"><ele>32.0</ele><time>2026-05-03T09:47:32.348Z</time></trkpt><trkpt lat="42.3570511" lon="14.3064916"><ele>32.0</ele><time>2026-05-03T09:47:33.335Z</time></trkpt><trkpt lat="42.3569289" lon="14.3064358"><ele>31.75</ele><time>2026-05-03T09:47:34.341Z</time></trkpt><trkpt lat="42.3568069" lon="14.3063908"><ele>31.5</ele><time>2026-05-03T09:47:35.348Z</time></trkpt><trkpt lat="42.3566827" lon="14.306369"><ele>31.25</ele><time>2026-05-03T09:47:36.343Z</time></trkpt><trkpt lat="42.3565588" lon="14.306359"><ele>31.0</ele><time>2026-05-03T09:47:37.337Z</time></trkpt><trkpt lat="42.3564417" lon="14.3063545"><ele>31.666666666666668</ele><time>2026-05-03T09:47:38.344Z</time></trkpt><trkpt lat="42.3563295" lon="14.3063645"><ele>32.333333333333336</ele><time>2026-05-03T09:47:39.345Z</time></trkpt><trkpt lat="42.3562197" lon="14.3063917"><ele>33.0</ele><time>2026-05-03T09:47:40.334Z</time></trkpt><trkpt lat="42.355965" lon="14.3064612"><ele>33.5</ele><time>2026-05-03T09:47:42.346Z</time></trkpt><trkpt lat="42.3558236" lon="14.3065066"><ele>34.0</ele><time>2026-05-03T09:47:43.333Z</time></trkpt><trkpt lat="42.3556811" lon="14.3065477"><ele>34.5</ele><time>2026-05-03T09:47:44.343Z</time></trkpt><trkpt lat="42.3555349" lon="14.3065989"><ele>35.0</ele><time>2026-05-03T09:47:45.34Z</time></trkpt><trkpt lat="42.3553949" lon="14.3066632"><ele>35.0</ele><time>2026-05-03T09:47:46.33Z</time></trkpt><trkpt lat="42.3552608" lon="14.3067362"><ele>35.0</ele><time>2026-05-03T09:47:47.345Z</time></trkpt><trkpt lat="42.3551376" lon="14.3068003"><ele>35.0</ele><time>2026-05-03T09:47:48.349Z</time></trkpt><trkpt lat="42.3550236" lon="14.3068539"><ele>35.0</ele><time>2026-05-03T09:47:49.342Z</time></trkpt><trkpt lat="42.3549108" lon="14.3069129"><ele>35.0</ele><time>2026-05-03T09:47:50.344Z</time></trkpt><trkpt lat="42.3547929" lon="14.3069664"><ele>35.0</ele><time>2026-05-03T09:47:51.356Z</time></trkpt><trkpt lat="42.3546706" lon="14.3070125"><ele>35.0</ele><time>2026-05-03T09:47:52.352Z</time></trkpt><trkpt lat="42.3545406" lon="14.3070561"><ele>35.0</ele><time>2026-05-03T09:47:53.352Z</time></trkpt><trkpt lat="42.3544209" lon="14.3071005"><ele>35.0</ele><time>2026-05-03T09:47:54.357Z</time></trkpt><trkpt lat="42.3543093" lon="14.307145"><ele>35.0</ele><time>2026-05-03T09:47:55.348Z</time></trkpt><trkpt lat="42.3541956" lon="14.3072113"><ele>35.0</ele><time>2026-05-03T09:47:56.349Z</time></trkpt><trkpt lat="42.3540857" lon="14.3072934"><ele>35.0</ele><time>2026-05-03T09:47:57.348Z</time></trkpt><trkpt lat="42.3539841" lon="14.3073722"><ele>36.25</ele><time>2026-05-03T09:47:58.332Z</time></trkpt><trkpt lat="42.353889" lon="14.3074387"><ele>37.5</ele><time>2026-05-03T09:47:59.337Z</time></trkpt><trkpt lat="42.353791" lon="14.3074807"><ele>38.75</ele><time>2026-05-03T09:48:00.339Z</time></trkpt><trkpt lat="42.3536828" lon="14.3074827"><ele>40.0</ele><time>2026-05-03T09:48:01.354Z</time></trkpt><trkpt lat="42.3534641" lon="14.307453"><ele>40.0</ele><time>2026-05-03T09:48:03.338Z</time></trkpt><trkpt lat="42.3533808" lon="14.3074667"><ele>40.0</ele><time>2026-05-03T09:48:04.341Z</time></trkpt><trkpt lat="42.3532955" lon="14.3075297"><ele>40.0</ele><time>2026-05-03T09:48:05.339Z</time></trkpt><trkpt lat="42.3532012" lon="14.3076251"><ele>40.0</ele><time>2026-05-03T09:48:06.373Z</time></trkpt><trkpt lat="42.3530998" lon="14.3077043"><ele>40.0</ele><time>2026-05-03T09:48:07.338Z</time></trkpt><trkpt lat="42.3529963" lon="14.3077683"><ele>39.6</ele><time>2026-05-03T09:48:08.337Z</time></trkpt><trkpt lat="42.3528941" lon="14.3078013"><ele>39.2</ele><time>2026-05-03T09:48:09.35Z</time></trkpt><trkpt lat="42.3527903" lon="14.307785"><ele>38.8</ele><time>2026-05-03T09:48:10.331Z</time></trkpt><trkpt lat="42.3526792" lon="14.3077152"><ele>38.4</ele><time>2026-05-03T09:48:11.344Z</time></trkpt><trkpt lat="42.3525897" lon="14.3076488"><ele>38.0</ele><time>2026-05-03T09:48:12.353Z</time></trkpt><trkpt lat="42.3525211" lon="14.3076262"><ele>38.0</ele><time>2026-05-03T09:48:13.352Z</time></trkpt><trkpt lat="42.35241" lon="14.3075988"><ele>38.0</ele><time>2026-05-03T09:48:15.341Z</time></trkpt><trkpt lat="42.3523459" lon="14.3076076"><ele>38.0</ele><time>2026-05-03T09:48:16.333Z</time></trkpt><trkpt lat="42.3522638" lon="14.307633"><ele>38.0</ele><time>2026-05-03T09:48:17.353Z</time></trkpt><trkpt lat="42.3521621" lon="14.3076572"><ele>38.0</ele><time>2026-05-03T09:48:18.347Z</time></trkpt><trkpt lat="42.3520465" lon="14.307682"><ele>38.25</ele><time>2026-05-03T09:48:19.335Z</time></trkpt><trkpt lat="42.3519232" lon="14.3077047"><ele>38.5</ele><time>2026-05-03T09:48:20.346Z</time></trkpt><trkpt lat="42.3517986" lon="14.3077276"><ele>38.75</ele><time>2026-05-03T09:48:21.327Z</time></trkpt><trkpt lat="42.3516806" lon="14.3077373"><ele>39.0</ele><time>2026-05-03T09:48:22.344Z</time></trkpt><trkpt lat="42.35148" lon="14.3077537"><ele>39.0</ele><time>2026-05-03T09:48:24.339Z</time></trkpt><trkpt lat="42.351388" lon="14.3077681"><ele>39.0</ele><time>2026-05-03T09:48:25.352Z</time></trkpt><trkpt lat="42.3512998" lon="14.3077826"><ele>39.0</ele><time>2026-05-03T09:48:26.352Z</time></trkpt><trkpt lat="42.3512202" lon="14.3077946"><ele>39.0</ele><time>2026-05-03T09:48:27.346Z</time></trkpt><trkpt lat="42.3511497" lon="14.3078018"><ele>39.0</ele><time>2026-05-03T09:48:28.336Z</time></trkpt><trkpt lat="42.3510826" lon="14.3078113"><ele>39.0</ele><time>2026-05-03T09:48:29.351Z</time></trkpt><trkpt lat="42.351013" lon="14.3078249"><ele>39.57142857142858</ele><time>2026-05-03T09:48:30.34Z</time></trkpt><trkpt lat="42.3509399" lon="14.3078345"><ele>40.14285714285714</ele><time>2026-05-03T09:48:31.335Z</time></trkpt><trkpt lat="42.3508687" lon="14.3078396"><ele>40.714285714285715</ele><time>2026-05-03T09:48:32.351Z</time></trkpt><trkpt lat="42.3507979" lon="14.3078452"><ele>41.28571428571429</ele><time>2026-05-03T09:48:33.355Z</time></trkpt><trkpt lat="42.350727" lon="14.3078486"><ele>41.85714285714286</ele><time>2026-05-03T09:48:34.334Z</time></trkpt><trkpt lat="42.3506529" lon="14.3078526"><ele>42.42857142857143</ele><time>2026-05-03T09:48:35.335Z</time></trkpt><trkpt lat="42.3505721" lon="14.3078524"><ele>43.0</ele><time>2026-05-03T09:48:36.355Z</time></trkpt><trkpt lat="42.3504878" lon="14.3078685"><ele>43.2</ele><time>2026-05-03T09:48:37.349Z</time></trkpt><trkpt lat="42.3504009" lon="14.3079033"><ele>43.4</ele><time>2026-05-03T09:48:38.351Z</time></trkpt><trkpt lat="42.350309" lon="14.3079453"><ele>43.6</ele><time>2026-05-03T09:48:39.35Z</time></trkpt><trkpt lat="42.3502148" lon="14.3079862"><ele>43.800000000000004</ele><time>2026-05-03T09:48:40.36Z</time></trkpt><trkpt lat="42.3501245" lon="14.3080305"><ele>44.0</ele><time>2026-05-03T09:48:41.342Z</time></trkpt><trkpt lat="42.3500384" lon="14.3080751"><ele>44.0</ele><time>2026-05-03T09:48:42.349Z</time></trkpt><trkpt lat="42.3499579" lon="14.3081192"><ele>44.0</ele><time>2026-05-03T09:48:43.34Z</time></trkpt><trkpt lat="42.3498009" lon="14.3082065"><ele>44.0</ele><time>2026-05-03T09:48:45.355Z</time></trkpt><trkpt lat="42.3497339" lon="14.3082381"><ele>44.0</ele><time>2026-05-03T09:48:46.338Z</time></trkpt><trkpt lat="42.3496737" lon="14.3082666"><ele>44.0</ele><time>2026-05-03T09:48:47.346Z</time></trkpt><trkpt lat="42.3496019" lon="14.3083027"><ele>43.83333333333333</ele><time>2026-05-03T09:48:48.362Z</time></trkpt><trkpt lat="42.3495234" lon="14.3083361"><ele>43.666666666666664</ele><time>2026-05-03T09:48:49.337Z</time></trkpt><trkpt lat="42.3494456" lon="14.308368"><ele>43.5</ele><time>2026-05-03T09:48:50.352Z</time></trkpt><trkpt lat="42.3493708" lon="14.308382"><ele>43.333333333333336</ele><time>2026-05-03T09:48:51.347Z</time></trkpt><trkpt lat="42.3493095" lon="14.3083588"><ele>43.16666666666667</ele><time>2026-05-03T09:48:52.357Z</time></trkpt><trkpt lat="42.3492559" lon="14.3082952"><ele>43.0</ele><time>2026-05-03T09:48:53.354Z</time></trkpt><trkpt lat="42.3492331" lon="14.3081941"><ele>42.833333333333336</ele><time>2026-05-03T09:48:54.343Z</time></trkpt><trkpt lat="42.3492212" lon="14.3080703"><ele>42.66666666666667</ele><time>2026-05-03T09:48:55.332Z</time></trkpt><trkpt lat="42.349203" lon="14.3079479"><ele>42.5</ele><time>2026-05-03T09:48:56.349Z</time></trkpt><trkpt lat="42.3491549" lon="14.3078728"><ele>42.333333333333336</ele><time>2026-05-03T09:48:57.346Z</time></trkpt><trkpt lat="42.34908" lon="14.3078529"><ele>42.166666666666664</ele><time>2026-05-03T09:48:58.351Z</time></trkpt><trkpt lat="42.3490051" lon="14.3078583"><ele>42.0</ele><time>2026-05-03T09:48:59.339Z</time></trkpt><trkpt lat="42.3489076" lon="14.3077915"><ele>42.0</ele><time>2026-05-03T09:49:01.348Z</time></trkpt><trkpt lat="42.3488855" lon="14.3076946"><ele>42.0</ele><time>2026-05-03T09:49:02.352Z</time></trkpt><trkpt lat="42.3488698" lon="14.3075869"><ele>42.0</ele><time>2026-05-03T09:49:03.338Z</time></trkpt><trkpt lat="42.3488444" lon="14.307469"><ele>42.0</ele><time>2026-05-03T09:49:04.333Z</time></trkpt><trkpt lat="42.3487918" lon="14.3072346"><ele>42.0</ele><time>2026-05-03T09:49:06.342Z</time></trkpt><trkpt lat="42.3487654" lon="14.307122"><ele>42.0</ele><time>2026-05-03T09:49:07.362Z</time></trkpt><trkpt lat="42.3487415" lon="14.3070124"><ele>42.0</ele><time>2026-05-03T09:49:08.342Z</time></trkpt><trkpt lat="42.3487145" lon="14.3069092"><ele>42.0</ele><time>2026-05-03T09:49:09.344Z</time></trkpt><trkpt lat="42.348689" lon="14.3068097"><ele>42.0</ele><time>2026-05-03T09:49:10.33Z</time></trkpt><trkpt lat="42.3486576" lon="14.3067203"><ele>42.0</ele><time>2026-05-03T09:49:11.35Z</time></trkpt><trkpt lat="42.3486274" lon="14.306641"><ele>42.0</ele><time>2026-05-03T09:49:12.334Z</time></trkpt><trkpt lat="42.3485801" lon="14.3065167"><ele>43.0</ele><time>2026-05-03T09:49:14.341Z</time></trkpt><trkpt lat="42.3485713" lon="14.3063804"><ele>44.0</ele><time>2026-05-03T09:49:16.357Z</time></trkpt><trkpt lat="42.3485965" lon="14.3063017"><ele>45.0</ele><time>2026-05-03T09:49:17.331Z</time></trkpt><trkpt lat="42.3486448" lon="14.3062224"><ele>46.0</ele><time>2026-05-03T09:49:18.362Z</time></trkpt><trkpt lat="42.3486998" lon="14.3061333"><ele>47.0</ele><time>2026-05-03T09:49:19.341Z</time></trkpt><trkpt lat="42.348757" lon="14.3060452"><ele>48.0</ele><time>2026-05-03T09:49:20.35Z</time></trkpt><trkpt lat="42.3488101" lon="14.3059505"><ele>48.0</ele><time>2026-05-03T09:49:21.333Z</time></trkpt><trkpt lat="42.3488483" lon="14.3058575"><ele>48.0</ele><time>2026-05-03T09:49:22.33Z</time></trkpt><trkpt lat="42.3488699" lon="14.3057716"><ele>48.0</ele><time>2026-05-03T09:49:23.345Z</time></trkpt><trkpt lat="42.3488679" lon="14.3056861"><ele>48.0</ele><time>2026-05-03T09:49:24.378Z</time></trkpt><trkpt lat="42.3488455" lon="14.3056062"><ele>48.0</ele><time>2026-05-03T09:49:25.355Z</time></trkpt><trkpt lat="42.3487368" lon="14.3054706"><ele>48.0</ele><time>2026-05-03T09:49:27.366Z</time></trkpt><trkpt lat="42.348623" lon="14.3054253"><ele>48.0</ele><time>2026-05-03T09:49:29.354Z</time></trkpt><trkpt lat="42.3485353" lon="14.3054266"><ele>48.0</ele><time>2026-05-03T09:49:31.332Z</time></trkpt><trkpt lat="42.3484118" lon="14.3054863"><ele>48.0</ele><time>2026-05-03T09:49:51.35Z</time></trkpt><trkpt lat="42.3482727" lon="14.3056239"><ele>48.0</ele><time>2026-05-03T09:49:53.354Z</time></trkpt><trkpt lat="42.3481714" lon="14.3057254"><ele>48.0</ele><time>2026-05-03T09:49:54.339Z</time></trkpt><trkpt lat="42.3480741" lon="14.3058292"><ele>48.0</ele><time>2026-05-03T09:49:55.348Z</time></trkpt><trkpt lat="42.3479673" lon="14.30594"><ele>48.0</ele><time>2026-05-03T09:49:56.346Z</time></trkpt><trkpt lat="42.3478539" lon="14.3060523"><ele>48.0</ele><time>2026-05-03T09:49:57.348Z</time></trkpt><trkpt lat="42.3477468" lon="14.3061657"><ele>48.0</ele><time>2026-05-03T09:49:58.365Z</time></trkpt><trkpt lat="42.3476443" lon="14.3062652"><ele>48.0</ele><time>2026-05-03T09:49:59.346Z</time></trkpt><trkpt lat="42.3475562" lon="14.3063634"><ele>48.0</ele><time>2026-05-03T09:50:00.338Z</time></trkpt><trkpt lat="42.3474587" lon="14.306454"><ele>48.0</ele><time>2026-05-03T09:50:01.35Z</time></trkpt><trkpt lat="42.347354" lon="14.3065323"><ele>48.0</ele><time>2026-05-03T09:50:02.349Z</time></trkpt><trkpt lat="42.3472398" lon="14.3066015"><ele>48.0</ele><time>2026-05-03T09:50:03.345Z</time></trkpt><trkpt lat="42.3471131" lon="14.3066637"><ele>48.0</ele><time>2026-05-03T09:50:04.352Z</time></trkpt><trkpt lat="42.3469812" lon="14.3067206"><ele>48.0</ele><time>2026-05-03T09:50:05.35Z</time></trkpt><trkpt lat="42.3468504" lon="14.3067859"><ele>49.0</ele><time>2026-05-03T09:50:06.339Z</time></trkpt><trkpt lat="42.3467281" lon="14.306849"><ele>50.0</ele><time>2026-05-03T09:50:07.359Z</time></trkpt><trkpt lat="42.3466107" lon="14.3069099"><ele>51.0</ele><time>2026-05-03T09:50:08.342Z</time></trkpt><trkpt lat="42.3464942" lon="14.3069679"><ele>52.0</ele><time>2026-05-03T09:50:09.354Z</time></trkpt><trkpt lat="42.3463784" lon="14.3070243"><ele>52.33333333333333</ele><time>2026-05-03T09:50:10.355Z</time></trkpt><trkpt lat="42.346262" lon="14.3070828"><ele>52.66666666666667</ele><time>2026-05-03T09:50:11.353Z</time></trkpt><trkpt lat="42.3461443" lon="14.3071386"><ele>53.0</ele><time>2026-05-03T09:50:12.355Z</time></trkpt><trkpt lat="42.345911" lon="14.307254"><ele>51.75</ele><time>2026-05-03T09:50:14.367Z</time></trkpt><trkpt lat="42.3457949" lon="14.3073141"><ele>50.5</ele><time>2026-05-03T09:50:15.337Z</time></trkpt><trkpt lat="42.3456751" lon="14.3073783"><ele>49.25</ele><time>2026-05-03T09:50:16.371Z</time></trkpt><trkpt lat="42.3455552" lon="14.3074455"><ele>48.0</ele><time>2026-05-03T09:50:17.342Z</time></trkpt><trkpt lat="42.3454355" lon="14.3075166"><ele>48.0</ele><time>2026-05-03T09:50:18.346Z</time></trkpt><trkpt lat="42.3453162" lon="14.3075866"><ele>48.0</ele><time>2026-05-03T09:50:19.339Z</time></trkpt><trkpt lat="42.3451959" lon="14.307662"><ele>48.0</ele><time>2026-05-03T09:50:20.362Z</time></trkpt><trkpt lat="42.3450676" lon="14.3077388"><ele>48.0</ele><time>2026-05-03T09:50:21.33Z</time></trkpt><trkpt lat="42.3449396" lon="14.3078163"><ele>48.0</ele><time>2026-05-03T09:50:22.389Z</time></trkpt><trkpt lat="42.3448153" lon="14.3078954"><ele>48.0</ele><time>2026-05-03T09:50:23.339Z</time></trkpt><trkpt lat="42.3446905" lon="14.3079738"><ele>48.0</ele><time>2026-05-03T09:50:24.346Z</time></trkpt><trkpt lat="42.3445621" lon="14.3080526"><ele>48.0</ele><time>2026-05-03T09:50:25.349Z</time></trkpt><trkpt lat="42.3444386" lon="14.3081281"><ele>46.75</ele><time>2026-05-03T09:50:26.358Z</time></trkpt><trkpt lat="42.3443202" lon="14.3082012"><ele>45.5</ele><time>2026-05-03T09:50:27.335Z</time></trkpt><trkpt lat="42.3442101" lon="14.3082691"><ele>44.25</ele><time>2026-05-03T09:50:28.364Z</time></trkpt><trkpt lat="42.3441099" lon="14.3083328"><ele>43.0</ele><time>2026-05-03T09:50:29.347Z</time></trkpt><trkpt lat="42.3440188" lon="14.3083898"><ele>43.0</ele><time>2026-05-03T09:50:30.363Z</time></trkpt><trkpt lat="42.343933" lon="14.3084417"><ele>43.0</ele><time>2026-05-03T09:50:31.373Z</time></trkpt><trkpt lat="42.3438537" lon="14.3084848"><ele>43.0</ele><time>2026-05-03T09:50:32.344Z</time></trkpt><trkpt lat="42.3437765" lon="14.3085181"><ele>43.0</ele><time>2026-05-03T09:50:33.347Z</time></trkpt><trkpt lat="42.3436207" lon="14.308553"><ele>43.0</ele><time>2026-05-03T09:50:35.347Z</time></trkpt><trkpt lat="42.3435459" lon="14.3085583"><ele>43.00000000000001</ele><time>2026-05-03T09:50:36.337Z</time></trkpt><trkpt lat="42.3434771" lon="14.3085619"><ele>43.0</ele><time>2026-05-03T09:50:37.344Z</time></trkpt><trkpt lat="42.3434105" lon="14.3085685"><ele>43.0</ele><time>2026-05-03T09:50:38.365Z</time></trkpt><trkpt lat="42.343346" lon="14.3085652"><ele>43.0</ele><time>2026-05-03T09:50:39.339Z</time></trkpt><trkpt lat="42.3432816" lon="14.3085425"><ele>43.0</ele><time>2026-05-03T09:50:40.346Z</time></trkpt><trkpt lat="42.343216" lon="14.3085007"><ele>43.00000000000001</ele><time>2026-05-03T09:50:41.352Z</time></trkpt><trkpt lat="42.3431437" lon="14.3084397"><ele>43.0</ele><time>2026-05-03T09:50:42.35Z</time></trkpt><trkpt lat="42.343073" lon="14.3083663"><ele>43.16666666666667</ele><time>2026-05-03T09:50:43.365Z</time></trkpt><trkpt lat="42.3429952" lon="14.3082908"><ele>43.333333333333336</ele><time>2026-05-03T09:50:44.336Z</time></trkpt><trkpt lat="42.3429165" lon="14.3082247"><ele>43.5</ele><time>2026-05-03T09:50:45.343Z</time></trkpt><trkpt lat="42.3428508" lon="14.3081685"><ele>43.666666666666664</ele><time>2026-05-03T09:50:46.348Z</time></trkpt><trkpt lat="42.3427926" lon="14.3081148"><ele>43.83333333333333</ele><time>2026-05-03T09:50:47.36Z</time></trkpt><trkpt lat="42.3427402" lon="14.3080649"><ele>44.0</ele><time>2026-05-03T09:50:48.338Z</time></trkpt><trkpt lat="42.3426549" lon="14.30798"><ele>44.75</ele><time>2026-05-03T09:50:50.352Z</time></trkpt><trkpt lat="42.3425626" lon="14.3079002"><ele>45.5</ele><time>2026-05-03T09:50:52.342Z</time></trkpt><trkpt lat="42.3424246" lon="14.3078586"><ele>46.25</ele><time>2026-05-03T09:50:54.333Z</time></trkpt><trkpt lat="42.3422411" lon="14.3078963"><ele>47.0</ele><time>2026-05-03T09:50:56.334Z</time></trkpt><trkpt lat="42.3421487" lon="14.3079375"><ele>47.0</ele><time>2026-05-03T09:50:57.349Z</time></trkpt><trkpt lat="42.3420444" lon="14.3079882"><ele>47.0</ele><time>2026-05-03T09:50:58.343Z</time></trkpt><trkpt lat="42.3419467" lon="14.3080435"><ele>47.0</ele><time>2026-05-03T09:50:59.343Z</time></trkpt><trkpt lat="42.3418547" lon="14.3081007"><ele>47.0</ele><time>2026-05-03T09:51:00.344Z</time></trkpt><trkpt lat="42.3417595" lon="14.3081624"><ele>47.0</ele><time>2026-05-03T09:51:01.346Z</time></trkpt><trkpt lat="42.3416484" lon="14.3082285"><ele>46.75</ele><time>2026-05-03T09:51:02.348Z</time></trkpt><trkpt lat="42.3415365" lon="14.3082877"><ele>46.5</ele><time>2026-05-03T09:51:03.335Z</time></trkpt><trkpt lat="42.3414246" lon="14.3083434"><ele>46.25</ele><time>2026-05-03T09:51:04.34Z</time></trkpt><trkpt lat="42.3413173" lon="14.3083979"><ele>46.0</ele><time>2026-05-03T09:51:05.337Z</time></trkpt><trkpt lat="42.3412044" lon="14.3084475"><ele>45.599999999999994</ele><time>2026-05-03T09:51:06.352Z</time></trkpt><trkpt lat="42.3410975" lon="14.3084954"><ele>45.2</ele><time>2026-05-03T09:51:07.353Z</time></trkpt><trkpt lat="42.3409935" lon="14.3085389"><ele>44.8</ele><time>2026-05-03T09:51:08.331Z</time></trkpt><trkpt lat="42.3408934" lon="14.3085744"><ele>44.400000000000006</ele><time>2026-05-03T09:51:09.347Z</time></trkpt><trkpt lat="42.3407931" lon="14.3086"><ele>44.0</ele><time>2026-05-03T09:51:10.352Z</time></trkpt><trkpt lat="42.3406947" lon="14.3086254"><ele>44.0</ele><time>2026-05-03T09:51:11.342Z</time></trkpt><trkpt lat="42.3405839" lon="14.308646"><ele>44.0</ele><time>2026-05-03T09:51:12.329Z</time></trkpt><trkpt lat="42.3404722" lon="14.3086571"><ele>44.0</ele><time>2026-05-03T09:51:13.348Z</time></trkpt><trkpt lat="42.3403743" lon="14.3086578"><ele>44.0</ele><time>2026-05-03T09:51:14.33Z</time></trkpt><trkpt lat="42.3402826" lon="14.3086618"><ele>44.0</ele><time>2026-05-03T09:51:15.344Z</time></trkpt><trkpt lat="42.3401325" lon="14.3086618"><ele>44.142857142857146</ele><time>2026-05-03T09:51:17.357Z</time></trkpt><trkpt lat="42.3400599" lon="14.308669"><ele>44.285714285714285</ele><time>2026-05-03T09:51:18.342Z</time></trkpt><trkpt lat="42.3399923" lon="14.3086806"><ele>44.42857142857143</ele><time>2026-05-03T09:51:19.34Z</time></trkpt><trkpt lat="42.339925" lon="14.3086745"><ele>44.57142857142857</ele><time>2026-05-03T09:51:20.35Z</time></trkpt><trkpt lat="42.3398606" lon="14.3086507"><ele>44.714285714285715</ele><time>2026-05-03T09:51:21.325Z</time></trkpt><trkpt lat="42.3397901" lon="14.3086136"><ele>44.857142857142854</ele><time>2026-05-03T09:51:22.336Z</time></trkpt><trkpt lat="42.3397115" lon="14.3085651"><ele>45.0</ele><time>2026-05-03T09:51:23.342Z</time></trkpt><trkpt lat="42.3396281" lon="14.308512"><ele>45.0</ele><time>2026-05-03T09:51:24.356Z</time></trkpt><trkpt lat="42.3395409" lon="14.3084543"><ele>45.0</ele><time>2026-05-03T09:51:25.344Z</time></trkpt><trkpt lat="42.3394572" lon="14.3084036"><ele>45.0</ele><time>2026-05-03T09:51:26.345Z</time></trkpt><trkpt lat="42.3393728" lon="14.308354"><ele>45.0</ele><time>2026-05-03T09:51:27.345Z</time></trkpt><trkpt lat="42.3392892" lon="14.3082886"><ele>45.0</ele><time>2026-05-03T09:51:28.358Z</time></trkpt><trkpt lat="42.3392186" lon="14.3082074"><ele>45.0</ele><time>2026-05-03T09:51:29.336Z</time></trkpt><trkpt lat="42.3391502" lon="14.3081022"><ele>45.0</ele><time>2026-05-03T09:51:30.349Z</time></trkpt><trkpt lat="42.3390841" lon="14.3079757"><ele>45.0</ele><time>2026-05-03T09:51:31.347Z</time></trkpt><trkpt lat="42.339013" lon="14.3078495"><ele>45.0</ele><time>2026-05-03T09:51:32.338Z</time></trkpt><trkpt lat="42.3389465" lon="14.3077259"><ele>45.0</ele><time>2026-05-03T09:51:33.351Z</time></trkpt><trkpt lat="42.3388815" lon="14.3076127"><ele>45.4</ele><time>2026-05-03T09:51:34.335Z</time></trkpt><trkpt lat="42.338813" lon="14.3074974"><ele>45.8</ele><time>2026-05-03T09:51:35.337Z</time></trkpt><trkpt lat="42.3387525" lon="14.3074101"><ele>46.2</ele><time>2026-05-03T09:51:36.337Z</time></trkpt><trkpt lat="42.3386211" lon="14.3072614"><ele>46.6</ele><time>2026-05-03T09:51:39.353Z</time></trkpt><trkpt lat="42.3385668" lon="14.3072098"><ele>47.0</ele><time>2026-05-03T09:51:40.334Z</time></trkpt><trkpt lat="42.3385132" lon="14.3071631"><ele>47.83333333333333</ele><time>2026-05-03T09:51:41.339Z</time></trkpt><trkpt lat="42.3384565" lon="14.3071235"><ele>48.666666666666664</ele><time>2026-05-03T09:51:42.339Z</time></trkpt><trkpt lat="42.3383952" lon="14.3070777"><ele>49.5</ele><time>2026-05-03T09:51:43.339Z</time></trkpt><trkpt lat="42.3383373" lon="14.3070329"><ele>50.33333333333333</ele><time>2026-05-03T09:51:44.351Z</time></trkpt><trkpt lat="42.3382477" lon="14.3069447"><ele>51.166666666666664</ele><time>2026-05-03T09:51:46.34Z</time></trkpt><trkpt lat="42.3381761" lon="14.306866"><ele>52.0</ele><time>2026-05-03T09:51:48.345Z</time></trkpt><trkpt lat="42.3381144" lon="14.3068248"><ele>51.25</ele><time>2026-05-03T09:52:15.336Z</time></trkpt><trkpt lat="42.3379357" lon="14.3066946"><ele>50.5</ele><time>2026-05-03T09:52:19.347Z</time></trkpt><trkpt lat="42.3378534" lon="14.3066938"><ele>49.75</ele><time>2026-05-03T09:52:20.341Z</time></trkpt><trkpt lat="42.3377566" lon="14.3067054"><ele>49.0</ele><time>2026-05-03T09:52:21.343Z</time></trkpt><trkpt lat="42.3376652" lon="14.3067181"><ele>48.99999999999999</ele><time>2026-05-03T09:52:22.333Z</time></trkpt><trkpt lat="42.3375781" lon="14.3067331"><ele>49.0</ele><time>2026-05-03T09:52:23.346Z</time></trkpt><trkpt lat="42.3374964" lon="14.3067461"><ele>49.0</ele><time>2026-05-03T09:52:24.343Z</time></trkpt><trkpt lat="42.3374083" lon="14.3067583"><ele>49.0</ele><time>2026-05-03T09:52:25.365Z</time></trkpt><trkpt lat="42.3373173" lon="14.3067684"><ele>48.99999999999999</ele><time>2026-05-03T09:52:26.363Z</time></trkpt><trkpt lat="42.3372179" lon="14.3067699"><ele>49.0</ele><time>2026-05-03T09:52:27.33Z</time></trkpt><trkpt lat="42.3371251" lon="14.3067585"><ele>49.5</ele><time>2026-05-03T09:52:28.37Z</time></trkpt><trkpt lat="42.3370225" lon="14.3067292"><ele>50.0</ele><time>2026-05-03T09:52:29.352Z</time></trkpt><trkpt lat="42.3369149" lon="14.3067006"><ele>50.5</ele><time>2026-05-03T09:52:30.349Z</time></trkpt><trkpt lat="42.3367837" lon="14.3066685"><ele>51.0</ele><time>2026-05-03T09:52:31.352Z</time></trkpt><trkpt lat="42.3366642" lon="14.3066369"><ele>51.0</ele><time>2026-05-03T09:52:32.358Z</time></trkpt><trkpt lat="42.3365574" lon="14.3066131"><ele>51.0</ele><time>2026-05-03T09:52:33.363Z</time></trkpt><trkpt lat="42.3364505" lon="14.3065907"><ele>51.0</ele><time>2026-05-03T09:52:34.345Z</time></trkpt><trkpt lat="42.3363577" lon="14.3065712"><ele>51.0</ele><time>2026-05-03T09:52:35.339Z</time></trkpt><trkpt lat="42.3361994" lon="14.3065125"><ele>51.166666666666664</ele><time>2026-05-03T09:52:37.347Z</time></trkpt><trkpt lat="42.3361411" lon="14.3064635"><ele>51.33333333333333</ele><time>2026-05-03T09:52:38.334Z</time></trkpt><trkpt lat="42.3360829" lon="14.3064025"><ele>51.5</ele><time>2026-05-03T09:52:39.332Z</time></trkpt><trkpt lat="42.3360287" lon="14.3063256"><ele>51.666666666666664</ele><time>2026-05-03T09:52:40.334Z</time></trkpt><trkpt lat="42.3359756" lon="14.3062451"><ele>51.83333333333333</ele><time>2026-05-03T09:52:41.341Z</time></trkpt><trkpt lat="42.3359201" lon="14.3061675"><ele>52.0</ele><time>2026-05-03T09:52:42.376Z</time></trkpt><trkpt lat="42.335859" lon="14.3060832"><ele>52.666666666666664</ele><time>2026-05-03T09:52:43.345Z</time></trkpt><trkpt lat="42.3357973" lon="14.306003"><ele>53.33333333333333</ele><time>2026-05-03T09:52:44.352Z</time></trkpt><trkpt lat="42.3357257" lon="14.305943"><ele>54.0</ele><time>2026-05-03T09:52:45.341Z</time></trkpt><trkpt lat="42.3356588" lon="14.3059023"><ele>54.66666666666667</ele><time>2026-05-03T09:52:46.346Z</time></trkpt><trkpt lat="42.335569" lon="14.3058521"><ele>55.333333333333336</ele><time>2026-05-03T09:52:48.355Z</time></trkpt><trkpt lat="42.3354788" lon="14.3058149"><ele>56.0</ele><time>2026-05-03T09:52:50.352Z</time></trkpt><trkpt lat="42.335416" lon="14.3057863"><ele>56.333333333333336</ele><time>2026-05-03T09:52:51.344Z</time></trkpt><trkpt lat="42.3353489" lon="14.3057597"><ele>56.66666666666667</ele><time>2026-05-03T09:52:52.332Z</time></trkpt><trkpt lat="42.3352759" lon="14.3057435"><ele>57.0</ele><time>2026-05-03T09:52:53.332Z</time></trkpt><trkpt lat="42.3351966" lon="14.3057262"><ele>57.33333333333333</ele><time>2026-05-03T09:52:54.341Z</time></trkpt><trkpt lat="42.3351087" lon="14.3057044"><ele>57.666666666666664</ele><time>2026-05-03T09:52:55.339Z</time></trkpt><trkpt lat="42.3350146" lon="14.305684"><ele>58.0</ele><time>2026-05-03T09:52:56.333Z</time></trkpt><trkpt lat="42.334805" lon="14.3056726"><ele>57.599999999999994</ele><time>2026-05-03T09:52:58.36Z</time></trkpt><trkpt lat="42.334698" lon="14.3056813"><ele>57.199999999999996</ele><time>2026-05-03T09:52:59.351Z</time></trkpt><trkpt lat="42.3345929" lon="14.3056825"><ele>56.8</ele><time>2026-05-03T09:53:00.344Z</time></trkpt><trkpt lat="42.3344849" lon="14.3056755"><ele>56.4</ele><time>2026-05-03T09:53:01.33Z</time></trkpt><trkpt lat="42.3343732" lon="14.3056666"><ele>56.0</ele><time>2026-05-03T09:53:02.356Z</time></trkpt><trkpt lat="42.3342559" lon="14.3056552"><ele>56.0</ele><time>2026-05-03T09:53:03.357Z</time></trkpt><trkpt lat="42.3341324" lon="14.3056417"><ele>55.99999999999999</ele><time>2026-05-03T09:53:04.33Z</time></trkpt><trkpt lat="42.3340115" lon="14.3056274"><ele>55.99999999999999</ele><time>2026-05-03T09:53:05.329Z</time></trkpt><trkpt lat="42.3339111" lon="14.3056101"><ele>56.0</ele><time>2026-05-03T09:53:06.355Z</time></trkpt><trkpt lat="42.3338181" lon="14.3055788"><ele>56.0</ele><time>2026-05-03T09:53:07.346Z</time></trkpt><trkpt lat="42.3337282" lon="14.3055396"><ele>55.0</ele><time>2026-05-03T09:53:08.339Z</time></trkpt><trkpt lat="42.3336405" lon="14.3054899"><ele>53.99999999999999</ele><time>2026-05-03T09:53:09.357Z</time></trkpt><trkpt lat="42.3335577" lon="14.3054328"><ele>53.0</ele><time>2026-05-03T09:53:10.347Z</time></trkpt><trkpt lat="42.3334817" lon="14.3053738"><ele>52.0</ele><time>2026-05-03T09:53:11.338Z</time></trkpt><trkpt lat="42.3334036" lon="14.3053097"><ele>51.0</ele><time>2026-05-03T09:53:12.346Z</time></trkpt><trkpt lat="42.3333373" lon="14.3052409"><ele>51.0</ele><time>2026-05-03T09:53:13.345Z</time></trkpt><trkpt lat="42.3332762" lon="14.3051724"><ele>51.0</ele><time>2026-05-03T09:53:14.331Z</time></trkpt><trkpt lat="42.3332115" lon="14.3051216"><ele>51.0</ele><time>2026-05-03T09:53:15.332Z</time></trkpt><trkpt lat="42.3331147" lon="14.3050874"><ele>51.0</ele><time>2026-05-03T09:53:17.338Z</time></trkpt><trkpt lat="42.332976" lon="14.3049945"><ele>51.0</ele><time>2026-05-03T09:53:24.346Z</time></trkpt><trkpt lat="42.3329464" lon="14.3049107"><ele>51.0</ele><time>2026-05-03T09:53:26.344Z</time></trkpt><trkpt lat="42.3328825" lon="14.3047856"><ele>51.0</ele><time>2026-05-03T09:53:28.336Z</time></trkpt><trkpt lat="42.3328161" lon="14.3046653"><ele>51.0</ele><time>2026-05-03T09:53:30.35Z</time></trkpt><trkpt lat="42.3327833" lon="14.3045876"><ele>51.0</ele><time>2026-05-03T09:53:31.329Z</time></trkpt><trkpt lat="42.3327533" lon="14.3044985"><ele>51.0</ele><time>2026-05-03T09:53:32.354Z</time></trkpt><trkpt lat="42.3327201" lon="14.3044145"><ele>51.0</ele><time>2026-05-03T09:53:33.367Z</time></trkpt><trkpt lat="42.3326777" lon="14.3043268"><ele>51.0</ele><time>2026-05-03T09:53:34.344Z</time></trkpt><trkpt lat="42.3326475" lon="14.3042431"><ele>51.0</ele><time>2026-05-03T09:53:35.335Z</time></trkpt><trkpt lat="42.3326032" lon="14.3041034"><ele>51.0</ele><time>2026-05-03T09:53:37.351Z</time></trkpt><trkpt lat="42.3325747" lon="14.3039762"><ele>51.0</ele><time>2026-05-03T09:53:39.336Z</time></trkpt><trkpt lat="42.3324392" lon="14.3037246"><ele>50.833333333333336</ele><time>2026-05-03T09:53:43.349Z</time></trkpt><trkpt lat="42.3323956" lon="14.3036218"><ele>50.66666666666667</ele><time>2026-05-03T09:53:45.343Z</time></trkpt><trkpt lat="42.3323695" lon="14.3035369"><ele>50.5</ele><time>2026-05-03T09:53:47.338Z</time></trkpt><trkpt lat="42.3323635" lon="14.3034459"><ele>50.333333333333336</ele><time>2026-05-03T09:53:49.351Z</time></trkpt><trkpt lat="42.3323591" lon="14.3032692"><ele>50.16666666666667</ele><time>2026-05-03T09:53:51.335Z</time></trkpt><trkpt lat="42.332354" lon="14.3031803"><ele>50.0</ele><time>2026-05-03T09:53:52.342Z</time></trkpt><trkpt lat="42.3323399" lon="14.3030271"><ele>50.6</ele><time>2026-05-03T09:53:54.339Z</time></trkpt><trkpt lat="42.3322864" lon="14.3028987"><ele>51.2</ele><time>2026-05-03T09:53:56.358Z</time></trkpt><trkpt lat="42.332231" lon="14.3028502"><ele>51.8</ele><time>2026-05-03T09:53:57.348Z</time></trkpt><trkpt lat="42.3321361" lon="14.3028118"><ele>52.4</ele><time>2026-05-03T09:53:59.357Z</time></trkpt><trkpt lat="42.3320494" lon="14.3027869"><ele>53.0</ele><time>2026-05-03T09:54:02.36Z</time></trkpt><trkpt lat="42.332054" lon="14.3026142"><ele>53.00000000000001</ele><time>2026-05-03T09:54:07.351Z</time></trkpt><trkpt lat="42.3320075" lon="14.3025413"><ele>53.0</ele><time>2026-05-03T09:54:11.34Z</time></trkpt><trkpt lat="42.3319438" lon="14.3024923"><ele>53.0</ele><time>2026-05-03T09:54:15.336Z</time></trkpt><trkpt lat="42.3318877" lon="14.3024325"><ele>53.0</ele><time>2026-05-03T09:54:18.344Z</time></trkpt><trkpt lat="42.3318639" lon="14.3023523"><ele>53.00000000000001</ele><time>2026-05-03T09:54:27.346Z</time></trkpt><trkpt lat="42.3318772" lon="14.3021773"><ele>53.0</ele><time>2026-05-03T09:54:35.353Z</time></trkpt><trkpt lat="42.3319051" lon="14.3020916"><ele>53.833333333333336</ele><time>2026-05-03T09:54:37.353Z</time></trkpt><trkpt lat="42.3319429" lon="14.3019898"><ele>54.66666666666667</ele><time>2026-05-03T09:54:39.347Z</time></trkpt><trkpt lat="42.3319735" lon="14.3018721"><ele>55.5</ele><time>2026-05-03T09:54:41.345Z</time></trkpt><trkpt lat="42.3320136" lon="14.3017564"><ele>56.33333333333333</ele><time>2026-05-03T09:54:43.353Z</time></trkpt><trkpt lat="42.3320439" lon="14.3016663"><ele>57.166666666666664</ele><time>2026-05-03T09:54:45.344Z</time></trkpt><trkpt lat="42.3320343" lon="14.3015804"><ele>58.0</ele><time>2026-05-03T09:54:57.351Z</time></trkpt><trkpt lat="42.3318984" lon="14.3015334"><ele>62.75</ele><time>2026-05-03T09:55:54.338Z</time></trkpt><trkpt lat="42.3317134" lon="14.3013847"><ele>67.5</ele><time>2026-05-03T09:55:58.343Z</time></trkpt><trkpt lat="42.3316447" lon="14.3013363"><ele>72.25</ele><time>2026-05-03T09:55:59.34Z</time></trkpt><trkpt lat="42.3315693" lon="14.3012881"><ele>77.0</ele><time>2026-05-03T09:56:00.338Z</time></trkpt><trkpt lat="42.3314903" lon="14.3012465"><ele>77.0</ele><time>2026-05-03T09:56:01.327Z</time></trkpt><trkpt lat="42.3314141" lon="14.3012106"><ele>77.0</ele><time>2026-05-03T09:56:02.342Z</time></trkpt><trkpt lat="42.3313417" lon="14.3011705"><ele>77.0</ele><time>2026-05-03T09:56:03.345Z</time></trkpt><trkpt lat="42.3312551" lon="14.3011213"><ele>77.0</ele><time>2026-05-03T09:56:04.339Z</time></trkpt><trkpt lat="42.3311593" lon="14.3010602"><ele>77.0</ele><time>2026-05-03T09:56:05.345Z</time></trkpt><trkpt lat="42.3310536" lon="14.3009867"><ele>74.0</ele><time>2026-05-03T09:56:06.335Z</time></trkpt><trkpt lat="42.3309338" lon="14.3009059"><ele>71.0</ele><time>2026-05-03T09:56:07.351Z</time></trkpt><trkpt lat="42.3308142" lon="14.3008144"><ele>68.0</ele><time>2026-05-03T09:56:08.345Z</time></trkpt><trkpt lat="42.330702" lon="14.3007407"><ele>65.0</ele><time>2026-05-03T09:56:09.346Z</time></trkpt><trkpt lat="42.3305947" lon="14.3006856"><ele>64.8</ele><time>2026-05-03T09:56:10.362Z</time></trkpt><trkpt lat="42.330489" lon="14.3006407"><ele>64.6</ele><time>2026-05-03T09:56:11.344Z</time></trkpt><trkpt lat="42.3303853" lon="14.3005978"><ele>64.4</ele><time>2026-05-03T09:56:12.326Z</time></trkpt><trkpt lat="42.3302879" lon="14.3005611"><ele>64.2</ele><time>2026-05-03T09:56:13.334Z</time></trkpt><trkpt lat="42.3301952" lon="14.3005256"><ele>64.0</ele><time>2026-05-03T09:56:14.339Z</time></trkpt><trkpt lat="42.330105" lon="14.3004916"><ele>64.0</ele><time>2026-05-03T09:56:15.333Z</time></trkpt><trkpt lat="42.3299103" lon="14.3004372"><ele>64.0</ele><time>2026-05-03T09:56:17.342Z</time></trkpt><trkpt lat="42.3297984" lon="14.3004166"><ele>64.0</ele><time>2026-05-03T09:56:18.337Z</time></trkpt><trkpt lat="42.3296776" lon="14.3003853"><ele>64.0</ele><time>2026-05-03T09:56:19.351Z</time></trkpt><trkpt lat="42.3295444" lon="14.3003525"><ele>64.0</ele><time>2026-05-03T09:56:20.346Z</time></trkpt><trkpt lat="42.3294079" lon="14.3003208"><ele>64.0</ele><time>2026-05-03T09:56:21.344Z</time></trkpt><trkpt lat="42.3292796" lon="14.3002913"><ele>64.0</ele><time>2026-05-03T09:56:22.331Z</time></trkpt><trkpt lat="42.3291635" lon="14.3002556"><ele>64.0</ele><time>2026-05-03T09:56:23.339Z</time></trkpt><trkpt lat="42.3290522" lon="14.3002192"><ele>64.0</ele><time>2026-05-03T09:56:24.335Z</time></trkpt><trkpt lat="42.3289334" lon="14.3001813"><ele>64.0</ele><time>2026-05-03T09:56:25.333Z</time></trkpt><trkpt lat="42.3288227" lon="14.3001535"><ele>64.0</ele><time>2026-05-03T09:56:26.356Z</time></trkpt><trkpt lat="42.3287195" lon="14.3001326"><ele>64.0</ele><time>2026-05-03T09:56:27.343Z</time></trkpt><trkpt lat="42.3286099" lon="14.3001044"><ele>63.5</ele><time>2026-05-03T09:56:28.349Z</time></trkpt><trkpt lat="42.3284964" lon="14.3000693"><ele>63.0</ele><time>2026-05-03T09:56:29.363Z</time></trkpt><trkpt lat="42.3283792" lon="14.3000144"><ele>62.5</ele><time>2026-05-03T09:56:30.364Z</time></trkpt><trkpt lat="42.3282697" lon="14.2999521"><ele>62.0</ele><time>2026-05-03T09:56:31.353Z</time></trkpt><trkpt lat="42.3281801" lon="14.2999022"><ele>62.0</ele><time>2026-05-03T09:56:32.349Z</time></trkpt><trkpt lat="42.3281093" lon="14.299868"><ele>62.0</ele><time>2026-05-03T09:56:33.339Z</time></trkpt><trkpt lat="42.3280181" lon="14.2998431"><ele>62.0</ele><time>2026-05-03T09:56:35.349Z</time></trkpt><trkpt lat="42.3279763" lon="14.2999485"><ele>62.0</ele><time>2026-05-03T09:56:39.354Z</time></trkpt><trkpt lat="42.327901" lon="14.3001989"><ele>62.0</ele><time>2026-05-03T09:56:43.333Z</time></trkpt><trkpt lat="42.3278734" lon="14.300328"><ele>62.0</ele><time>2026-05-03T09:56:45.347Z</time></trkpt><trkpt lat="42.3278468" lon="14.3004518"><ele>62.0</ele><time>2026-05-03T09:56:47.341Z</time></trkpt><trkpt lat="42.3278202" lon="14.3005698"><ele>62.0</ele><time>2026-05-03T09:56:49.333Z</time></trkpt><trkpt lat="42.3277928" lon="14.3006729"><ele>62.0</ele><time>2026-05-03T09:56:51.355Z</time></trkpt><trkpt lat="42.3277639" lon="14.3007817"><ele>61.400000000000006</ele><time>2026-05-03T09:56:53.336Z</time></trkpt><trkpt lat="42.3277434" lon="14.3008788"><ele>60.800000000000004</ele><time>2026-05-03T09:56:55.346Z</time></trkpt><trkpt lat="42.3277118" lon="14.3009673"><ele>60.2</ele><time>2026-05-03T09:56:58.347Z</time></trkpt><trkpt lat="42.3276362" lon="14.3009445"><ele>59.6</ele><time>2026-05-03T09:57:01.348Z</time></trkpt><trkpt lat="42.3274787" lon="14.3007591"><ele>59.0</ele><time>2026-05-03T09:57:05.356Z</time></trkpt><trkpt lat="42.3274031" lon="14.3006866"><ele>59.0</ele><time>2026-05-03T09:57:07.354Z</time></trkpt><trkpt lat="42.3273523" lon="14.3006289"><ele>59.0</ele><time>2026-05-03T09:57:08.357Z</time></trkpt><trkpt lat="42.3273079" lon="14.3005559"><ele>59.0</ele><time>2026-05-03T09:57:09.33Z</time></trkpt><trkpt lat="42.3272694" lon="14.3004712"><ele>59.0</ele><time>2026-05-03T09:57:10.358Z</time></trkpt><trkpt lat="42.3272352" lon="14.3003896"><ele>59.0</ele><time>2026-05-03T09:57:11.342Z</time></trkpt><trkpt lat="42.3271968" lon="14.3002751"><ele>59.0</ele><time>2026-05-03T09:57:13.357Z</time></trkpt><trkpt lat="42.327175" lon="14.3001875"><ele>59.0</ele><time>2026-05-03T09:57:16.361Z</time></trkpt><trkpt lat="42.327142" lon="14.3001019"><ele>59.2</ele><time>2026-05-03T09:57:18.339Z</time></trkpt><trkpt lat="42.3270753" lon="14.2999744"><ele>59.400000000000006</ele><time>2026-05-03T09:57:20.357Z</time></trkpt><trkpt lat="42.327034" lon="14.2999097"><ele>59.6</ele><time>2026-05-03T09:57:21.348Z</time></trkpt><trkpt lat="42.3269757" lon="14.2998062"><ele>59.8</ele><time>2026-05-03T09:57:23.362Z</time></trkpt><trkpt lat="42.3268895" lon="14.2996461"><ele>60.0</ele><time>2026-05-03T09:57:27.352Z</time></trkpt><trkpt lat="42.326906" lon="14.2995064"><ele>61.0</ele><time>2026-05-03T09:57:29.348Z</time></trkpt><trkpt lat="42.326923" lon="14.2994142"><ele>62.0</ele><time>2026-05-03T09:57:30.343Z</time></trkpt><trkpt lat="42.3269517" lon="14.2992797"><ele>63.0</ele><time>2026-05-03T09:57:32.341Z</time></trkpt><trkpt lat="42.326919" lon="14.2991793"><ele>64.0</ele><time>2026-05-03T09:57:36.355Z</time></trkpt><trkpt lat="42.3268126" lon="14.2991049"><ele>65.0</ele><time>2026-05-03T09:57:38.346Z</time></trkpt><trkpt lat="42.3267065" lon="14.2990437"><ele>65.0</ele><time>2026-05-03T09:57:40.374Z</time></trkpt><trkpt lat="42.3266373" lon="14.2990087"><ele>65.0</ele><time>2026-05-03T09:57:41.349Z</time></trkpt><trkpt lat="42.3265679" lon="14.2989699"><ele>65.0</ele><time>2026-05-03T09:57:42.363Z</time></trkpt><trkpt lat="42.3265011" lon="14.2989273"><ele>65.0</ele><time>2026-05-03T09:57:43.336Z</time></trkpt><trkpt lat="42.3264336" lon="14.2988824"><ele>65.0</ele><time>2026-05-03T09:57:44.327Z</time></trkpt><trkpt lat="42.3262798" lon="14.2987797"><ele>66.0</ele><time>2026-05-03T09:57:46.354Z</time></trkpt><trkpt lat="42.3262032" lon="14.2987275"><ele>67.0</ele><time>2026-05-03T09:57:47.352Z</time></trkpt><trkpt lat="42.3261328" lon="14.2986669"><ele>68.0</ele><time>2026-05-03T09:57:48.346Z</time></trkpt><trkpt lat="42.3260799" lon="14.2985909"><ele>69.0</ele><time>2026-05-03T09:57:49.332Z</time></trkpt><trkpt lat="42.3260359" lon="14.2985029"><ele>70.0</ele><time>2026-05-03T09:57:50.342Z</time></trkpt><trkpt lat="42.3260045" lon="14.2983974"><ele>71.0</ele><time>2026-05-03T09:57:51.328Z</time></trkpt><trkpt lat="42.3259762" lon="14.2982877"><ele>71.0</ele><time>2026-05-03T09:57:52.346Z</time></trkpt><trkpt lat="42.3259452" lon="14.298185"><ele>71.0</ele><time>2026-05-03T09:57:53.343Z</time></trkpt><trkpt lat="42.3258945" lon="14.2980996"><ele>71.0</ele><time>2026-05-03T09:57:54.341Z</time></trkpt><trkpt lat="42.325812" lon="14.2980314"><ele>71.0</ele><time>2026-05-03T09:57:55.345Z</time></trkpt><trkpt lat="42.3257157" lon="14.297998"><ele>71.0</ele><time>2026-05-03T09:57:56.333Z</time></trkpt><trkpt lat="42.3256075" lon="14.2980099"><ele>72.25</ele><time>2026-05-03T09:57:57.33Z</time></trkpt><trkpt lat="42.325494" lon="14.2980471"><ele>73.5</ele><time>2026-05-03T09:57:58.336Z</time></trkpt><trkpt lat="42.3253799" lon="14.2981188"><ele>74.75</ele><time>2026-05-03T09:57:59.329Z</time></trkpt><trkpt lat="42.3252542" lon="14.2981885"><ele>76.0</ele><time>2026-05-03T09:58:00.35Z</time></trkpt><trkpt lat="42.3251317" lon="14.2982528"><ele>76.0</ele><time>2026-05-03T09:58:01.343Z</time></trkpt><trkpt lat="42.3250148" lon="14.2983173"><ele>76.0</ele><time>2026-05-03T09:58:02.342Z</time></trkpt><trkpt lat="42.3249069" lon="14.298375"><ele>76.0</ele><time>2026-05-03T09:58:03.348Z</time></trkpt><trkpt lat="42.3248125" lon="14.29841"><ele>76.0</ele><time>2026-05-03T09:58:04.346Z</time></trkpt><trkpt lat="42.3247182" lon="14.2984147"><ele>76.0</ele><time>2026-05-03T09:58:05.335Z</time></trkpt><trkpt lat="42.3245073" lon="14.298311"><ele>77.0</ele><time>2026-05-03T09:58:07.368Z</time></trkpt><trkpt lat="42.324394" lon="14.2982311"><ele>78.0</ele><time>2026-05-03T09:58:08.339Z</time></trkpt><trkpt lat="42.3242815" lon="14.2981495"><ele>79.0</ele><time>2026-05-03T09:58:09.346Z</time></trkpt><trkpt lat="42.3241711" lon="14.2980668"><ele>80.0</ele><time>2026-05-03T09:58:10.35Z</time></trkpt><trkpt lat="42.3239729" lon="14.2978862"><ele>82.0</ele><time>2026-05-03T09:58:12.349Z</time></trkpt><trkpt lat="42.3238666" lon="14.2977812"><ele>84.0</ele><time>2026-05-03T09:58:13.369Z</time></trkpt><trkpt lat="42.323761" lon="14.2976758"><ele>86.0</ele><time>2026-05-03T09:58:14.343Z</time></trkpt><trkpt lat="42.3236379" lon="14.2975799"><ele>88.0</ele><time>2026-05-03T09:58:15.366Z</time></trkpt><trkpt lat="42.3234945" lon="14.2974934"><ele>88.0</ele><time>2026-05-03T09:58:16.359Z</time></trkpt><trkpt lat="42.3233474" lon="14.2974132"><ele>88.0</ele><time>2026-05-03T09:58:17.349Z</time></trkpt><trkpt lat="42.3232005" lon="14.2973234"><ele>88.0</ele><time>2026-05-03T09:58:18.359Z</time></trkpt><trkpt lat="42.3230516" lon="14.2972363"><ele>91.75</ele><time>2026-05-03T09:58:19.37Z</time></trkpt><trkpt lat="42.3229142" lon="14.2971683"><ele>95.5</ele><time>2026-05-03T09:58:20.339Z</time></trkpt><trkpt lat="42.3227905" lon="14.2971068"><ele>99.25</ele><time>2026-05-03T09:58:21.332Z</time></trkpt><trkpt lat="42.322667" lon="14.2970472"><ele>103.0</ele><time>2026-05-03T09:58:22.335Z</time></trkpt><trkpt lat="42.322533" lon="14.2969863"><ele>103.0</ele><time>2026-05-03T09:58:23.354Z</time></trkpt><trkpt lat="42.3223974" lon="14.2969346"><ele>103.0</ele><time>2026-05-03T09:58:24.338Z</time></trkpt><trkpt lat="42.3222682" lon="14.2968918"><ele>103.0</ele><time>2026-05-03T09:58:25.351Z</time></trkpt><trkpt lat="42.3221521" lon="14.2968387"><ele>103.0</ele><time>2026-05-03T09:58:26.362Z</time></trkpt><trkpt lat="42.3219233" lon="14.2967584"><ele>102.4</ele><time>2026-05-03T09:58:28.348Z</time></trkpt><trkpt lat="42.3218182" lon="14.2967273"><ele>101.80000000000001</ele><time>2026-05-03T09:58:29.368Z</time></trkpt><trkpt lat="42.3217198" lon="14.2966832"><ele>101.2</ele><time>2026-05-03T09:58:30.35Z</time></trkpt><trkpt lat="42.3216156" lon="14.2966338"><ele>100.6</ele><time>2026-05-03T09:58:31.354Z</time></trkpt><trkpt lat="42.3215026" lon="14.2965699"><ele>100.0</ele><time>2026-05-03T09:58:32.337Z</time></trkpt><trkpt lat="42.3213846" lon="14.2964935"><ele>100.5</ele><time>2026-05-03T09:58:33.353Z</time></trkpt><trkpt lat="42.3212741" lon="14.2963942"><ele>101.0</ele><time>2026-05-03T09:58:34.348Z</time></trkpt><trkpt lat="42.3211787" lon="14.2962703"><ele>101.5</ele><time>2026-05-03T09:58:35.34Z</time></trkpt><trkpt lat="42.3210904" lon="14.2961303"><ele>102.0</ele><time>2026-05-03T09:58:36.333Z</time></trkpt><trkpt lat="42.3209953" lon="14.2960114"><ele>102.0</ele><time>2026-05-03T09:58:37.354Z</time></trkpt><trkpt lat="42.3208853" lon="14.2959218"><ele>102.0</ele><time>2026-05-03T09:58:38.355Z</time></trkpt><trkpt lat="42.3207579" lon="14.2958365"><ele>102.0</ele><time>2026-05-03T09:58:39.375Z</time></trkpt><trkpt lat="42.3206181" lon="14.2957557"><ele>102.0</ele><time>2026-05-03T09:58:40.353Z</time></trkpt><trkpt lat="42.3204723" lon="14.2956803"><ele>100.33333333333334</ele><time>2026-05-03T09:58:41.364Z</time></trkpt><trkpt lat="42.3203155" lon="14.2955904"><ele>98.66666666666667</ele><time>2026-05-03T09:58:42.346Z</time></trkpt><trkpt lat="42.3201605" lon="14.2955119"><ele>97.0</ele><time>2026-05-03T09:58:43.359Z</time></trkpt><trkpt lat="42.3200253" lon="14.2954483"><ele>99.6</ele><time>2026-05-03T09:58:44.359Z</time></trkpt><trkpt lat="42.3199187" lon="14.2953899"><ele>102.19999999999999</ele><time>2026-05-03T09:58:45.348Z</time></trkpt><trkpt lat="42.319844" lon="14.2953441"><ele>104.8</ele><time>2026-05-03T09:58:46.374Z</time></trkpt><trkpt lat="42.3197933" lon="14.2952909"><ele>107.4</ele><time>2026-05-03T09:58:47.336Z</time></trkpt><trkpt lat="42.319769" lon="14.2951174"><ele>110.0</ele><time>2026-05-03T09:58:49.364Z</time></trkpt><trkpt lat="42.3197865" lon="14.2950025"><ele>110.0</ele><time>2026-05-03T09:58:50.327Z</time></trkpt><trkpt lat="42.3197951" lon="14.2948858"><ele>110.0</ele><time>2026-05-03T09:58:51.379Z</time></trkpt><trkpt lat="42.3197652" lon="14.294781"><ele>110.0</ele><time>2026-05-03T09:58:52.346Z</time></trkpt><trkpt lat="42.3197261" lon="14.2947105"><ele>110.0</ele><time>2026-05-03T09:58:53.346Z</time></trkpt><trkpt lat="42.319634" lon="14.2946794"><ele>110.0</ele><time>2026-05-03T09:58:55.354Z</time></trkpt><trkpt lat="42.3195703" lon="14.2948176"><ele>109.99999999999999</ele><time>2026-05-03T09:58:57.355Z</time></trkpt><trkpt lat="42.319531" lon="14.2948973"><ele>110.0</ele><time>2026-05-03T09:58:58.333Z</time></trkpt><trkpt lat="42.3194743" lon="14.2949383"><ele>110.0</ele><time>2026-05-03T09:58:59.361Z</time></trkpt><trkpt lat="42.3193613" lon="14.2949032"><ele>110.0</ele><time>2026-05-03T09:59:01.347Z</time></trkpt><trkpt lat="42.3192989" lon="14.2948342"><ele>109.99999999999999</ele><time>2026-05-03T09:59:02.347Z</time></trkpt><trkpt lat="42.3192426" lon="14.2947269"><ele>110.0</ele><time>2026-05-03T09:59:03.334Z</time></trkpt><trkpt lat="42.319184" lon="14.2946091"><ele>110.0</ele><time>2026-05-03T09:59:04.357Z</time></trkpt><trkpt lat="42.3191158" lon="14.2945078"><ele>110.0</ele><time>2026-05-03T09:59:05.343Z</time></trkpt><trkpt lat="42.319037" lon="14.2944191"><ele>110.0</ele><time>2026-05-03T09:59:06.36Z</time></trkpt><trkpt lat="42.3189611" lon="14.2943353"><ele>110.0</ele><time>2026-05-03T09:59:07.349Z</time></trkpt><trkpt lat="42.3188926" lon="14.2942549"><ele>110.0</ele><time>2026-05-03T09:59:08.358Z</time></trkpt><trkpt lat="42.3187741" lon="14.2940394"><ele>109.5</ele><time>2026-05-03T09:59:10.348Z</time></trkpt><trkpt lat="42.3187122" lon="14.2939168"><ele>109.0</ele><time>2026-05-03T09:59:11.351Z</time></trkpt><trkpt lat="42.3186515" lon="14.2937888"><ele>108.5</ele><time>2026-05-03T09:59:12.347Z</time></trkpt><trkpt lat="42.3185915" lon="14.2936496"><ele>108.0</ele><time>2026-05-03T09:59:13.354Z</time></trkpt><trkpt lat="42.3185363" lon="14.2935153"><ele>108.0</ele><time>2026-05-03T09:59:14.351Z</time></trkpt><trkpt lat="42.3184758" lon="14.2933971"><ele>108.0</ele><time>2026-05-03T09:59:15.344Z</time></trkpt><trkpt lat="42.3183918" lon="14.2932994"><ele>108.0</ele><time>2026-05-03T09:59:16.351Z</time></trkpt><trkpt lat="42.3182896" lon="14.2932189"><ele>108.0</ele><time>2026-05-03T09:59:17.349Z</time></trkpt><trkpt lat="42.3181764" lon="14.2931407"><ele>108.5</ele><time>2026-05-03T09:59:18.349Z</time></trkpt><trkpt lat="42.3180538" lon="14.2930577"><ele>109.0</ele><time>2026-05-03T09:59:19.33Z</time></trkpt><trkpt lat="42.3179355" lon="14.2929805"><ele>109.5</ele><time>2026-05-03T09:59:20.348Z</time></trkpt><trkpt lat="42.3178264" lon="14.2929165"><ele>110.0</ele><time>2026-05-03T09:59:21.338Z</time></trkpt><trkpt lat="42.3177249" lon="14.2928596"><ele>109.99999999999999</ele><time>2026-05-03T09:59:22.355Z</time></trkpt><trkpt lat="42.3176406" lon="14.2928154"><ele>110.0</ele><time>2026-05-03T09:59:23.352Z</time></trkpt><trkpt lat="42.317562" lon="14.2927674"><ele>110.0</ele><time>2026-05-03T09:59:24.355Z</time></trkpt><trkpt lat="42.3174824" lon="14.29271"><ele>110.0</ele><time>2026-05-03T09:59:25.355Z</time></trkpt><trkpt lat="42.3174065" lon="14.2926575"><ele>109.99999999999999</ele><time>2026-05-03T09:59:26.343Z</time></trkpt><trkpt lat="42.3173356" lon="14.292619"><ele>110.0</ele><time>2026-05-03T09:59:27.355Z</time></trkpt><trkpt lat="42.3172595" lon="14.2925916"><ele>107.5</ele><time>2026-05-03T09:59:28.341Z</time></trkpt><trkpt lat="42.3171632" lon="14.2926045"><ele>105.0</ele><time>2026-05-03T09:59:29.353Z</time></trkpt><trkpt lat="42.3169406" lon="14.292664"><ele>102.5</ele><time>2026-05-03T09:59:31.352Z</time></trkpt><trkpt lat="42.316822" lon="14.2926785"><ele>100.0</ele><time>2026-05-03T09:59:32.342Z</time></trkpt><trkpt lat="42.316692" lon="14.2926674"><ele>100.0</ele><time>2026-05-03T09:59:33.349Z</time></trkpt><trkpt lat="42.3165693" lon="14.2926495"><ele>100.0</ele><time>2026-05-03T09:59:34.362Z</time></trkpt><trkpt lat="42.3164602" lon="14.2926323"><ele>100.0</ele><time>2026-05-03T09:59:35.353Z</time></trkpt><trkpt lat="42.316359" lon="14.2925862"><ele>100.0</ele><time>2026-05-03T09:59:36.351Z</time></trkpt><trkpt lat="42.3162529" lon="14.2925079"><ele>100.5</ele><time>2026-05-03T09:59:37.343Z</time></trkpt><trkpt lat="42.3161373" lon="14.2924048"><ele>101.0</ele><time>2026-05-03T09:59:38.353Z</time></trkpt><trkpt lat="42.3160254" lon="14.2923085"><ele>101.5</ele><time>2026-05-03T09:59:39.361Z</time></trkpt><trkpt lat="42.3159144" lon="14.2922208"><ele>102.0</ele><time>2026-05-03T09:59:40.345Z</time></trkpt><trkpt lat="42.3158038" lon="14.292148"><ele>102.0</ele><time>2026-05-03T09:59:41.337Z</time></trkpt><trkpt lat="42.3156821" lon="14.2920971"><ele>102.0</ele><time>2026-05-03T09:59:42.341Z</time></trkpt><trkpt lat="42.3155529" lon="14.2920511"><ele>102.0</ele><time>2026-05-03T09:59:43.336Z</time></trkpt><trkpt lat="42.3154258" lon="14.2920164"><ele>102.0</ele><time>2026-05-03T09:59:44.374Z</time></trkpt><trkpt lat="42.3152977" lon="14.2919927"><ele>98.5</ele><time>2026-05-03T09:59:45.348Z</time></trkpt><trkpt lat="42.3151671" lon="14.2919733"><ele>95.0</ele><time>2026-05-03T09:59:46.333Z</time></trkpt><trkpt lat="42.3150444" lon="14.2919412"><ele>91.5</ele><time>2026-05-03T09:59:47.342Z</time></trkpt><trkpt lat="42.3149218" lon="14.2918996"><ele>88.0</ele><time>2026-05-03T09:59:48.358Z</time></trkpt><trkpt lat="42.3147959" lon="14.2918668"><ele>87.0</ele><time>2026-05-03T09:59:49.358Z</time></trkpt><trkpt lat="42.3146586" lon="14.2918286"><ele>86.0</ele><time>2026-05-03T09:59:50.334Z</time></trkpt><trkpt lat="42.3143805" lon="14.2917669"><ele>85.0</ele><time>2026-05-03T09:59:52.358Z</time></trkpt><trkpt lat="42.3142336" lon="14.2917461"><ele>85.0</ele><time>2026-05-03T09:59:53.368Z</time></trkpt><trkpt lat="42.3140805" lon="14.2917273"><ele>85.0</ele><time>2026-05-03T09:59:54.352Z</time></trkpt><trkpt lat="42.3139444" lon="14.2917143"><ele>85.0</ele><time>2026-05-03T09:59:55.357Z</time></trkpt><trkpt lat="42.3138268" lon="14.2917004"><ele>85.0</ele><time>2026-05-03T09:59:56.357Z</time></trkpt><trkpt lat="42.3137209" lon="14.2916832"><ele>85.4</ele><time>2026-05-03T09:59:57.349Z</time></trkpt><trkpt lat="42.3136317" lon="14.2916492"><ele>85.8</ele><time>2026-05-03T09:59:58.344Z</time></trkpt><trkpt lat="42.3135466" lon="14.2915922"><ele>86.19999999999999</ele><time>2026-05-03T09:59:59.365Z</time></trkpt><trkpt lat="42.3134537" lon="14.2915025"><ele>86.6</ele><time>2026-05-03T10:00:00.333Z</time></trkpt><trkpt lat="42.3133532" lon="14.2913857"><ele>87.0</ele><time>2026-05-03T10:00:01.342Z</time></trkpt><trkpt lat="42.3132625" lon="14.2912518"><ele>88.75</ele><time>2026-05-03T10:00:02.371Z</time></trkpt><trkpt lat="42.3131772" lon="14.2910936"><ele>90.5</ele><time>2026-05-03T10:00:03.349Z</time></trkpt><trkpt lat="42.3131071" lon="14.2909326"><ele>92.25</ele><time>2026-05-03T10:00:04.365Z</time></trkpt><trkpt lat="42.3130457" lon="14.2907849"><ele>94.0</ele><time>2026-05-03T10:00:05.343Z</time></trkpt><trkpt lat="42.3129948" lon="14.290664"><ele>95.4</ele><time>2026-05-03T10:00:06.355Z</time></trkpt><trkpt lat="42.3129471" lon="14.2905591"><ele>96.80000000000001</ele><time>2026-05-03T10:00:07.353Z</time></trkpt><trkpt lat="42.3129084" lon="14.2904615"><ele>98.19999999999999</ele><time>2026-05-03T10:00:08.37Z</time></trkpt><trkpt lat="42.3128771" lon="14.2903768"><ele>99.6</ele><time>2026-05-03T10:00:09.338Z</time></trkpt><trkpt lat="42.3128278" lon="14.2902366"><ele>101.0</ele><time>2026-05-03T10:00:11.337Z</time></trkpt><trkpt lat="42.3127421" lon="14.2900461"><ele>100.99999999999999</ele><time>2026-05-03T10:00:14.357Z</time></trkpt><trkpt lat="42.3126996" lon="14.2899504"><ele>101.0</ele><time>2026-05-03T10:00:15.344Z</time></trkpt><trkpt lat="42.3126621" lon="14.2898549"><ele>101.0</ele><time>2026-05-03T10:00:16.333Z</time></trkpt><trkpt lat="42.312632" lon="14.2897743"><ele>101.0</ele><time>2026-05-03T10:00:17.365Z</time></trkpt><trkpt lat="42.3125945" lon="14.2896549"><ele>100.99999999999999</ele><time>2026-05-03T10:00:19.332Z</time></trkpt><trkpt lat="42.3125491" lon="14.2895382"><ele>101.0</ele><time>2026-05-03T10:00:21.354Z</time></trkpt><trkpt lat="42.3124795" lon="14.2895492"><ele>101.66666666666666</ele><time>2026-05-03T10:00:24.344Z</time></trkpt><trkpt lat="42.3124284" lon="14.2896189"><ele>102.33333333333333</ele><time>2026-05-03T10:00:26.332Z</time></trkpt><trkpt lat="42.3123632" lon="14.2896684"><ele>103.0</ele><time>2026-05-03T10:00:28.354Z</time></trkpt><trkpt lat="42.3122532" lon="14.2897398"><ele>103.66666666666666</ele><time>2026-05-03T10:00:30.334Z</time></trkpt><trkpt lat="42.3121824" lon="14.2897911"><ele>104.33333333333333</ele><time>2026-05-03T10:00:31.339Z</time></trkpt><trkpt lat="42.31212" lon="14.2898314"><ele>105.0</ele><time>2026-05-03T10:00:32.348Z</time></trkpt><trkpt lat="42.3119848" lon="14.2899287"><ele>105.0</ele><time>2026-05-03T10:00:35.353Z</time></trkpt><trkpt lat="42.3119301" lon="14.289984"><ele>105.0</ele><time>2026-05-03T10:00:44.368Z</time></trkpt><trkpt lat="42.3118079" lon="14.2899315"><ele>105.0</ele><time>2026-05-03T10:00:53.335Z</time></trkpt><trkpt lat="42.3117846" lon="14.2900979"><ele>105.0</ele><time>2026-05-03T10:00:58.341Z</time></trkpt><trkpt lat="42.3117812" lon="14.2901941"><ele>105.0</ele><time>2026-05-03T10:01:00.344Z</time></trkpt><trkpt lat="42.3118027" lon="14.2902991"><ele>105.0</ele><time>2026-05-03T10:01:02.345Z</time></trkpt><trkpt lat="42.311818" lon="14.290399"><ele>105.0</ele><time>2026-05-03T10:01:04.352Z</time></trkpt><trkpt lat="42.3118334" lon="14.290518"><ele>105.0</ele><time>2026-05-03T10:01:06.353Z</time></trkpt><trkpt lat="42.311834" lon="14.2906231"><ele>105.0</ele><time>2026-05-03T10:01:08.351Z</time></trkpt><trkpt lat="42.311841" lon="14.2907115"><ele>105.0</ele><time>2026-05-03T10:01:10.341Z</time></trkpt><trkpt lat="42.3118665" lon="14.2908312"><ele>105.0</ele><time>2026-05-03T10:01:13.358Z</time></trkpt><trkpt lat="42.3119105" lon="14.2909406"><ele>102.5</ele><time>2026-05-03T10:01:15.341Z</time></trkpt><trkpt lat="42.312042" lon="14.2911363"><ele>100.0</ele><time>2026-05-03T10:01:19.336Z</time></trkpt><trkpt lat="42.3120937" lon="14.2912005"><ele>97.5</ele><time>2026-05-03T10:01:23.35Z</time></trkpt><trkpt lat="42.312014" lon="14.2912747"><ele>95.0</ele><time>2026-05-03T10:01:27.393Z</time></trkpt><trkpt lat="42.311922" lon="14.2912938"><ele>95.0</ele><time>2026-05-03T10:01:29.336Z</time></trkpt><trkpt lat="42.3118406" lon="14.2912949"><ele>95.0</ele><time>2026-05-03T10:01:31.332Z</time></trkpt><trkpt lat="42.3117761" lon="14.2912947"><ele>95.0</ele><time>2026-05-03T10:01:33.356Z</time></trkpt><trkpt lat="42.3117116" lon="14.2912808"><ele>95.0</ele><time>2026-05-03T10:01:36.362Z</time></trkpt><trkpt lat="42.3115258" lon="14.291359"><ele>95.0</ele><time>2026-05-03T10:01:41.349Z</time></trkpt><trkpt lat="42.3114671" lon="14.2913983"><ele>94.5</ele><time>2026-05-03T10:01:42.355Z</time></trkpt><trkpt lat="42.3113873" lon="14.2914492"><ele>94.0</ele><time>2026-05-03T10:01:44.355Z</time></trkpt><trkpt lat="42.3112834" lon="14.2914387"><ele>93.5</ele><time>2026-05-03T10:01:51.345Z</time></trkpt><trkpt lat="42.3112184" lon="14.2914113"><ele>93.0</ele><time>2026-05-03T10:01:52.343Z</time></trkpt><trkpt lat="42.3111423" lon="14.2913525"><ele>92.5</ele><time>2026-05-03T10:01:53.334Z</time></trkpt><trkpt lat="42.3110801" lon="14.2912659"><ele>92.0</ele><time>2026-05-03T10:01:54.343Z</time></trkpt><trkpt lat="42.3110221" lon="14.2911685"><ele>93.5</ele><time>2026-05-03T10:01:55.349Z</time></trkpt><trkpt lat="42.3109695" lon="14.291075"><ele>95.0</ele><time>2026-05-03T10:01:56.349Z</time></trkpt><trkpt lat="42.3109025" lon="14.2909892"><ele>96.5</ele><time>2026-05-03T10:01:57.343Z</time></trkpt><trkpt lat="42.3107484" lon="14.290847"><ele>98.0</ele><time>2026-05-03T10:01:59.338Z</time></trkpt><trkpt lat="42.3106459" lon="14.2907893"><ele>100.0</ele><time>2026-05-03T10:02:00.339Z</time></trkpt><trkpt lat="42.3105325" lon="14.2907436"><ele>102.0</ele><time>2026-05-03T10:02:01.351Z</time></trkpt><trkpt lat="42.3104315" lon="14.2907101"><ele>104.00000000000001</ele><time>2026-05-03T10:02:02.347Z</time></trkpt><trkpt lat="42.3103235" lon="14.2906811"><ele>106.0</ele><time>2026-05-03T10:02:03.33Z</time></trkpt><trkpt lat="42.3102079" lon="14.2906781"><ele>108.0</ele><time>2026-05-03T10:02:04.369Z</time></trkpt><trkpt lat="42.3101035" lon="14.2906772"><ele>108.0</ele><time>2026-05-03T10:02:05.331Z</time></trkpt><trkpt lat="42.3100022" lon="14.2906751"><ele>108.00000000000001</ele><time>2026-05-03T10:02:06.34Z</time></trkpt><trkpt lat="42.3098967" lon="14.2906671"><ele>108.00000000000001</ele><time>2026-05-03T10:02:07.334Z</time></trkpt><trkpt lat="42.3097941" lon="14.2906376"><ele>108.0</ele><time>2026-05-03T10:02:08.344Z</time></trkpt><trkpt lat="42.3097053" lon="14.2906065"><ele>108.0</ele><time>2026-05-03T10:02:09.345Z</time></trkpt><trkpt lat="42.3096322" lon="14.2905775"><ele>109.16666666666667</ele><time>2026-05-03T10:02:11.334Z</time></trkpt><trkpt lat="42.3095564" lon="14.2906174"><ele>110.33333333333334</ele><time>2026-05-03T10:02:13.333Z</time></trkpt><trkpt lat="42.3095073" lon="14.2906871"><ele>111.5</ele><time>2026-05-03T10:02:14.343Z</time></trkpt><trkpt lat="42.3094581" lon="14.2907634"><ele>112.66666666666667</ele><time>2026-05-03T10:02:15.337Z</time></trkpt><trkpt lat="42.3094064" lon="14.290841"><ele>113.83333333333334</ele><time>2026-05-03T10:02:16.337Z</time></trkpt><trkpt lat="42.3093474" lon="14.2909118"><ele>115.0</ele><time>2026-05-03T10:02:17.348Z</time></trkpt><trkpt lat="42.3092871" lon="14.2909837"><ele>115.0</ele><time>2026-05-03T10:02:18.348Z</time></trkpt><trkpt lat="42.309129" lon="14.2911244"><ele>115.0</ele><time>2026-05-03T10:02:20.345Z</time></trkpt><trkpt lat="42.3090341" lon="14.2911878"><ele>115.0</ele><time>2026-05-03T10:02:21.354Z</time></trkpt><trkpt lat="42.3089386" lon="14.2912428"><ele>115.0</ele><time>2026-05-03T10:02:22.342Z</time></trkpt><trkpt lat="42.3088263" lon="14.2912866"><ele>114.5</ele><time>2026-05-03T10:02:23.345Z</time></trkpt><trkpt lat="42.3087061" lon="14.2913334"><ele>114.0</ele><time>2026-05-03T10:02:24.327Z</time></trkpt><trkpt lat="42.3086026" lon="14.2913876"><ele>113.5</ele><time>2026-05-03T10:02:25.342Z</time></trkpt><trkpt lat="42.3085177" lon="14.2914727"><ele>113.0</ele><time>2026-05-03T10:02:26.348Z</time></trkpt><trkpt lat="42.3084454" lon="14.2915826"><ele>113.0</ele><time>2026-05-03T10:02:27.352Z</time></trkpt><trkpt lat="42.3083484" lon="14.2917154"><ele>113.0</ele><time>2026-05-03T10:02:28.339Z</time></trkpt><trkpt lat="42.3082458" lon="14.2918415"><ele>113.0</ele><time>2026-05-03T10:02:29.343Z</time></trkpt><trkpt lat="42.3081365" lon="14.2919469"><ele>113.0</ele><time>2026-05-03T10:02:30.345Z</time></trkpt><trkpt lat="42.3080253" lon="14.2920192"><ele>115.75</ele><time>2026-05-03T10:02:31.356Z</time></trkpt><trkpt lat="42.3079195" lon="14.2920806"><ele>118.5</ele><time>2026-05-03T10:02:32.338Z</time></trkpt><trkpt lat="42.3078027" lon="14.2921247"><ele>121.25</ele><time>2026-05-03T10:02:33.332Z</time></trkpt><trkpt lat="42.3076708" lon="14.292164"><ele>124.0</ele><time>2026-05-03T10:02:34.366Z</time></trkpt><trkpt lat="42.3075416" lon="14.2922206"><ele>121.75</ele><time>2026-05-03T10:02:35.344Z</time></trkpt><trkpt lat="42.3074106" lon="14.2922838"><ele>119.5</ele><time>2026-05-03T10:02:36.348Z</time></trkpt><trkpt lat="42.3072744" lon="14.2923336"><ele>117.25</ele><time>2026-05-03T10:02:37.345Z</time></trkpt><trkpt lat="42.3071352" lon="14.2923646"><ele>115.0</ele><time>2026-05-03T10:02:38.35Z</time></trkpt><trkpt lat="42.3069991" lon="14.2923742"><ele>115.0</ele><time>2026-05-03T10:02:39.329Z</time></trkpt><trkpt lat="42.3067592" lon="14.2923997"><ele>115.0</ele><time>2026-05-03T10:02:41.345Z</time></trkpt><trkpt lat="42.3066427" lon="14.2924508"><ele>115.0</ele><time>2026-05-03T10:02:42.341Z</time></trkpt><trkpt lat="42.3065267" lon="14.2925137"><ele>115.0</ele><time>2026-05-03T10:02:43.353Z</time></trkpt><trkpt lat="42.3064167" lon="14.2925652"><ele>115.0</ele><time>2026-05-03T10:02:44.338Z</time></trkpt><trkpt lat="42.3063054" lon="14.2926016"><ele>115.0</ele><time>2026-05-03T10:02:45.347Z</time></trkpt><trkpt lat="42.3061872" lon="14.2926202"><ele>115.0</ele><time>2026-05-03T10:02:46.347Z</time></trkpt><trkpt lat="42.3060714" lon="14.2926187"><ele>116.0</ele><time>2026-05-03T10:02:47.352Z</time></trkpt><trkpt lat="42.3059525" lon="14.2926068"><ele>117.0</ele><time>2026-05-03T10:02:48.346Z</time></trkpt><trkpt lat="42.3058247" lon="14.2925963"><ele>118.0</ele><time>2026-05-03T10:02:49.351Z</time></trkpt><trkpt lat="42.3056854" lon="14.292577"><ele>119.0</ele><time>2026-05-03T10:02:50.35Z</time></trkpt><trkpt lat="42.3055525" lon="14.2925575"><ele>119.75</ele><time>2026-05-03T10:02:51.342Z</time></trkpt><trkpt lat="42.3054262" lon="14.2925417"><ele>120.5</ele><time>2026-05-03T10:02:52.352Z</time></trkpt><trkpt lat="42.3053019" lon="14.2925239"><ele>121.25</ele><time>2026-05-03T10:02:53.342Z</time></trkpt><trkpt lat="42.3051824" lon="14.2924955"><ele>122.0</ele><time>2026-05-03T10:02:54.353Z</time></trkpt><trkpt lat="42.3050687" lon="14.2924902"><ele>122.0</ele><time>2026-05-03T10:02:55.364Z</time></trkpt><trkpt lat="42.3049831" lon="14.2925084"><ele>121.99999999999999</ele><time>2026-05-03T10:02:56.343Z</time></trkpt><trkpt lat="42.3049129" lon="14.2925285"><ele>121.99999999999999</ele><time>2026-05-03T10:02:57.35Z</time></trkpt><trkpt lat="42.3048267" lon="14.2925933"><ele>122.0</ele><time>2026-05-03T10:02:59.346Z</time></trkpt><trkpt lat="42.3047802" lon="14.292664"><ele>122.0</ele><time>2026-05-03T10:03:01.355Z</time></trkpt><trkpt lat="42.3046681" lon="14.2927699"><ele>121.8</ele><time>2026-05-03T10:03:05.348Z</time></trkpt><trkpt lat="42.304578" lon="14.2928334"><ele>121.6</ele><time>2026-05-03T10:03:07.35Z</time></trkpt><trkpt lat="42.3045074" lon="14.2928769"><ele>121.39999999999999</ele><time>2026-05-03T10:03:08.332Z</time></trkpt><trkpt lat="42.3044085" lon="14.292926"><ele>121.19999999999999</ele><time>2026-05-03T10:03:09.354Z</time></trkpt><trkpt lat="42.3042911" lon="14.2929691"><ele>121.0</ele><time>2026-05-03T10:03:10.351Z</time></trkpt><trkpt lat="42.304164" lon="14.2930049"><ele>121.0</ele><time>2026-05-03T10:03:11.375Z</time></trkpt><trkpt lat="42.3040302" lon="14.2930299"><ele>121.0</ele><time>2026-05-03T10:03:12.351Z</time></trkpt><trkpt lat="42.3038938" lon="14.2930472"><ele>121.0</ele><time>2026-05-03T10:03:13.346Z</time></trkpt><trkpt lat="42.3037577" lon="14.2930437"><ele>121.0</ele><time>2026-05-03T10:03:14.353Z</time></trkpt><trkpt lat="42.3036226" lon="14.2930359"><ele>119.75</ele><time>2026-05-03T10:03:15.336Z</time></trkpt><trkpt lat="42.3035022" lon="14.2930206"><ele>118.5</ele><time>2026-05-03T10:03:16.346Z</time></trkpt><trkpt lat="42.3033831" lon="14.2930107"><ele>117.25</ele><time>2026-05-03T10:03:17.351Z</time></trkpt><trkpt lat="42.3032572" lon="14.2930001"><ele>116.0</ele><time>2026-05-03T10:03:18.34Z</time></trkpt><trkpt lat="42.3031326" lon="14.2929863"><ele>116.0</ele><time>2026-05-03T10:03:19.359Z</time></trkpt><trkpt lat="42.3030014" lon="14.2929658"><ele>116.0</ele><time>2026-05-03T10:03:20.358Z</time></trkpt><trkpt lat="42.3028594" lon="14.2929379"><ele>116.0</ele><time>2026-05-03T10:03:21.361Z</time></trkpt><trkpt lat="42.302712" lon="14.2929127"><ele>116.0</ele><time>2026-05-03T10:03:22.369Z</time></trkpt><trkpt lat="42.3024099" lon="14.2928822"><ele>116.0</ele><time>2026-05-03T10:03:24.336Z</time></trkpt><trkpt lat="42.302251" lon="14.2928534"><ele>116.0</ele><time>2026-05-03T10:03:25.357Z</time></trkpt><trkpt lat="42.3020934" lon="14.2928251"><ele>116.0</ele><time>2026-05-03T10:03:26.359Z</time></trkpt><trkpt lat="42.3019415" lon="14.2927971"><ele>116.25</ele><time>2026-05-03T10:03:27.363Z</time></trkpt><trkpt lat="42.3017999" lon="14.2927819"><ele>116.5</ele><time>2026-05-03T10:03:28.342Z</time></trkpt><trkpt lat="42.3016666" lon="14.2927679"><ele>116.75</ele><time>2026-05-03T10:03:29.346Z</time></trkpt><trkpt lat="42.3015226" lon="14.2927433"><ele>117.0</ele><time>2026-05-03T10:03:30.331Z</time></trkpt><trkpt lat="42.3013722" lon="14.2926971"><ele>117.75</ele><time>2026-05-03T10:03:31.339Z</time></trkpt><trkpt lat="42.3012264" lon="14.2926557"><ele>118.5</ele><time>2026-05-03T10:03:32.361Z</time></trkpt><trkpt lat="42.3010954" lon="14.2926185"><ele>119.25</ele><time>2026-05-03T10:03:33.361Z</time></trkpt><trkpt lat="42.3009698" lon="14.2925846"><ele>120.0</ele><time>2026-05-03T10:03:34.362Z</time></trkpt><trkpt lat="42.3008372" lon="14.2925646"><ele>120.0</ele><time>2026-05-03T10:03:35.362Z</time></trkpt><trkpt lat="42.3007012" lon="14.2925651"><ele>120.0</ele><time>2026-05-03T10:03:36.355Z</time></trkpt><trkpt lat="42.3005738" lon="14.2925676"><ele>120.0</ele><time>2026-05-03T10:03:37.344Z</time></trkpt><trkpt lat="42.3004534" lon="14.2925634"><ele>120.0</ele><time>2026-05-03T10:03:38.349Z</time></trkpt><trkpt lat="42.3003484" lon="14.2925347"><ele>120.2</ele><time>2026-05-03T10:03:39.346Z</time></trkpt><trkpt lat="42.3002471" lon="14.292478"><ele>120.4</ele><time>2026-05-03T10:03:40.335Z</time></trkpt><trkpt lat="42.3001452" lon="14.2924079"><ele>120.6</ele><time>2026-05-03T10:03:41.332Z</time></trkpt><trkpt lat="42.3000519" lon="14.2923245"><ele>120.8</ele><time>2026-05-03T10:03:42.355Z</time></trkpt><trkpt lat="42.2999627" lon="14.2922433"><ele>121.0</ele><time>2026-05-03T10:03:43.344Z</time></trkpt><trkpt lat="42.2998169" lon="14.2921078"><ele>123.4</ele><time>2026-05-03T10:03:46.36Z</time></trkpt><trkpt lat="42.2997071" lon="14.2920942"><ele>125.8</ele><time>2026-05-03T10:03:49.334Z</time></trkpt><trkpt lat="42.2996355" lon="14.292117"><ele>128.20000000000002</ele><time>2026-05-03T10:03:50.328Z</time></trkpt><trkpt lat="42.2995487" lon="14.2921459"><ele>130.6</ele><time>2026-05-03T10:03:51.346Z</time></trkpt><trkpt lat="42.2994519" lon="14.2921705"><ele>133.0</ele><time>2026-05-03T10:03:52.343Z</time></trkpt><trkpt lat="42.2993466" lon="14.292179"><ele>133.0</ele><time>2026-05-03T10:03:53.339Z</time></trkpt><trkpt lat="42.299232" lon="14.2921683"><ele>133.0</ele><time>2026-05-03T10:03:54.356Z</time></trkpt><trkpt lat="42.2991169" lon="14.2921512"><ele>133.0</ele><time>2026-05-03T10:03:55.356Z</time></trkpt><trkpt lat="42.2989923" lon="14.2921368"><ele>133.0</ele><time>2026-05-03T10:03:56.345Z</time></trkpt><trkpt lat="42.2988657" lon="14.2921254"><ele>133.25</ele><time>2026-05-03T10:03:57.342Z</time></trkpt><trkpt lat="42.2987348" lon="14.2921294"><ele>133.5</ele><time>2026-05-03T10:03:58.362Z</time></trkpt><trkpt lat="42.2986031" lon="14.2921389"><ele>133.75</ele><time>2026-05-03T10:03:59.353Z</time></trkpt><trkpt lat="42.2984785" lon="14.2921497"><ele>134.0</ele><time>2026-05-03T10:04:00.348Z</time></trkpt><trkpt lat="42.2983594" lon="14.2921575"><ele>134.0</ele><time>2026-05-03T10:04:01.37Z</time></trkpt><trkpt lat="42.2982448" lon="14.2921664"><ele>134.0</ele><time>2026-05-03T10:04:02.347Z</time></trkpt><trkpt lat="42.2981326" lon="14.2921784"><ele>134.0</ele><time>2026-05-03T10:04:03.362Z</time></trkpt><trkpt lat="42.2980434" lon="14.2922008"><ele>134.0</ele><time>2026-05-03T10:04:04.352Z</time></trkpt><trkpt lat="42.2979466" lon="14.292363"><ele>131.2</ele><time>2026-05-03T10:04:06.377Z</time></trkpt><trkpt lat="42.2979212" lon="14.2924911"><ele>128.4</ele><time>2026-05-03T10:04:07.338Z</time></trkpt><trkpt lat="42.2979091" lon="14.2926327"><ele>125.6</ele><time>2026-05-03T10:04:08.349Z</time></trkpt><trkpt lat="42.2979073" lon="14.2927759"><ele>122.8</ele><time>2026-05-03T10:04:09.374Z</time></trkpt><trkpt lat="42.2979058" lon="14.2928966"><ele>120.0</ele><time>2026-05-03T10:04:10.363Z</time></trkpt><trkpt lat="42.2979073" lon="14.2929981"><ele>120.0</ele><time>2026-05-03T10:04:12.364Z</time></trkpt><trkpt lat="42.2978416" lon="14.2930274"><ele>120.0</ele><time>2026-05-03T10:04:15.333Z</time></trkpt><trkpt lat="42.2977748" lon="14.2929521"><ele>120.0</ele><time>2026-05-03T10:04:17.352Z</time></trkpt><trkpt lat="42.297716" lon="14.292893"><ele>120.0</ele><time>2026-05-03T10:04:18.372Z</time></trkpt><trkpt lat="42.2976358" lon="14.2928166"><ele>120.0</ele><time>2026-05-03T10:04:19.33Z</time></trkpt><trkpt lat="42.2975479" lon="14.2927246"><ele>120.0</ele><time>2026-05-03T10:04:20.354Z</time></trkpt><trkpt lat="42.2974497" lon="14.2926286"><ele>120.0</ele><time>2026-05-03T10:04:21.345Z</time></trkpt><trkpt lat="42.2973499" lon="14.2925304"><ele>120.0</ele><time>2026-05-03T10:04:22.356Z</time></trkpt><trkpt lat="42.2972614" lon="14.2924428"><ele>120.0</ele><time>2026-05-03T10:04:23.346Z</time></trkpt><trkpt lat="42.2971702" lon="14.2923574"><ele>120.0</ele><time>2026-05-03T10:04:24.346Z</time></trkpt><trkpt lat="42.2970774" lon="14.2922727"><ele>125.0</ele><time>2026-05-03T10:04:25.346Z</time></trkpt><trkpt lat="42.2968941" lon="14.2920807"><ele>130.0</ele><time>2026-05-03T10:04:27.344Z</time></trkpt><trkpt lat="42.2967842" lon="14.2919865"><ele>135.0</ele><time>2026-05-03T10:04:28.347Z</time></trkpt><trkpt lat="42.296668" lon="14.2918916"><ele>135.0</ele><time>2026-05-03T10:04:29.347Z</time></trkpt><trkpt lat="42.2965403" lon="14.2917995"><ele>135.0</ele><time>2026-05-03T10:04:30.355Z</time></trkpt><trkpt lat="42.2964166" lon="14.2917219"><ele>135.0</ele><time>2026-05-03T10:04:31.335Z</time></trkpt><trkpt lat="42.2963058" lon="14.2916561"><ele>135.0</ele><time>2026-05-03T10:04:32.351Z</time></trkpt><trkpt lat="42.2962341" lon="14.2916062"><ele>134.6</ele><time>2026-05-03T10:04:33.338Z</time></trkpt><trkpt lat="42.2962008" lon="14.2915196"><ele>134.2</ele><time>2026-05-03T10:04:35.353Z</time></trkpt><trkpt lat="42.2962536" lon="14.2913426"><ele>133.8</ele><time>2026-05-03T10:04:37.345Z</time></trkpt><trkpt lat="42.2962894" lon="14.2912239"><ele>133.4</ele><time>2026-05-03T10:04:38.341Z</time></trkpt><trkpt lat="42.2963199" lon="14.2910915"><ele>133.0</ele><time>2026-05-03T10:04:39.364Z</time></trkpt><trkpt lat="42.2963576" lon="14.2909538"><ele>133.0</ele><time>2026-05-03T10:04:40.334Z</time></trkpt><trkpt lat="42.2963975" lon="14.2908097"><ele>133.0</ele><time>2026-05-03T10:04:41.344Z</time></trkpt><trkpt lat="42.2964427" lon="14.2906733"><ele>133.0</ele><time>2026-05-03T10:04:42.335Z</time></trkpt><trkpt lat="42.2965026" lon="14.2905438"><ele>133.0</ele><time>2026-05-03T10:04:43.349Z</time></trkpt><trkpt lat="42.2965737" lon="14.290426"><ele>139.0</ele><time>2026-05-03T10:04:44.375Z</time></trkpt><trkpt lat="42.2966379" lon="14.290322"><ele>145.0</ele><time>2026-05-03T10:04:45.348Z</time></trkpt><trkpt lat="42.296688" lon="14.2902304"><ele>151.0</ele><time>2026-05-03T10:04:46.335Z</time></trkpt><trkpt lat="42.296769" lon="14.2900446"><ele>157.0</ele><time>2026-05-03T10:04:48.353Z</time></trkpt><trkpt lat="42.2968213" lon="14.2899414"><ele>163.0</ele><time>2026-05-03T10:04:49.327Z</time></trkpt><trkpt lat="42.2968772" lon="14.2898376"><ele>165.60000000000002</ele><time>2026-05-03T10:04:50.353Z</time></trkpt><trkpt lat="42.2969322" lon="14.2897386"><ele>168.20000000000002</ele><time>2026-05-03T10:04:51.346Z</time></trkpt><trkpt lat="42.2969954" lon="14.2896315"><ele>170.8</ele><time>2026-05-03T10:04:52.337Z</time></trkpt><trkpt lat="42.2970535" lon="14.2895187"><ele>173.4</ele><time>2026-05-03T10:04:53.358Z</time></trkpt><trkpt lat="42.2971134" lon="14.2894051"><ele>176.0</ele><time>2026-05-03T10:04:54.352Z</time></trkpt><trkpt lat="42.2971774" lon="14.2892755"><ele>176.0</ele><time>2026-05-03T10:04:55.347Z</time></trkpt><trkpt lat="42.2972347" lon="14.2891613"><ele>176.0</ele><time>2026-05-03T10:04:56.351Z</time></trkpt><trkpt lat="42.2972865" lon="14.2890971"><ele>176.0</ele><time>2026-05-03T10:04:57.367Z</time></trkpt><trkpt lat="42.2973583" lon="14.2890826"><ele>176.0</ele><time>2026-05-03T10:04:59.355Z</time></trkpt><trkpt lat="42.2974586" lon="14.2891188"><ele>176.0</ele><time>2026-05-03T10:05:01.347Z</time></trkpt><trkpt lat="42.2975357" lon="14.289125"><ele>176.0</ele><time>2026-05-03T10:05:03.348Z</time></trkpt><trkpt lat="42.297508" lon="14.2890182"><ele>176.0</ele><time>2026-05-03T10:05:06.35Z</time></trkpt><trkpt lat="42.2973854" lon="14.2890182"><ele>176.0</ele><time>2026-05-03T10:05:08.359Z</time></trkpt><trkpt lat="42.2972494" lon="14.288933"><ele>176.0</ele><time>2026-05-03T10:05:10.347Z</time></trkpt><trkpt lat="42.2971845" lon="14.2888827"><ele>176.0</ele><time>2026-05-03T10:05:11.339Z</time></trkpt><trkpt lat="42.297123" lon="14.2888449"><ele>176.0</ele><time>2026-05-03T10:05:12.359Z</time></trkpt><trkpt lat="42.2970607" lon="14.28881"><ele>178.16666666666666</ele><time>2026-05-03T10:05:13.359Z</time></trkpt><trkpt lat="42.2969942" lon="14.2887763"><ele>180.33333333333331</ele><time>2026-05-03T10:05:14.364Z</time></trkpt><trkpt lat="42.2969226" lon="14.2887615"><ele>182.5</ele><time>2026-05-03T10:05:15.333Z</time></trkpt><trkpt lat="42.2968475" lon="14.2887391"><ele>184.66666666666666</ele><time>2026-05-03T10:05:16.341Z</time></trkpt><trkpt lat="42.2967674" lon="14.2887172"><ele>186.83333333333334</ele><time>2026-05-03T10:05:17.341Z</time></trkpt><trkpt lat="42.2966899" lon="14.2886912"><ele>189.0</ele><time>2026-05-03T10:05:18.355Z</time></trkpt><trkpt lat="42.2966109" lon="14.2886722"><ele>189.0</ele><time>2026-05-03T10:05:19.363Z</time></trkpt><trkpt lat="42.2965319" lon="14.2886569"><ele>189.0</ele><time>2026-05-03T10:05:20.342Z</time></trkpt><trkpt lat="42.2964505" lon="14.2886463"><ele>189.0</ele><time>2026-05-03T10:05:21.343Z</time></trkpt><trkpt lat="42.2963694" lon="14.2886402"><ele>189.0</ele><time>2026-05-03T10:05:22.353Z</time></trkpt><trkpt lat="42.2962812" lon="14.288633"><ele>189.0</ele><time>2026-05-03T10:05:23.373Z</time></trkpt><trkpt lat="42.2961908" lon="14.2886234"><ele>189.0</ele><time>2026-05-03T10:05:24.346Z</time></trkpt><trkpt lat="42.2961019" lon="14.2885937"><ele>187.39999999999998</ele><time>2026-05-03T10:05:25.36Z</time></trkpt><trkpt lat="42.2960202" lon="14.2885478"><ele>185.8</ele><time>2026-05-03T10:05:26.345Z</time></trkpt><trkpt lat="42.2959407" lon="14.2884785"><ele>184.2</ele><time>2026-05-03T10:05:27.341Z</time></trkpt><trkpt lat="42.2958647" lon="14.2883945"><ele>182.60000000000002</ele><time>2026-05-03T10:05:28.342Z</time></trkpt><trkpt lat="42.295795" lon="14.2882916"><ele>181.0</ele><time>2026-05-03T10:05:29.342Z</time></trkpt><trkpt lat="42.2956836" lon="14.2880549"><ele>181.0</ele><time>2026-05-03T10:05:31.358Z</time></trkpt><trkpt lat="42.2956272" lon="14.2879502"><ele>181.0</ele><time>2026-05-03T10:05:32.354Z</time></trkpt><trkpt lat="42.2955564" lon="14.2878746"><ele>181.0</ele><time>2026-05-03T10:05:33.333Z</time></trkpt><trkpt lat="42.2954719" lon="14.2878238"><ele>181.0</ele><time>2026-05-03T10:05:34.361Z</time></trkpt><trkpt lat="42.2953874" lon="14.2877774"><ele>181.0</ele><time>2026-05-03T10:05:35.345Z</time></trkpt><trkpt lat="42.2953071" lon="14.2877051"><ele>177.60000000000002</ele><time>2026-05-03T10:05:36.351Z</time></trkpt><trkpt lat="42.2952275" lon="14.2876036"><ele>174.2</ele><time>2026-05-03T10:05:37.344Z</time></trkpt><trkpt lat="42.2951522" lon="14.2874898"><ele>170.8</ele><time>2026-05-03T10:05:38.356Z</time></trkpt><trkpt lat="42.2950737" lon="14.2873896"><ele>167.39999999999998</ele><time>2026-05-03T10:05:39.335Z</time></trkpt><trkpt lat="42.2949952" lon="14.2872874"><ele>164.0</ele><time>2026-05-03T10:05:40.344Z</time></trkpt><trkpt lat="42.2949184" lon="14.2871669"><ele>164.0</ele><time>2026-05-03T10:05:41.354Z</time></trkpt><trkpt lat="42.2948534" lon="14.287027"><ele>164.0</ele><time>2026-05-03T10:05:42.344Z</time></trkpt><trkpt lat="42.2947999" lon="14.2868768"><ele>164.0</ele><time>2026-05-03T10:05:43.335Z</time></trkpt><trkpt lat="42.2947472" lon="14.2867282"><ele>164.0</ele><time>2026-05-03T10:05:44.331Z</time></trkpt><trkpt lat="42.294692" lon="14.2865895"><ele>160.25</ele><time>2026-05-03T10:05:45.339Z</time></trkpt><trkpt lat="42.2946232" lon="14.2864579"><ele>156.5</ele><time>2026-05-03T10:05:46.353Z</time></trkpt><trkpt lat="42.2945553" lon="14.2863327"><ele>152.75</ele><time>2026-05-03T10:05:47.343Z</time></trkpt><trkpt lat="42.2944831" lon="14.2862149"><ele>149.0</ele><time>2026-05-03T10:05:48.338Z</time></trkpt><trkpt lat="42.2943948" lon="14.2861188"><ele>149.0</ele><time>2026-05-03T10:05:49.369Z</time></trkpt><trkpt lat="42.2943049" lon="14.2860376"><ele>149.0</ele><time>2026-05-03T10:05:50.344Z</time></trkpt><trkpt lat="42.2941092" lon="14.2858911"><ele>149.0</ele><time>2026-05-03T10:05:52.332Z</time></trkpt><trkpt lat="42.2940168" lon="14.2858216"><ele>149.0</ele><time>2026-05-03T10:05:53.354Z</time></trkpt><trkpt lat="42.2939412" lon="14.2857694"><ele>147.8</ele><time>2026-05-03T10:05:54.341Z</time></trkpt><trkpt lat="42.2938612" lon="14.2857267"><ele>146.60000000000002</ele><time>2026-05-03T10:05:55.335Z</time></trkpt><trkpt lat="42.2937606" lon="14.2856485"><ele>145.4</ele><time>2026-05-03T10:05:56.346Z</time></trkpt><trkpt lat="42.2936585" lon="14.2855548"><ele>144.20000000000002</ele><time>2026-05-03T10:05:57.344Z</time></trkpt><trkpt lat="42.2935646" lon="14.2854534"><ele>143.0</ele><time>2026-05-03T10:05:58.329Z</time></trkpt><trkpt lat="42.2934765" lon="14.2853549"><ele>143.0</ele><time>2026-05-03T10:05:59.342Z</time></trkpt><trkpt lat="42.2933943" lon="14.2852624"><ele>143.0</ele><time>2026-05-03T10:06:00.339Z</time></trkpt><trkpt lat="42.293317" lon="14.285174"><ele>143.0</ele><time>2026-05-03T10:06:01.354Z</time></trkpt><trkpt lat="42.2932571" lon="14.2851022"><ele>143.0</ele><time>2026-05-03T10:06:02.334Z</time></trkpt><trkpt lat="42.2931994" lon="14.2850425"><ele>143.0</ele><time>2026-05-03T10:06:03.346Z</time></trkpt><trkpt lat="42.2931328" lon="14.2849948"><ele>143.0</ele><time>2026-05-03T10:06:04.342Z</time></trkpt><trkpt lat="42.2930534" lon="14.2849446"><ele>141.0</ele><time>2026-05-03T10:06:05.343Z</time></trkpt><trkpt lat="42.2929454" lon="14.2848849"><ele>139.0</ele><time>2026-05-03T10:06:06.344Z</time></trkpt><trkpt lat="42.2928268" lon="14.2848195"><ele>137.0</ele><time>2026-05-03T10:06:07.353Z</time></trkpt><trkpt lat="42.2927134" lon="14.2847566"><ele>135.0</ele><time>2026-05-03T10:06:08.353Z</time></trkpt><trkpt lat="42.2926163" lon="14.2846794"><ele>135.0</ele><time>2026-05-03T10:06:09.334Z</time></trkpt><trkpt lat="42.2925223" lon="14.2845779"><ele>135.0</ele><time>2026-05-03T10:06:10.356Z</time></trkpt><trkpt lat="42.2924311" lon="14.2844508"><ele>135.0</ele><time>2026-05-03T10:06:11.344Z</time></trkpt><trkpt lat="42.2922273" lon="14.2841671"><ele>134.5</ele><time>2026-05-03T10:06:13.333Z</time></trkpt><trkpt lat="42.2921432" lon="14.2840314"><ele>134.0</ele><time>2026-05-03T10:06:14.364Z</time></trkpt><trkpt lat="42.2920569" lon="14.2839108"><ele>133.5</ele><time>2026-05-03T10:06:15.35Z</time></trkpt><trkpt lat="42.2919613" lon="14.2838016"><ele>133.0</ele><time>2026-05-03T10:06:16.332Z</time></trkpt><trkpt lat="42.2918526" lon="14.2836991"><ele>135.25</ele><time>2026-05-03T10:06:17.341Z</time></trkpt><trkpt lat="42.2917369" lon="14.283587"><ele>137.5</ele><time>2026-05-03T10:06:18.342Z</time></trkpt><trkpt lat="42.2916286" lon="14.283473"><ele>139.75</ele><time>2026-05-03T10:06:19.344Z</time></trkpt><trkpt lat="42.2915248" lon="14.2833641"><ele>142.0</ele><time>2026-05-03T10:06:20.335Z</time></trkpt><trkpt lat="42.2914143" lon="14.2832653"><ele>142.0</ele><time>2026-05-03T10:06:21.36Z</time></trkpt><trkpt lat="42.2913134" lon="14.2831674"><ele>142.0</ele><time>2026-05-03T10:06:22.343Z</time></trkpt><trkpt lat="42.291229" lon="14.2830645"><ele>142.0</ele><time>2026-05-03T10:06:23.336Z</time></trkpt><trkpt lat="42.2911544" lon="14.2829313"><ele>142.0</ele><time>2026-05-03T10:06:24.343Z</time></trkpt><trkpt lat="42.2911103" lon="14.2827721"><ele>143.6</ele><time>2026-05-03T10:06:25.353Z</time></trkpt><trkpt lat="42.2910922" lon="14.2826193"><ele>145.2</ele><time>2026-05-03T10:06:26.349Z</time></trkpt><trkpt lat="42.2910833" lon="14.2824776"><ele>146.8</ele><time>2026-05-03T10:06:27.34Z</time></trkpt><trkpt lat="42.2910649" lon="14.2823666"><ele>148.4</ele><time>2026-05-03T10:06:28.341Z</time></trkpt><trkpt lat="42.2910292" lon="14.2822676"><ele>150.0</ele><time>2026-05-03T10:06:29.339Z</time></trkpt><trkpt lat="42.2909836" lon="14.2821622"><ele>154.0</ele><time>2026-05-03T10:06:30.348Z</time></trkpt><trkpt lat="42.2909254" lon="14.2820656"><ele>158.0</ele><time>2026-05-03T10:06:31.327Z</time></trkpt><trkpt lat="42.2908695" lon="14.2819548"><ele>162.0</ele><time>2026-05-03T10:06:32.335Z</time></trkpt><trkpt lat="42.2907935" lon="14.2816946"><ele>166.0</ele><time>2026-05-03T10:06:34.34Z</time></trkpt><trkpt lat="42.2907885" lon="14.2815569"><ele>169.25</ele><time>2026-05-03T10:06:35.348Z</time></trkpt><trkpt lat="42.2907971" lon="14.2813987"><ele>172.5</ele><time>2026-05-03T10:06:36.325Z</time></trkpt><trkpt lat="42.2908135" lon="14.2812361"><ele>175.75</ele><time>2026-05-03T10:06:37.336Z</time></trkpt><trkpt lat="42.290819" lon="14.2810683"><ele>179.0</ele><time>2026-05-03T10:06:38.353Z</time></trkpt><trkpt lat="42.2908169" lon="14.2809008"><ele>179.0</ele><time>2026-05-03T10:06:39.323Z</time></trkpt><trkpt lat="42.2908095" lon="14.2807307"><ele>179.0</ele><time>2026-05-03T10:06:40.35Z</time></trkpt><trkpt lat="42.2907954" lon="14.2805768"><ele>179.0</ele><time>2026-05-03T10:06:41.347Z</time></trkpt><trkpt lat="42.2907736" lon="14.2804431"><ele>179.0</ele><time>2026-05-03T10:06:42.34Z</time></trkpt><trkpt lat="42.2907325" lon="14.2803252"><ele>179.0</ele><time>2026-05-03T10:06:43.367Z</time></trkpt><trkpt lat="42.290676" lon="14.2802061"><ele>178.0</ele><time>2026-05-03T10:06:44.351Z</time></trkpt><trkpt lat="42.2906084" lon="14.2800831"><ele>177.0</ele><time>2026-05-03T10:06:45.35Z</time></trkpt><trkpt lat="42.2905441" lon="14.2799604"><ele>176.0</ele><time>2026-05-03T10:06:46.339Z</time></trkpt><trkpt lat="42.290491" lon="14.2798396"><ele>175.0</ele><time>2026-05-03T10:06:47.337Z</time></trkpt><trkpt lat="42.2904529" lon="14.2797071"><ele>174.0</ele><time>2026-05-03T10:06:48.344Z</time></trkpt><trkpt lat="42.2904213" lon="14.2795593"><ele>177.79999999999998</ele><time>2026-05-03T10:06:49.343Z</time></trkpt><trkpt lat="42.290406" lon="14.2794415"><ele>181.6</ele><time>2026-05-03T10:06:50.343Z</time></trkpt><trkpt lat="42.2903925" lon="14.2793455"><ele>185.4</ele><time>2026-05-03T10:06:51.338Z</time></trkpt><trkpt lat="42.2903761" lon="14.2792618"><ele>189.2</ele><time>2026-05-03T10:06:52.339Z</time></trkpt><trkpt lat="42.2902767" lon="14.2791563"><ele>193.0</ele><time>2026-05-03T10:06:54.363Z</time></trkpt><trkpt lat="42.2901252" lon="14.2790261"><ele>193.0</ele><time>2026-05-03T10:06:56.355Z</time></trkpt><trkpt lat="42.2900406" lon="14.2789616"><ele>193.0</ele><time>2026-05-03T10:06:57.353Z</time></trkpt><trkpt lat="42.289961" lon="14.2788758"><ele>193.0</ele><time>2026-05-03T10:06:58.335Z</time></trkpt><trkpt lat="42.2899023" lon="14.278765"><ele>193.0</ele><time>2026-05-03T10:06:59.338Z</time></trkpt><trkpt lat="42.2898615" lon="14.278627"><ele>193.0</ele><time>2026-05-03T10:07:00.361Z</time></trkpt><trkpt lat="42.2898198" lon="14.2784612"><ele>194.2</ele><time>2026-05-03T10:07:01.34Z</time></trkpt><trkpt lat="42.2897857" lon="14.2783063"><ele>195.4</ele><time>2026-05-03T10:07:02.353Z</time></trkpt><trkpt lat="42.2897655" lon="14.2781692"><ele>196.6</ele><time>2026-05-03T10:07:03.345Z</time></trkpt><trkpt lat="42.2897528" lon="14.278054"><ele>197.79999999999998</ele><time>2026-05-03T10:07:04.371Z</time></trkpt><trkpt lat="42.2897344" lon="14.2779375"><ele>199.0</ele><time>2026-05-03T10:07:05.35Z</time></trkpt><trkpt lat="42.2897063" lon="14.2778283"><ele>199.0</ele><time>2026-05-03T10:07:06.372Z</time></trkpt><trkpt lat="42.2896716" lon="14.2776878"><ele>199.0</ele><time>2026-05-03T10:07:07.351Z</time></trkpt><trkpt lat="42.2896256" lon="14.2775236"><ele>199.0</ele><time>2026-05-03T10:07:08.349Z</time></trkpt><trkpt lat="42.2895877" lon="14.2773511"><ele>199.0</ele><time>2026-05-03T10:07:09.338Z</time></trkpt><trkpt lat="42.2895502" lon="14.277174"><ele>201.25</ele><time>2026-05-03T10:07:10.333Z</time></trkpt><trkpt lat="42.2895241" lon="14.2770039"><ele>203.5</ele><time>2026-05-03T10:07:11.346Z</time></trkpt><trkpt lat="42.2895114" lon="14.2768342"><ele>205.75</ele><time>2026-05-03T10:07:12.338Z</time></trkpt><trkpt lat="42.2895069" lon="14.2766645"><ele>208.0</ele><time>2026-05-03T10:07:13.347Z</time></trkpt><trkpt lat="42.2894963" lon="14.2765114"><ele>209.2</ele><time>2026-05-03T10:07:14.352Z</time></trkpt><trkpt lat="42.289481" lon="14.2763748"><ele>210.4</ele><time>2026-05-03T10:07:15.371Z</time></trkpt><trkpt lat="42.2894529" lon="14.2761488"><ele>211.59999999999997</ele><time>2026-05-03T10:07:17.341Z</time></trkpt><trkpt lat="42.289442" lon="14.2760609"><ele>212.79999999999998</ele><time>2026-05-03T10:07:18.366Z</time></trkpt><trkpt lat="42.2894411" lon="14.275943"><ele>214.0</ele><time>2026-05-03T10:07:20.351Z</time></trkpt><trkpt lat="42.2893771" lon="14.2758971"><ele>214.0</ele><time>2026-05-03T10:07:22.353Z</time></trkpt><trkpt lat="42.2893102" lon="14.275908"><ele>213.99999999999997</ele><time>2026-05-03T10:07:23.341Z</time></trkpt><trkpt lat="42.2892168" lon="14.2759103"><ele>213.99999999999997</ele><time>2026-05-03T10:07:24.361Z</time></trkpt><trkpt lat="42.2891178" lon="14.275909"><ele>214.0</ele><time>2026-05-03T10:07:25.332Z</time></trkpt><trkpt lat="42.2890247" lon="14.2759055"><ele>214.0</ele><time>2026-05-03T10:07:26.357Z</time></trkpt><trkpt lat="42.2889282" lon="14.275917"><ele>211.79999999999998</ele><time>2026-05-03T10:07:27.378Z</time></trkpt><trkpt lat="42.2888382" lon="14.2759277"><ele>209.59999999999997</ele><time>2026-05-03T10:07:28.375Z</time></trkpt><trkpt lat="42.2887507" lon="14.2759447"><ele>207.4</ele><time>2026-05-03T10:07:29.368Z</time></trkpt><trkpt lat="42.2886556" lon="14.2759588"><ele>205.2</ele><time>2026-05-03T10:07:30.351Z</time></trkpt><trkpt lat="42.2885578" lon="14.2759666"><ele>203.0</ele><time>2026-05-03T10:07:31.353Z</time></trkpt><trkpt lat="42.2884539" lon="14.2759706"><ele>203.0</ele><time>2026-05-03T10:07:32.344Z</time></trkpt><trkpt lat="42.2883522" lon="14.2759699"><ele>203.0</ele><time>2026-05-03T10:07:33.348Z</time></trkpt><trkpt lat="42.2882495" lon="14.2759856"><ele>203.0</ele><time>2026-05-03T10:07:34.347Z</time></trkpt><trkpt lat="42.2881529" lon="14.2760163"><ele>203.0</ele><time>2026-05-03T10:07:35.351Z</time></trkpt><trkpt lat="42.288053" lon="14.2760633"><ele>203.0</ele><time>2026-05-03T10:07:36.364Z</time></trkpt><trkpt lat="42.2878598" lon="14.2761461"><ele>201.0</ele><time>2026-05-03T10:07:38.348Z</time></trkpt><trkpt lat="42.2877629" lon="14.276159"><ele>199.0</ele><time>2026-05-03T10:07:39.333Z</time></trkpt><trkpt lat="42.287659" lon="14.2761616"><ele>197.0</ele><time>2026-05-03T10:07:40.35Z</time></trkpt><trkpt lat="42.2875528" lon="14.2761544"><ele>195.0</ele><time>2026-05-03T10:07:41.344Z</time></trkpt><trkpt lat="42.2874476" lon="14.2761462"><ele>193.0</ele><time>2026-05-03T10:07:42.355Z</time></trkpt><trkpt lat="42.287336" lon="14.2761485"><ele>190.75</ele><time>2026-05-03T10:07:43.357Z</time></trkpt><trkpt lat="42.287235" lon="14.2761901"><ele>188.5</ele><time>2026-05-03T10:07:44.358Z</time></trkpt><trkpt lat="42.2871344" lon="14.2762711"><ele>186.25</ele><time>2026-05-03T10:07:45.361Z</time></trkpt><trkpt lat="42.2870404" lon="14.2763629"><ele>184.0</ele><time>2026-05-03T10:07:46.332Z</time></trkpt><trkpt lat="42.2869382" lon="14.2764415"><ele>182.66666666666669</ele><time>2026-05-03T10:07:47.341Z</time></trkpt><trkpt lat="42.286838" lon="14.2764969"><ele>181.33333333333334</ele><time>2026-05-03T10:07:48.365Z</time></trkpt><trkpt lat="42.2867446" lon="14.2765354"><ele>180.0</ele><time>2026-05-03T10:07:49.353Z</time></trkpt><trkpt lat="42.2866776" lon="14.2765695"><ele>178.66666666666666</ele><time>2026-05-03T10:07:50.337Z</time></trkpt><trkpt lat="42.2866249" lon="14.2766165"><ele>177.33333333333331</ele><time>2026-05-03T10:07:51.347Z</time></trkpt><trkpt lat="42.2865752" lon="14.276686"><ele>176.0</ele><time>2026-05-03T10:07:52.341Z</time></trkpt><trkpt lat="42.2865181" lon="14.2767762"><ele>176.0</ele><time>2026-05-03T10:07:53.352Z</time></trkpt><trkpt lat="42.2864572" lon="14.2768917"><ele>176.0</ele><time>2026-05-03T10:07:54.334Z</time></trkpt><trkpt lat="42.2864043" lon="14.2770067"><ele>176.0</ele><time>2026-05-03T10:07:55.339Z</time></trkpt><trkpt lat="42.2863552" lon="14.2771162"><ele>176.0</ele><time>2026-05-03T10:07:56.346Z</time></trkpt><trkpt lat="42.2862941" lon="14.277205"><ele>176.0</ele><time>2026-05-03T10:07:57.357Z</time></trkpt><trkpt lat="42.2861361" lon="14.2772295"><ele>173.5</ele><time>2026-05-03T10:07:59.344Z</time></trkpt><trkpt lat="42.2860154" lon="14.2771786"><ele>171.0</ele><time>2026-05-03T10:08:00.355Z</time></trkpt><trkpt lat="42.2858914" lon="14.2771184"><ele>168.5</ele><time>2026-05-03T10:08:01.358Z</time></trkpt><trkpt lat="42.2857842" lon="14.2770546"><ele>166.0</ele><time>2026-05-03T10:08:02.353Z</time></trkpt><trkpt lat="42.2856983" lon="14.2770092"><ele>166.0</ele><time>2026-05-03T10:08:03.354Z</time></trkpt><trkpt lat="42.2856237" lon="14.276971"><ele>166.0</ele><time>2026-05-03T10:08:04.371Z</time></trkpt><trkpt lat="42.2855457" lon="14.2769011"><ele>166.0</ele><time>2026-05-03T10:08:05.348Z</time></trkpt><trkpt lat="42.2854674" lon="14.2768266"><ele>166.0</ele><time>2026-05-03T10:08:06.342Z</time></trkpt><trkpt lat="42.2853754" lon="14.2767587"><ele>166.0</ele><time>2026-05-03T10:08:07.343Z</time></trkpt><trkpt lat="42.2852701" lon="14.2767074"><ele>166.20000000000002</ele><time>2026-05-03T10:08:08.344Z</time></trkpt><trkpt lat="42.2851703" lon="14.2766728"><ele>166.4</ele><time>2026-05-03T10:08:09.347Z</time></trkpt><trkpt lat="42.2851085" lon="14.2766419"><ele>166.6</ele><time>2026-05-03T10:08:10.355Z</time></trkpt><trkpt lat="42.2850421" lon="14.2765637"><ele>166.8</ele><time>2026-05-03T10:08:12.379Z</time></trkpt><trkpt lat="42.2850146" lon="14.276479"><ele>167.0</ele><time>2026-05-03T10:10:23.357Z</time></trkpt><trkpt lat="42.2849233" lon="14.2762842"><ele>167.0</ele><time>2026-05-03T10:10:26.345Z</time></trkpt><trkpt lat="42.2848816" lon="14.2762079"><ele>167.0</ele><time>2026-05-03T10:10:27.353Z</time></trkpt><trkpt lat="42.2848341" lon="14.2761377"><ele>167.0</ele><time>2026-05-03T10:10:28.333Z</time></trkpt><trkpt lat="42.2847677" lon="14.2760371"><ele>167.0</ele><time>2026-05-03T10:10:30.357Z</time></trkpt><trkpt lat="42.284807" lon="14.2761516"><ele>167.0</ele><time>2026-05-03T10:10:42.348Z</time></trkpt><trkpt lat="42.2848648" lon="14.2762241"><ele>167.0</ele><time>2026-05-03T10:10:44.343Z</time></trkpt><trkpt lat="42.2849571" lon="14.2763708"><ele>167.6</ele><time>2026-05-03T10:10:48.34Z</time></trkpt><trkpt lat="42.2850143" lon="14.2764643"><ele>168.2</ele><time>2026-05-03T10:10:51.342Z</time></trkpt><trkpt lat="42.2850604" lon="14.2765451"><ele>168.8</ele><time>2026-05-03T10:10:54.356Z</time></trkpt><trkpt lat="42.2851077" lon="14.2766437"><ele>169.4</ele><time>2026-05-03T10:10:57.355Z</time></trkpt><trkpt lat="42.2851734" lon="14.2766944"><ele>170.0</ele><time>2026-05-03T10:10:59.34Z</time></trkpt><trkpt lat="42.2852939" lon="14.276742"><ele>170.0</ele><time>2026-05-03T10:11:01.367Z</time></trkpt><trkpt lat="42.2853641" lon="14.2767704"><ele>170.0</ele><time>2026-05-03T10:11:02.343Z</time></trkpt><trkpt lat="42.2854705" lon="14.2768428"><ele>170.0</ele><time>2026-05-03T10:11:04.346Z</time></trkpt><trkpt lat="42.2855566" lon="14.2769287"><ele>170.0</ele><time>2026-05-03T10:11:06.367Z</time></trkpt><trkpt lat="42.2856952" lon="14.2770497"><ele>169.33333333333331</ele><time>2026-05-03T10:11:09.336Z</time></trkpt><trkpt lat="42.2857579" lon="14.2770833"><ele>168.66666666666666</ele><time>2026-05-03T10:11:10.339Z</time></trkpt><trkpt lat="42.2858529" lon="14.2770905"><ele>168.0</ele><time>2026-05-03T10:11:12.327Z</time></trkpt><trkpt lat="42.2859749" lon="14.277126"><ele>167.33333333333334</ele><time>2026-05-03T10:11:14.345Z</time></trkpt><trkpt lat="42.2860407" lon="14.2771631"><ele>166.66666666666669</ele><time>2026-05-03T10:11:15.332Z</time></trkpt><trkpt lat="42.2861084" lon="14.2771989"><ele>166.0</ele><time>2026-05-03T10:11:16.341Z</time></trkpt><trkpt lat="42.2861795" lon="14.2772201"><ele>166.0</ele><time>2026-05-03T10:11:17.335Z</time></trkpt><trkpt lat="42.2862497" lon="14.2772194"><ele>166.0</ele><time>2026-05-03T10:11:18.347Z</time></trkpt><trkpt lat="42.2863093" lon="14.2771834"><ele>166.0</ele><time>2026-05-03T10:11:19.342Z</time></trkpt><trkpt lat="42.2863661" lon="14.2771226"><ele>166.0</ele><time>2026-05-03T10:11:20.351Z</time></trkpt><trkpt lat="42.2864065" lon="14.2770372"><ele>166.0</ele><time>2026-05-03T10:11:21.348Z</time></trkpt><trkpt lat="42.2864464" lon="14.2769429"><ele>166.0</ele><time>2026-05-03T10:11:22.347Z</time></trkpt><trkpt lat="42.2864855" lon="14.2768493"><ele>166.0</ele><time>2026-05-03T10:11:23.347Z</time></trkpt><trkpt lat="42.2865259" lon="14.2767576"><ele>168.0</ele><time>2026-05-03T10:11:24.325Z</time></trkpt><trkpt lat="42.2865672" lon="14.2766695"><ele>170.0</ele><time>2026-05-03T10:11:25.337Z</time></trkpt><trkpt lat="42.286622" lon="14.2766051"><ele>172.0</ele><time>2026-05-03T10:11:26.351Z</time></trkpt><trkpt lat="42.2866817" lon="14.2765658"><ele>174.0</ele><time>2026-05-03T10:11:27.334Z</time></trkpt><trkpt lat="42.2868138" lon="14.2764752"><ele>176.0</ele><time>2026-05-03T10:11:29.36Z</time></trkpt><trkpt lat="42.286895" lon="14.2764236"><ele>177.33333333333331</ele><time>2026-05-03T10:11:30.343Z</time></trkpt><trkpt lat="42.2869777" lon="14.2763768"><ele>178.66666666666666</ele><time>2026-05-03T10:11:31.34Z</time></trkpt><trkpt lat="42.2870504" lon="14.2763272"><ele>180.0</ele><time>2026-05-03T10:11:32.346Z</time></trkpt><trkpt lat="42.2871317" lon="14.2762717"><ele>181.33333333333334</ele><time>2026-05-03T10:11:34.336Z</time></trkpt><trkpt lat="42.2870651" lon="14.276277"><ele>182.66666666666669</ele><time>2026-05-03T10:11:42.339Z</time></trkpt><trkpt lat="42.2870028" lon="14.2763095"><ele>184.0</ele><time>2026-05-03T10:11:45.349Z</time></trkpt><trkpt lat="42.2869633" lon="14.2761676"><ele>184.0</ele><time>2026-05-03T10:11:48.337Z</time></trkpt><trkpt lat="42.286933" lon="14.2758447"><ele>184.0</ele><time>2026-05-03T10:11:51.352Z</time></trkpt><trkpt lat="42.2869098" lon="14.2757045"><ele>184.0</ele><time>2026-05-03T10:11:52.35Z</time></trkpt><trkpt lat="42.2868881" lon="14.2755951"><ele>184.0</ele><time>2026-05-03T10:11:53.335Z</time></trkpt><trkpt lat="42.2868606" lon="14.275498"><ele>185.66666666666669</ele><time>2026-05-03T10:11:54.339Z</time></trkpt><trkpt lat="42.28683" lon="14.275421"><ele>187.33333333333334</ele><time>2026-05-03T10:11:55.353Z</time></trkpt><trkpt lat="42.2867684" lon="14.2753094"><ele>189.0</ele><time>2026-05-03T10:11:57.344Z</time></trkpt><trkpt lat="42.2867107" lon="14.2752201"><ele>190.66666666666669</ele><time>2026-05-03T10:11:59.33Z</time></trkpt><trkpt lat="42.2867298" lon="14.2751059"><ele>192.33333333333334</ele><time>2026-05-03T10:12:01.337Z</time></trkpt><trkpt lat="42.2866881" lon="14.274978"><ele>194.0</ele><time>2026-05-03T10:12:03.338Z</time></trkpt><trkpt lat="42.2866388" lon="14.2748522"><ele>194.0</ele><time>2026-05-03T10:12:05.35Z</time></trkpt><trkpt lat="42.286691" lon="14.274773"><ele>194.0</ele><time>2026-05-03T10:12:07.364Z</time></trkpt><trkpt lat="42.286819" lon="14.2747471"><ele>194.0</ele><time>2026-05-03T10:12:09.329Z</time></trkpt><trkpt lat="42.2869759" lon="14.2747199"><ele>194.0</ele><time>2026-05-03T10:12:11.349Z</time></trkpt><trkpt lat="42.2870472" lon="14.2746972"><ele>194.0</ele><time>2026-05-03T10:12:12.342Z</time></trkpt><trkpt lat="42.2871533" lon="14.2746546"><ele>196.2</ele><time>2026-05-03T10:12:14.342Z</time></trkpt><trkpt lat="42.2872373" lon="14.2747067"><ele>198.39999999999998</ele><time>2026-05-03T10:12:16.355Z</time></trkpt><trkpt lat="42.2873058" lon="14.2747651"><ele>200.6</ele><time>2026-05-03T10:12:24.339Z</time></trkpt><trkpt lat="42.2872498" lon="14.2747078"><ele>202.8</ele><time>2026-05-03T10:12:29.331Z</time></trkpt><trkpt lat="42.2871706" lon="14.2746833"><ele>205.0</ele><time>2026-05-03T10:12:32.364Z</time></trkpt><trkpt lat="42.287032" lon="14.2746976"><ele>204.99999999999997</ele><time>2026-05-03T10:12:39.346Z</time></trkpt><trkpt lat="42.2869534" lon="14.2747208"><ele>205.0</ele><time>2026-05-03T10:12:41.347Z</time></trkpt><trkpt lat="42.2868551" lon="14.2747532"><ele>205.0</ele><time>2026-05-03T10:12:43.347Z</time></trkpt><trkpt lat="42.286772" lon="14.2747777"><ele>205.0</ele><time>2026-05-03T10:12:45.344Z</time></trkpt><trkpt lat="42.2867008" lon="14.2748062"><ele>204.99999999999997</ele><time>2026-05-03T10:12:47.354Z</time></trkpt><trkpt lat="42.2866272" lon="14.2748347"><ele>205.0</ele><time>2026-05-03T10:12:49.352Z</time></trkpt><trkpt lat="42.2865513" lon="14.2748517"><ele>204.2</ele><time>2026-05-03T10:12:52.345Z</time></trkpt><trkpt lat="42.2864729" lon="14.2748361"><ele>203.4</ele><time>2026-05-03T10:12:56.334Z</time></trkpt><trkpt lat="42.2863078" lon="14.2747058"><ele>202.60000000000002</ele><time>2026-05-03T10:12:59.348Z</time></trkpt><trkpt lat="42.2862502" lon="14.2746436"><ele>201.8</ele><time>2026-05-03T10:13:00.351Z</time></trkpt><trkpt lat="42.286194" lon="14.2745704"><ele>201.0</ele><time>2026-05-03T10:13:01.35Z</time></trkpt><trkpt lat="42.2861458" lon="14.2744781"><ele>201.0</ele><time>2026-05-03T10:13:02.35Z</time></trkpt><trkpt lat="42.2860983" lon="14.2743802"><ele>201.0</ele><time>2026-05-03T10:13:03.348Z</time></trkpt><trkpt lat="42.2860612" lon="14.2742946"><ele>201.0</ele><time>2026-05-03T10:13:04.338Z</time></trkpt><trkpt lat="42.2860426" lon="14.2741415"><ele>201.0</ele><time>2026-05-03T10:13:06.351Z</time></trkpt><trkpt lat="42.2860465" lon="14.2740429"><ele>201.0</ele><time>2026-05-03T10:13:07.345Z</time></trkpt><trkpt lat="42.2860689" lon="14.2739309"><ele>201.0</ele><time>2026-05-03T10:13:08.339Z</time></trkpt><trkpt lat="42.2860955" lon="14.2738316"><ele>203.16666666666666</ele><time>2026-05-03T10:13:09.354Z</time></trkpt><trkpt lat="42.2861271" lon="14.2737492"><ele>205.33333333333331</ele><time>2026-05-03T10:13:10.348Z</time></trkpt><trkpt lat="42.2861467" lon="14.2736237"><ele>207.5</ele><time>2026-05-03T10:13:12.356Z</time></trkpt><trkpt lat="42.2861334" lon="14.2735372"><ele>209.66666666666666</ele><time>2026-05-03T10:13:13.354Z</time></trkpt><trkpt lat="42.2861097" lon="14.273426"><ele>211.83333333333331</ele><time>2026-05-03T10:13:14.351Z</time></trkpt><trkpt lat="42.2860856" lon="14.2733242"><ele>214.0</ele><time>2026-05-03T10:13:15.347Z</time></trkpt><trkpt lat="42.2860354" lon="14.2732325"><ele>214.0</ele><time>2026-05-03T10:13:16.343Z</time></trkpt><trkpt lat="42.2859617" lon="14.2731433"><ele>214.0</ele><time>2026-05-03T10:13:17.342Z</time></trkpt><trkpt lat="42.2858157" lon="14.272951"><ele>214.0</ele><time>2026-05-03T10:13:19.347Z</time></trkpt><trkpt lat="42.2857399" lon="14.2728473"><ele>214.0</ele><time>2026-05-03T10:13:20.332Z</time></trkpt><trkpt lat="42.2856698" lon="14.272752"><ele>213.49999999999997</ele><time>2026-05-03T10:13:21.337Z</time></trkpt><trkpt lat="42.2855932" lon="14.2726752"><ele>213.0</ele><time>2026-05-03T10:13:22.344Z</time></trkpt><trkpt lat="42.2855232" lon="14.2726098"><ele>212.5</ele><time>2026-05-03T10:13:23.351Z</time></trkpt><trkpt lat="42.2854712" lon="14.2725282"><ele>212.0</ele><time>2026-05-03T10:13:24.354Z</time></trkpt><trkpt lat="42.2854303" lon="14.2724388"><ele>211.49999999999997</ele><time>2026-05-03T10:13:25.354Z</time></trkpt><trkpt lat="42.2853958" lon="14.2723284"><ele>211.0</ele><time>2026-05-03T10:13:26.347Z</time></trkpt><trkpt lat="42.2853645" lon="14.2722188"><ele>213.4</ele><time>2026-05-03T10:13:27.352Z</time></trkpt><trkpt lat="42.2853351" lon="14.2720983"><ele>215.8</ele><time>2026-05-03T10:13:28.353Z</time></trkpt><trkpt lat="42.2853133" lon="14.2719763"><ele>218.20000000000002</ele><time>2026-05-03T10:13:29.343Z</time></trkpt><trkpt lat="42.2853002" lon="14.2718492"><ele>220.60000000000002</ele><time>2026-05-03T10:13:30.353Z</time></trkpt><trkpt lat="42.2852974" lon="14.2717141"><ele>223.0</ele><time>2026-05-03T10:13:31.346Z</time></trkpt><trkpt lat="42.2852924" lon="14.2715686"><ele>225.2</ele><time>2026-05-03T10:13:32.345Z</time></trkpt><trkpt lat="42.2852861" lon="14.2714178"><ele>227.4</ele><time>2026-05-03T10:13:33.359Z</time></trkpt><trkpt lat="42.285281" lon="14.2712738"><ele>229.59999999999997</ele><time>2026-05-03T10:13:34.342Z</time></trkpt><trkpt lat="42.2852829" lon="14.2711456"><ele>231.79999999999998</ele><time>2026-05-03T10:13:35.343Z</time></trkpt><trkpt lat="42.2852889" lon="14.271027"><ele>234.0</ele><time>2026-05-03T10:13:36.331Z</time></trkpt><trkpt lat="42.2852958" lon="14.2708988"><ele>234.0</ele><time>2026-05-03T10:13:37.346Z</time></trkpt><trkpt lat="42.2853042" lon="14.270772"><ele>234.0</ele><time>2026-05-03T10:13:38.345Z</time></trkpt><trkpt lat="42.2853299" lon="14.270467"><ele>234.0</ele><time>2026-05-03T10:13:40.349Z</time></trkpt><trkpt lat="42.2853395" lon="14.2703104"><ele>234.0</ele><time>2026-05-03T10:13:41.355Z</time></trkpt><trkpt lat="42.2853493" lon="14.2701618"><ele>235.79999999999998</ele><time>2026-05-03T10:13:42.343Z</time></trkpt><trkpt lat="42.2853572" lon="14.2700173"><ele>237.59999999999997</ele><time>2026-05-03T10:13:43.349Z</time></trkpt><trkpt lat="42.285379" lon="14.2698762"><ele>239.4</ele><time>2026-05-03T10:13:44.342Z</time></trkpt><trkpt lat="42.285414" lon="14.2697439"><ele>241.2</ele><time>2026-05-03T10:13:45.348Z</time></trkpt><trkpt lat="42.2854446" lon="14.2696172"><ele>243.0</ele><time>2026-05-03T10:13:46.35Z</time></trkpt><trkpt lat="42.2854741" lon="14.269493"><ele>244.60000000000002</ele><time>2026-05-03T10:13:47.34Z</time></trkpt><trkpt lat="42.2854998" lon="14.2693675"><ele>246.20000000000002</ele><time>2026-05-03T10:13:48.345Z</time></trkpt><trkpt lat="42.28553" lon="14.2692427"><ele>247.8</ele><time>2026-05-03T10:13:49.354Z</time></trkpt><trkpt lat="42.2855663" lon="14.2691157"><ele>249.4</ele><time>2026-05-03T10:13:50.346Z</time></trkpt><trkpt lat="42.285599" lon="14.2689973"><ele>251.0</ele><time>2026-05-03T10:13:51.343Z</time></trkpt><trkpt lat="42.2856194" lon="14.2688708"><ele>257.0</ele><time>2026-05-03T10:13:52.341Z</time></trkpt><trkpt lat="42.2856353" lon="14.2687314"><ele>263.0</ele><time>2026-05-03T10:13:53.347Z</time></trkpt><trkpt lat="42.2856407" lon="14.2685874"><ele>269.0</ele><time>2026-05-03T10:13:54.346Z</time></trkpt><trkpt lat="42.2856427" lon="14.2684469"><ele>275.0</ele><time>2026-05-03T10:13:55.334Z</time></trkpt><trkpt lat="42.2856464" lon="14.2683362"><ele>281.0</ele><time>2026-05-03T10:13:56.342Z</time></trkpt><trkpt lat="42.2856478" lon="14.2682112"><ele>280.6</ele><time>2026-05-03T10:13:58.331Z</time></trkpt><trkpt lat="42.2856467" lon="14.268075"><ele>280.20000000000005</ele><time>2026-05-03T10:14:01.333Z</time></trkpt><trkpt lat="42.2855886" lon="14.2678941"><ele>279.79999999999995</ele><time>2026-05-03T10:14:03.357Z</time></trkpt><trkpt lat="42.2855442" lon="14.267813"><ele>279.4</ele><time>2026-05-03T10:14:04.35Z</time></trkpt><trkpt lat="42.2854912" lon="14.2677275"><ele>279.0</ele><time>2026-05-03T10:14:05.344Z</time></trkpt><trkpt lat="42.2854318" lon="14.2676327"><ele>279.0</ele><time>2026-05-03T10:14:06.341Z</time></trkpt><trkpt lat="42.2853684" lon="14.2675267"><ele>279.0</ele><time>2026-05-03T10:14:07.341Z</time></trkpt><trkpt lat="42.2853047" lon="14.2674231"><ele>279.0</ele><time>2026-05-03T10:14:08.362Z</time></trkpt><trkpt lat="42.2852405" lon="14.2673177"><ele>279.0</ele><time>2026-05-03T10:14:09.352Z</time></trkpt><trkpt lat="42.2851808" lon="14.2672141"><ele>279.0</ele><time>2026-05-03T10:14:10.347Z</time></trkpt><trkpt lat="42.2851173" lon="14.2671213"><ele>280.2</ele><time>2026-05-03T10:14:11.347Z</time></trkpt><trkpt lat="42.2850505" lon="14.2670398"><ele>281.4</ele><time>2026-05-03T10:14:12.335Z</time></trkpt><trkpt lat="42.284983" lon="14.2669749"><ele>282.6</ele><time>2026-05-03T10:14:13.334Z</time></trkpt><trkpt lat="42.2849178" lon="14.2669339"><ele>283.8</ele><time>2026-05-03T10:14:14.342Z</time></trkpt><trkpt lat="42.2848149" lon="14.2668598"><ele>285.0</ele><time>2026-05-03T10:14:16.344Z</time></trkpt><trkpt lat="42.2847535" lon="14.2667543"><ele>285.0</ele><time>2026-05-03T10:14:18.342Z</time></trkpt><trkpt lat="42.2847275" lon="14.2666374"><ele>285.0</ele><time>2026-05-03T10:14:20.352Z</time></trkpt><trkpt lat="42.2847569" lon="14.2664947"><ele>285.0</ele><time>2026-05-03T10:14:22.348Z</time></trkpt><trkpt lat="42.2848596" lon="14.2663018"><ele>285.0</ele><time>2026-05-03T10:14:24.363Z</time></trkpt><trkpt lat="42.2849026" lon="14.2661952"><ele>284.8333333333333</ele><time>2026-05-03T10:14:25.351Z</time></trkpt><trkpt lat="42.2849425" lon="14.2660912"><ele>284.6666666666667</ele><time>2026-05-03T10:14:26.355Z</time></trkpt><trkpt lat="42.2849893" lon="14.2659961"><ele>284.5</ele><time>2026-05-03T10:14:27.333Z</time></trkpt><trkpt lat="42.2850362" lon="14.2659084"><ele>284.33333333333337</ele><time>2026-05-03T10:14:28.334Z</time></trkpt><trkpt lat="42.2850865" lon="14.2658171"><ele>284.1666666666667</ele><time>2026-05-03T10:14:29.343Z</time></trkpt><trkpt lat="42.2851365" lon="14.2657264"><ele>284.0</ele><time>2026-05-03T10:14:30.341Z</time></trkpt><trkpt lat="42.2851907" lon="14.2656467"><ele>282.6666666666667</ele><time>2026-05-03T10:14:31.334Z</time></trkpt><trkpt lat="42.285248" lon="14.2655673"><ele>281.33333333333337</ele><time>2026-05-03T10:14:32.34Z</time></trkpt><trkpt lat="42.2853034" lon="14.2654871"><ele>280.0</ele><time>2026-05-03T10:14:33.336Z</time></trkpt><trkpt lat="42.2853576" lon="14.2654011"><ele>278.6666666666667</ele><time>2026-05-03T10:14:34.357Z</time></trkpt><trkpt lat="42.2854119" lon="14.2653201"><ele>277.3333333333333</ele><time>2026-05-03T10:14:35.352Z</time></trkpt><trkpt lat="42.2854664" lon="14.2652473"><ele>276.0</ele><time>2026-05-03T10:14:36.348Z</time></trkpt><trkpt lat="42.285535" lon="14.2651912"><ele>274.2</ele><time>2026-05-03T10:14:37.357Z</time></trkpt><trkpt lat="42.2856118" lon="14.2651405"><ele>272.40000000000003</ele><time>2026-05-03T10:14:38.356Z</time></trkpt><trkpt lat="42.2856859" lon="14.2650876"><ele>270.6</ele><time>2026-05-03T10:14:39.35Z</time></trkpt><trkpt lat="42.2857483" lon="14.2650422"><ele>268.8</ele><time>2026-05-03T10:14:40.356Z</time></trkpt><trkpt lat="42.2858333" lon="14.2649645"><ele>267.0</ele><time>2026-05-03T10:14:42.346Z</time></trkpt><trkpt lat="42.2859586" lon="14.2649092"><ele>267.0</ele><time>2026-05-03T10:14:44.34Z</time></trkpt><trkpt lat="42.2861635" lon="14.264864"><ele>267.0</ele><time>2026-05-03T10:14:46.352Z</time></trkpt><trkpt lat="42.2862604" lon="14.2648439"><ele>267.0</ele><time>2026-05-03T10:14:47.345Z</time></trkpt><trkpt lat="42.2863584" lon="14.264831"><ele>267.0</ele><time>2026-05-03T10:14:48.359Z</time></trkpt><trkpt lat="42.2864606" lon="14.2648341"><ele>264.0</ele><time>2026-05-03T10:14:49.36Z</time></trkpt><trkpt lat="42.286561" lon="14.2648381"><ele>261.0</ele><time>2026-05-03T10:14:50.344Z</time></trkpt><trkpt lat="42.2866683" lon="14.2648574"><ele>258.0</ele><time>2026-05-03T10:14:51.353Z</time></trkpt><trkpt lat="42.2867773" lon="14.264876"><ele>255.0</ele><time>2026-05-03T10:14:52.334Z</time></trkpt><trkpt lat="42.286891" lon="14.2649284"><ele>252.0</ele><time>2026-05-03T10:14:53.339Z</time></trkpt><trkpt lat="42.2870014" lon="14.2649864"><ele>252.0</ele><time>2026-05-03T10:14:54.342Z</time></trkpt><trkpt lat="42.2871213" lon="14.2650478"><ele>252.0</ele><time>2026-05-03T10:14:55.34Z</time></trkpt><trkpt lat="42.2872475" lon="14.2651028"><ele>252.0</ele><time>2026-05-03T10:14:56.364Z</time></trkpt><trkpt lat="42.2873723" lon="14.2651524"><ele>252.0</ele><time>2026-05-03T10:14:57.353Z</time></trkpt><trkpt lat="42.2874912" lon="14.2652"><ele>248.75</ele><time>2026-05-03T10:14:58.341Z</time></trkpt><trkpt lat="42.2876127" lon="14.2652376"><ele>245.5</ele><time>2026-05-03T10:14:59.337Z</time></trkpt><trkpt lat="42.2877362" lon="14.2652787"><ele>242.25</ele><time>2026-05-03T10:15:00.349Z</time></trkpt><trkpt lat="42.2878632" lon="14.2653201"><ele>239.0</ele><time>2026-05-03T10:15:01.347Z</time></trkpt><trkpt lat="42.287973" lon="14.2653705"><ele>239.0</ele><time>2026-05-03T10:15:02.329Z</time></trkpt><trkpt lat="42.2880643" lon="14.2654435"><ele>239.0</ele><time>2026-05-03T10:15:03.345Z</time></trkpt><trkpt lat="42.2881457" lon="14.2655353"><ele>239.0</ele><time>2026-05-03T10:15:04.339Z</time></trkpt><trkpt lat="42.2882181" lon="14.2656133"><ele>239.0</ele><time>2026-05-03T10:15:05.342Z</time></trkpt><trkpt lat="42.2884" lon="14.2656726"><ele>238.0</ele><time>2026-05-03T10:15:07.341Z</time></trkpt><trkpt lat="42.2884959" lon="14.2656779"><ele>236.99999999999997</ele><time>2026-05-03T10:15:08.339Z</time></trkpt><trkpt lat="42.2885988" lon="14.2656852"><ele>235.99999999999997</ele><time>2026-05-03T10:15:09.344Z</time></trkpt><trkpt lat="42.2887059" lon="14.2657114"><ele>235.0</ele><time>2026-05-03T10:15:10.334Z</time></trkpt><trkpt lat="42.2888103" lon="14.2657524"><ele>234.0</ele><time>2026-05-03T10:15:11.35Z</time></trkpt><trkpt lat="42.2889323" lon="14.2658387"><ele>234.0</ele><time>2026-05-03T10:15:12.343Z</time></trkpt><trkpt lat="42.2890711" lon="14.2659575"><ele>234.0</ele><time>2026-05-03T10:15:13.348Z</time></trkpt><trkpt lat="42.2892158" lon="14.2660611"><ele>234.0</ele><time>2026-05-03T10:15:14.366Z</time></trkpt><trkpt lat="42.289355" lon="14.26615"><ele>234.0</ele><time>2026-05-03T10:15:15.338Z</time></trkpt><trkpt lat="42.2894914" lon="14.2662325"><ele>234.0</ele><time>2026-05-03T10:15:16.335Z</time></trkpt><trkpt lat="42.2896148" lon="14.2663081"><ele>234.0</ele><time>2026-05-03T10:15:17.347Z</time></trkpt><trkpt lat="42.2897358" lon="14.2663795"><ele>234.0</ele><time>2026-05-03T10:15:18.351Z</time></trkpt><trkpt lat="42.2898527" lon="14.2664481"><ele>233.0</ele><time>2026-05-03T10:15:19.343Z</time></trkpt><trkpt lat="42.2899764" lon="14.266513"><ele>232.0</ele><time>2026-05-03T10:15:20.362Z</time></trkpt><trkpt lat="42.2901098" lon="14.2665706"><ele>231.0</ele><time>2026-05-03T10:15:21.351Z</time></trkpt><trkpt lat="42.29026" lon="14.2666352"><ele>230.0</ele><time>2026-05-03T10:15:22.331Z</time></trkpt><trkpt lat="42.2904071" lon="14.2667018"><ele>230.0</ele><time>2026-05-03T10:15:23.35Z</time></trkpt><trkpt lat="42.2905406" lon="14.2667611"><ele>230.0</ele><time>2026-05-03T10:15:24.329Z</time></trkpt><trkpt lat="42.2906697" lon="14.2668219"><ele>230.0</ele><time>2026-05-03T10:15:25.338Z</time></trkpt><trkpt lat="42.2907876" lon="14.2668544"><ele>230.0</ele><time>2026-05-03T10:15:26.341Z</time></trkpt><trkpt lat="42.2910098" lon="14.266912"><ele>226.75</ele><time>2026-05-03T10:15:28.342Z</time></trkpt><trkpt lat="42.2911122" lon="14.2669908"><ele>223.5</ele><time>2026-05-03T10:15:29.354Z</time></trkpt><trkpt lat="42.2912216" lon="14.2671019"><ele>220.25</ele><time>2026-05-03T10:15:30.362Z</time></trkpt><trkpt lat="42.2913361" lon="14.2672201"><ele>217.0</ele><time>2026-05-03T10:15:31.33Z</time></trkpt><trkpt lat="42.2914483" lon="14.267323"><ele>216.2</ele><time>2026-05-03T10:15:32.329Z</time></trkpt><trkpt lat="42.2915518" lon="14.267411"><ele>215.39999999999998</ele><time>2026-05-03T10:15:33.352Z</time></trkpt><trkpt lat="42.2916324" lon="14.2674965"><ele>214.60000000000002</ele><time>2026-05-03T10:15:34.35Z</time></trkpt><trkpt lat="42.2917075" lon="14.2675799"><ele>213.8</ele><time>2026-05-03T10:15:35.356Z</time></trkpt><trkpt lat="42.2917832" lon="14.2676708"><ele>213.0</ele><time>2026-05-03T10:15:36.345Z</time></trkpt><trkpt lat="42.2918529" lon="14.2677772"><ele>213.0</ele><time>2026-05-03T10:15:37.33Z</time></trkpt><trkpt lat="42.2919159" lon="14.2679135"><ele>213.0</ele><time>2026-05-03T10:15:38.342Z</time></trkpt><trkpt lat="42.2919743" lon="14.2680647"><ele>213.0</ele><time>2026-05-03T10:15:39.35Z</time></trkpt><trkpt lat="42.2920233" lon="14.2682015"><ele>213.0</ele><time>2026-05-03T10:15:40.347Z</time></trkpt><trkpt lat="42.2920606" lon="14.2683362"><ele>214.8</ele><time>2026-05-03T10:15:41.345Z</time></trkpt><trkpt lat="42.2920816" lon="14.2684729"><ele>216.60000000000002</ele><time>2026-05-03T10:15:42.343Z</time></trkpt><trkpt lat="42.2920971" lon="14.2686096"><ele>218.39999999999998</ele><time>2026-05-03T10:15:43.347Z</time></trkpt><trkpt lat="42.2921106" lon="14.2687487"><ele>220.2</ele><time>2026-05-03T10:15:44.353Z</time></trkpt><trkpt lat="42.2921383" lon="14.2689019"><ele>222.0</ele><time>2026-05-03T10:15:45.326Z</time></trkpt><trkpt lat="42.2921782" lon="14.2690572"><ele>224.5</ele><time>2026-05-03T10:15:46.36Z</time></trkpt><trkpt lat="42.2922257" lon="14.2692107"><ele>227.0</ele><time>2026-05-03T10:15:47.338Z</time></trkpt><trkpt lat="42.2923071" lon="14.2694991"><ele>229.5</ele><time>2026-05-03T10:15:49.347Z</time></trkpt><trkpt lat="42.2923406" lon="14.2696091"><ele>232.0</ele><time>2026-05-03T10:15:50.35Z</time></trkpt><trkpt lat="42.2924069" lon="14.2696922"><ele>230.39999999999998</ele><time>2026-05-03T10:15:51.343Z</time></trkpt><trkpt lat="42.2924952" lon="14.2697591"><ele>228.79999999999998</ele><time>2026-05-03T10:15:52.328Z</time></trkpt><trkpt lat="42.2925934" lon="14.2698203"><ele>227.2</ele><time>2026-05-03T10:15:53.333Z</time></trkpt><trkpt lat="42.2926984" lon="14.2698783"><ele>225.6</ele><time>2026-05-03T10:15:54.349Z</time></trkpt><trkpt lat="42.2927957" lon="14.2699371"><ele>224.0</ele><time>2026-05-03T10:15:55.345Z</time></trkpt><trkpt lat="42.2928831" lon="14.2699866"><ele>224.0</ele><time>2026-05-03T10:15:56.334Z</time></trkpt><trkpt lat="42.2929647" lon="14.2700397"><ele>223.99999999999997</ele><time>2026-05-03T10:15:57.362Z</time></trkpt><trkpt lat="42.2930532" lon="14.270099"><ele>223.99999999999997</ele><time>2026-05-03T10:15:58.344Z</time></trkpt><trkpt lat="42.2931544" lon="14.2701626"><ele>224.0</ele><time>2026-05-03T10:15:59.337Z</time></trkpt><trkpt lat="42.2932679" lon="14.2702214"><ele>224.0</ele><time>2026-05-03T10:16:00.341Z</time></trkpt><trkpt lat="42.29338" lon="14.2702869"><ele>221.6</ele><time>2026-05-03T10:16:01.342Z</time></trkpt><trkpt lat="42.2934915" lon="14.2703494"><ele>219.2</ele><time>2026-05-03T10:16:02.337Z</time></trkpt><trkpt lat="42.2935962" lon="14.2704077"><ele>216.79999999999998</ele><time>2026-05-03T10:16:03.338Z</time></trkpt><trkpt lat="42.2936966" lon="14.2704489"><ele>214.39999999999998</ele><time>2026-05-03T10:16:04.342Z</time></trkpt><trkpt lat="42.2937967" lon="14.2704719"><ele>212.0</ele><time>2026-05-03T10:16:05.338Z</time></trkpt><trkpt lat="42.293893" lon="14.2704927"><ele>208.8</ele><time>2026-05-03T10:16:06.336Z</time></trkpt><trkpt lat="42.2939872" lon="14.2705072"><ele>205.6</ele><time>2026-05-03T10:16:07.337Z</time></trkpt><trkpt lat="42.2940665" lon="14.27051"><ele>202.4</ele><time>2026-05-03T10:16:08.361Z</time></trkpt><trkpt lat="42.2941964" lon="14.2704072"><ele>199.20000000000002</ele><time>2026-05-03T10:16:11.331Z</time></trkpt><trkpt lat="42.2941966" lon="14.2702649"><ele>196.0</ele><time>2026-05-03T10:16:13.33Z</time></trkpt><trkpt lat="42.2941777" lon="14.270181"><ele>195.99999999999997</ele><time>2026-05-03T10:16:14.346Z</time></trkpt><trkpt lat="42.2941598" lon="14.2700843"><ele>196.0</ele><time>2026-05-03T10:16:15.335Z</time></trkpt><trkpt lat="42.2941462" lon="14.2699763"><ele>196.0</ele><time>2026-05-03T10:16:16.337Z</time></trkpt><trkpt lat="42.2941344" lon="14.2698633"><ele>196.0</ele><time>2026-05-03T10:16:17.352Z</time></trkpt><trkpt lat="42.2941237" lon="14.2697492"><ele>195.99999999999997</ele><time>2026-05-03T10:16:18.336Z</time></trkpt><trkpt lat="42.2941097" lon="14.2696288"><ele>196.0</ele><time>2026-05-03T10:16:19.349Z</time></trkpt><trkpt lat="42.2940966" lon="14.2695141"><ele>193.0</ele><time>2026-05-03T10:16:20.327Z</time></trkpt><trkpt lat="42.2940816" lon="14.269424"><ele>190.0</ele><time>2026-05-03T10:16:21.353Z</time></trkpt><trkpt lat="42.2940852" lon="14.2692764"><ele>187.0</ele><time>2026-05-03T10:16:23.337Z</time></trkpt><trkpt lat="42.2941356" lon="14.2692106"><ele>184.0</ele><time>2026-05-03T10:16:24.339Z</time></trkpt><trkpt lat="42.2942168" lon="14.2691389"><ele>181.0</ele><time>2026-05-03T10:16:25.333Z</time></trkpt><trkpt lat="42.2943329" lon="14.2690635"><ele>181.0</ele><time>2026-05-03T10:16:26.348Z</time></trkpt><trkpt lat="42.2944828" lon="14.2689998"><ele>181.0</ele><time>2026-05-03T10:16:27.334Z</time></trkpt><trkpt lat="42.294622" lon="14.2689303"><ele>181.0</ele><time>2026-05-03T10:16:28.353Z</time></trkpt><trkpt lat="42.2947446" lon="14.2688609"><ele>181.0</ele><time>2026-05-03T10:16:29.333Z</time></trkpt><trkpt lat="42.2949777" lon="14.2687449"><ele>175.75</ele><time>2026-05-03T10:16:31.338Z</time></trkpt><trkpt lat="42.295102" lon="14.2687078"><ele>170.5</ele><time>2026-05-03T10:16:32.332Z</time></trkpt><trkpt lat="42.2952176" lon="14.2686713"><ele>165.25</ele><time>2026-05-03T10:16:33.343Z</time></trkpt><trkpt lat="42.2953196" lon="14.2686305"><ele>160.0</ele><time>2026-05-03T10:16:34.336Z</time></trkpt><trkpt lat="42.2954149" lon="14.2685891"><ele>160.0</ele><time>2026-05-03T10:16:35.338Z</time></trkpt><trkpt lat="42.2954924" lon="14.2685614"><ele>160.0</ele><time>2026-05-03T10:16:36.326Z</time></trkpt><trkpt lat="42.2955775" lon="14.2685503"><ele>160.0</ele><time>2026-05-03T10:16:37.324Z</time></trkpt><trkpt lat="42.295669" lon="14.2685448"><ele>160.0</ele><time>2026-05-03T10:16:38.342Z</time></trkpt><trkpt lat="42.2957643" lon="14.2685413"><ele>160.0</ele><time>2026-05-03T10:16:39.343Z</time></trkpt><trkpt lat="42.2958518" lon="14.2685374"><ele>160.0</ele><time>2026-05-03T10:16:40.332Z</time></trkpt><trkpt lat="42.2959183" lon="14.2685319"><ele>159.5</ele><time>2026-05-03T10:16:41.331Z</time></trkpt><trkpt lat="42.2960094" lon="14.2684661"><ele>159.0</ele><time>2026-05-03T10:16:43.331Z</time></trkpt><trkpt lat="42.2960642" lon="14.2684187"><ele>158.5</ele><time>2026-05-03T10:16:44.334Z</time></trkpt><trkpt lat="42.2961346" lon="14.2683881"><ele>158.0</ele><time>2026-05-03T10:16:45.349Z</time></trkpt><trkpt lat="42.2962332" lon="14.2684048"><ele>157.5</ele><time>2026-05-03T10:16:46.337Z</time></trkpt><trkpt lat="42.2963322" lon="14.2684253"><ele>157.0</ele><time>2026-05-03T10:16:47.33Z</time></trkpt><trkpt lat="42.296427" lon="14.2684351"><ele>156.4</ele><time>2026-05-03T10:16:48.335Z</time></trkpt><trkpt lat="42.2965076" lon="14.268439"><ele>155.79999999999998</ele><time>2026-05-03T10:16:49.33Z</time></trkpt><trkpt lat="42.296574" lon="14.2684326"><ele>155.2</ele><time>2026-05-03T10:16:50.341Z</time></trkpt><trkpt lat="42.296698" lon="14.2683838"><ele>154.6</ele><time>2026-05-03T10:16:52.357Z</time></trkpt><trkpt lat="42.2968179" lon="14.2683036"><ele>154.0</ele><time>2026-05-03T10:16:54.334Z</time></trkpt><trkpt lat="42.2968857" lon="14.2682437"><ele>154.0</ele><time>2026-05-03T10:16:55.324Z</time></trkpt><trkpt lat="42.2969613" lon="14.2681619"><ele>154.0</ele><time>2026-05-03T10:16:56.34Z</time></trkpt><trkpt lat="42.2970426" lon="14.2680861"><ele>154.0</ele><time>2026-05-03T10:16:57.322Z</time></trkpt><trkpt lat="42.2971307" lon="14.2680267"><ele>154.0</ele><time>2026-05-03T10:16:58.338Z</time></trkpt><trkpt lat="42.297225" lon="14.2679962"><ele>154.0</ele><time>2026-05-03T10:16:59.339Z</time></trkpt><trkpt lat="42.297327" lon="14.2679812"><ele>154.0</ele><time>2026-05-03T10:17:00.334Z</time></trkpt><trkpt lat="42.2974355" lon="14.267981"><ele>154.0</ele><time>2026-05-03T10:17:01.343Z</time></trkpt><trkpt lat="42.2975538" lon="14.267986"><ele>154.0</ele><time>2026-05-03T10:17:02.329Z</time></trkpt><trkpt lat="42.2976768" lon="14.2679998"><ele>154.0</ele><time>2026-05-03T10:17:03.337Z</time></trkpt><trkpt lat="42.2978052" lon="14.2680059"><ele>154.0</ele><time>2026-05-03T10:17:04.329Z</time></trkpt><trkpt lat="42.2979349" lon="14.2680126"><ele>154.0</ele><time>2026-05-03T10:17:05.352Z</time></trkpt><trkpt lat="42.2980649" lon="14.2680222"><ele>154.0</ele><time>2026-05-03T10:17:06.334Z</time></trkpt><trkpt lat="42.2981807" lon="14.2680281"><ele>154.0</ele><time>2026-05-03T10:17:07.339Z</time></trkpt><trkpt lat="42.2982941" lon="14.268037"><ele>151.75</ele><time>2026-05-03T10:17:08.339Z</time></trkpt><trkpt lat="42.2984053" lon="14.2680366"><ele>149.5</ele><time>2026-05-03T10:17:09.331Z</time></trkpt><trkpt lat="42.2985094" lon="14.2680066"><ele>147.25</ele><time>2026-05-03T10:17:10.335Z</time></trkpt><trkpt lat="42.2986251" lon="14.2679555"><ele>145.0</ele><time>2026-05-03T10:17:11.334Z</time></trkpt><trkpt lat="42.2988477" lon="14.2679177"><ele>143.0</ele><time>2026-05-03T10:17:13.328Z</time></trkpt><trkpt lat="42.2989672" lon="14.2679183"><ele>141.0</ele><time>2026-05-03T10:17:14.349Z</time></trkpt><trkpt lat="42.2990738" lon="14.2679261"><ele>139.0</ele><time>2026-05-03T10:17:15.329Z</time></trkpt><trkpt lat="42.2991775" lon="14.2679589"><ele>137.0</ele><time>2026-05-03T10:17:16.34Z</time></trkpt><trkpt lat="42.2992913" lon="14.2680124"><ele>137.0</ele><time>2026-05-03T10:17:17.34Z</time></trkpt><trkpt lat="42.2994058" lon="14.2680576"><ele>137.0</ele><time>2026-05-03T10:17:18.351Z</time></trkpt><trkpt lat="42.2995222" lon="14.2680962"><ele>137.0</ele><time>2026-05-03T10:17:19.349Z</time></trkpt><trkpt lat="42.2996416" lon="14.2681191"><ele>137.0</ele><time>2026-05-03T10:17:20.353Z</time></trkpt><trkpt lat="42.2997626" lon="14.2681186"><ele>134.5</ele><time>2026-05-03T10:17:21.33Z</time></trkpt><trkpt lat="42.2998829" lon="14.2681069"><ele>132.0</ele><time>2026-05-03T10:17:22.343Z</time></trkpt><trkpt lat="42.299998" lon="14.2680888"><ele>129.5</ele><time>2026-05-03T10:17:23.343Z</time></trkpt><trkpt lat="42.3001137" lon="14.2680532"><ele>127.0</ele><time>2026-05-03T10:17:24.342Z</time></trkpt><trkpt lat="42.300221" lon="14.2680002"><ele>127.0</ele><time>2026-05-03T10:17:25.341Z</time></trkpt><trkpt lat="42.3003173" lon="14.2679399"><ele>126.99999999999999</ele><time>2026-05-03T10:17:26.337Z</time></trkpt><trkpt lat="42.3004002" lon="14.2678665"><ele>126.99999999999999</ele><time>2026-05-03T10:17:27.347Z</time></trkpt><trkpt lat="42.3004846" lon="14.2677736"><ele>127.0</ele><time>2026-05-03T10:17:28.346Z</time></trkpt><trkpt lat="42.3005763" lon="14.2676811"><ele>127.0</ele><time>2026-05-03T10:17:29.342Z</time></trkpt><trkpt lat="42.3006674" lon="14.2675911"><ele>125.75</ele><time>2026-05-03T10:17:30.335Z</time></trkpt><trkpt lat="42.3007644" lon="14.2675013"><ele>124.5</ele><time>2026-05-03T10:17:31.345Z</time></trkpt><trkpt lat="42.3008618" lon="14.267421"><ele>123.25</ele><time>2026-05-03T10:17:32.342Z</time></trkpt><trkpt lat="42.3010385" lon="14.2672702"><ele>122.0</ele><time>2026-05-03T10:17:34.355Z</time></trkpt><trkpt lat="42.301114" lon="14.2672094"><ele>121.6</ele><time>2026-05-03T10:17:35.339Z</time></trkpt><trkpt lat="42.3011784" lon="14.2671525"><ele>121.19999999999999</ele><time>2026-05-03T10:17:36.34Z</time></trkpt><trkpt lat="42.3012295" lon="14.2670636"><ele>120.8</ele><time>2026-05-03T10:17:37.343Z</time></trkpt><trkpt lat="42.3012883" lon="14.2669578"><ele>120.4</ele><time>2026-05-03T10:17:38.332Z</time></trkpt><trkpt lat="42.3013679" lon="14.2668623"><ele>120.0</ele><time>2026-05-03T10:17:39.327Z</time></trkpt><trkpt lat="42.3014749" lon="14.2667693"><ele>119.0</ele><time>2026-05-03T10:17:40.343Z</time></trkpt><trkpt lat="42.3015901" lon="14.2666779"><ele>118.0</ele><time>2026-05-03T10:17:41.349Z</time></trkpt><trkpt lat="42.3017111" lon="14.2665964"><ele>117.0</ele><time>2026-05-03T10:17:42.353Z</time></trkpt><trkpt lat="42.3018162" lon="14.2665132"><ele>116.0</ele><time>2026-05-03T10:17:43.34Z</time></trkpt><trkpt lat="42.3019114" lon="14.2664271"><ele>116.0</ele><time>2026-05-03T10:17:44.333Z</time></trkpt><trkpt lat="42.3019885" lon="14.2663351"><ele>116.0</ele><time>2026-05-03T10:17:45.337Z</time></trkpt><trkpt lat="42.3020393" lon="14.2662191"><ele>116.0</ele><time>2026-05-03T10:17:46.331Z</time></trkpt><trkpt lat="42.3020866" lon="14.2660963"><ele>116.0</ele><time>2026-05-03T10:17:47.33Z</time></trkpt><trkpt lat="42.3021349" lon="14.2659578"><ele>116.0</ele><time>2026-05-03T10:17:48.328Z</time></trkpt><trkpt lat="42.3021839" lon="14.2658274"><ele>116.0</ele><time>2026-05-03T10:17:49.331Z</time></trkpt><trkpt lat="42.302222" lon="14.2657226"><ele>116.0</ele><time>2026-05-03T10:17:50.328Z</time></trkpt><trkpt lat="42.3022645" lon="14.2656534"><ele>116.0</ele><time>2026-05-03T10:17:51.342Z</time></trkpt><trkpt lat="42.3023077" lon="14.2655835"><ele>116.0</ele><time>2026-05-03T10:17:52.344Z</time></trkpt><trkpt lat="42.3023688" lon="14.2655204"><ele>116.0</ele><time>2026-05-03T10:17:53.346Z</time></trkpt><trkpt lat="42.3025378" lon="14.2653518"><ele>115.6</ele><time>2026-05-03T10:17:55.35Z</time></trkpt><trkpt lat="42.3026246" lon="14.265251"><ele>115.19999999999999</ele><time>2026-05-03T10:17:56.339Z</time></trkpt><trkpt lat="42.302692" lon="14.2651506"><ele>114.80000000000001</ele><time>2026-05-03T10:17:57.335Z</time></trkpt><trkpt lat="42.30274" lon="14.2650558"><ele>114.4</ele><time>2026-05-03T10:17:58.342Z</time></trkpt><trkpt lat="42.3027632" lon="14.2649497"><ele>114.0</ele><time>2026-05-03T10:17:59.352Z</time></trkpt><trkpt lat="42.302778" lon="14.2648189"><ele>115.0</ele><time>2026-05-03T10:18:00.34Z</time></trkpt><trkpt lat="42.3027935" lon="14.2646573"><ele>116.0</ele><time>2026-05-03T10:18:01.328Z</time></trkpt><trkpt lat="42.3028081" lon="14.2644788"><ele>117.0</ele><time>2026-05-03T10:18:02.333Z</time></trkpt><trkpt lat="42.3028195" lon="14.2642906"><ele>118.0</ele><time>2026-05-03T10:18:03.332Z</time></trkpt><trkpt lat="42.3028246" lon="14.2641041"><ele>120.5</ele><time>2026-05-03T10:18:04.346Z</time></trkpt><trkpt lat="42.3028262" lon="14.2639179"><ele>123.0</ele><time>2026-05-03T10:18:05.341Z</time></trkpt><trkpt lat="42.30283" lon="14.263739"><ele>125.5</ele><time>2026-05-03T10:18:06.352Z</time></trkpt><trkpt lat="42.3028386" lon="14.2635722"><ele>128.0</ele><time>2026-05-03T10:18:07.338Z</time></trkpt><trkpt lat="42.3028575" lon="14.263413"><ele>128.0</ele><time>2026-05-03T10:18:08.336Z</time></trkpt><trkpt lat="42.3028818" lon="14.2632491"><ele>128.0</ele><time>2026-05-03T10:18:09.356Z</time></trkpt><trkpt lat="42.3029091" lon="14.2630705"><ele>128.0</ele><time>2026-05-03T10:18:10.331Z</time></trkpt><trkpt lat="42.3029381" lon="14.262894"><ele>128.0</ele><time>2026-05-03T10:18:11.332Z</time></trkpt><trkpt lat="42.302956" lon="14.2627283"><ele>131.25</ele><time>2026-05-03T10:18:12.336Z</time></trkpt><trkpt lat="42.3029684" lon="14.262569"><ele>134.5</ele><time>2026-05-03T10:18:13.334Z</time></trkpt><trkpt lat="42.3029781" lon="14.2624238"><ele>137.75</ele><time>2026-05-03T10:18:14.34Z</time></trkpt><trkpt lat="42.3029633" lon="14.2621322"><ele>141.0</ele><time>2026-05-03T10:18:16.353Z</time></trkpt><trkpt lat="42.3029714" lon="14.2620151"><ele>142.2</ele><time>2026-05-03T10:18:17.343Z</time></trkpt><trkpt lat="42.303041" lon="14.2618797"><ele>143.39999999999998</ele><time>2026-05-03T10:18:19.339Z</time></trkpt><trkpt lat="42.3031045" lon="14.2618243"><ele>144.6</ele><time>2026-05-03T10:18:20.334Z</time></trkpt><trkpt lat="42.3031944" lon="14.2617776"><ele>145.79999999999998</ele><time>2026-05-03T10:18:21.344Z</time></trkpt><trkpt lat="42.3033092" lon="14.2617355"><ele>147.0</ele><time>2026-05-03T10:18:22.343Z</time></trkpt><trkpt lat="42.303421" lon="14.2616984"><ele>144.2</ele><time>2026-05-03T10:18:23.332Z</time></trkpt><trkpt lat="42.3035266" lon="14.2616554"><ele>141.39999999999998</ele><time>2026-05-03T10:18:24.346Z</time></trkpt><trkpt lat="42.3036263" lon="14.2616166"><ele>138.60000000000002</ele><time>2026-05-03T10:18:25.349Z</time></trkpt><trkpt lat="42.3037197" lon="14.2615837"><ele>135.8</ele><time>2026-05-03T10:18:26.335Z</time></trkpt><trkpt lat="42.303807" lon="14.2615443"><ele>133.0</ele><time>2026-05-03T10:18:27.338Z</time></trkpt><trkpt lat="42.3038818" lon="14.2615021"><ele>131.85714285714286</ele><time>2026-05-03T10:18:28.337Z</time></trkpt><trkpt lat="42.3039403" lon="14.2614574"><ele>130.71428571428572</ele><time>2026-05-03T10:18:29.345Z</time></trkpt><trkpt lat="42.3039943" lon="14.2614001"><ele>129.57142857142856</ele><time>2026-05-03T10:18:30.334Z</time></trkpt><trkpt lat="42.3040291" lon="14.2613265"><ele>128.42857142857144</ele><time>2026-05-03T10:18:31.348Z</time></trkpt><trkpt lat="42.3040356" lon="14.2612403"><ele>127.28571428571429</ele><time>2026-05-03T10:18:32.346Z</time></trkpt><trkpt lat="42.304039" lon="14.261152"><ele>126.14285714285714</ele><time>2026-05-03T10:18:33.333Z</time></trkpt><trkpt lat="42.3040303" lon="14.261019"><ele>125.0</ele><time>2026-05-03T10:18:35.335Z</time></trkpt><trkpt lat="42.3040962" lon="14.2608857"><ele>125.0</ele><time>2026-05-03T10:18:40.34Z</time></trkpt><trkpt lat="42.3042309" lon="14.2609339"><ele>125.0</ele><time>2026-05-03T10:18:42.356Z</time></trkpt><trkpt lat="42.3043213" lon="14.2609782"><ele>125.0</ele><time>2026-05-03T10:18:43.334Z</time></trkpt><trkpt lat="42.3044052" lon="14.2610163"><ele>125.0</ele><time>2026-05-03T10:18:44.34Z</time></trkpt><trkpt lat="42.3044923" lon="14.2610533"><ele>125.0</ele><time>2026-05-03T10:18:45.35Z</time></trkpt><trkpt lat="42.3045752" lon="14.2610808"><ele>125.0</ele><time>2026-05-03T10:18:46.334Z</time></trkpt><trkpt lat="42.3046592" lon="14.2611034"><ele>125.0</ele><time>2026-05-03T10:18:47.343Z</time></trkpt><trkpt lat="42.304748" lon="14.2611007"><ele>125.0</ele><time>2026-05-03T10:18:48.357Z</time></trkpt><trkpt lat="42.3048387" lon="14.261081"><ele>125.0</ele><time>2026-05-03T10:18:49.368Z</time></trkpt><trkpt lat="42.3049295" lon="14.2610407"><ele>125.0</ele><time>2026-05-03T10:18:50.346Z</time></trkpt><trkpt lat="42.3050223" lon="14.2609792"><ele>122.6</ele><time>2026-05-03T10:18:51.359Z</time></trkpt><trkpt lat="42.3051171" lon="14.2609129"><ele>120.2</ele><time>2026-05-03T10:18:52.363Z</time></trkpt><trkpt lat="42.3052128" lon="14.2608411"><ele>117.80000000000001</ele><time>2026-05-03T10:18:53.347Z</time></trkpt><trkpt lat="42.3053112" lon="14.2607765"><ele>115.4</ele><time>2026-05-03T10:18:54.347Z</time></trkpt><trkpt lat="42.3054081" lon="14.2607216"><ele>113.0</ele><time>2026-05-03T10:18:55.337Z</time></trkpt><trkpt lat="42.3055127" lon="14.260679"><ele>111.0</ele><time>2026-05-03T10:18:56.339Z</time></trkpt><trkpt lat="42.3056853" lon="14.2605759"><ele>109.0</ele><time>2026-05-03T10:18:58.339Z</time></trkpt><trkpt lat="42.3057493" lon="14.260493"><ele>107.0</ele><time>2026-05-03T10:18:59.357Z</time></trkpt><trkpt lat="42.3057877" lon="14.2603801"><ele>105.0</ele><time>2026-05-03T10:19:00.36Z</time></trkpt><trkpt lat="42.3057894" lon="14.2602471"><ele>105.0</ele><time>2026-05-03T10:19:01.342Z</time></trkpt><trkpt lat="42.3057604" lon="14.2600914"><ele>105.0</ele><time>2026-05-03T10:19:02.345Z</time></trkpt><trkpt lat="42.3057257" lon="14.2599277"><ele>105.0</ele><time>2026-05-03T10:19:03.34Z</time></trkpt><trkpt lat="42.3056987" lon="14.2597561"><ele>105.0</ele><time>2026-05-03T10:19:04.337Z</time></trkpt><trkpt lat="42.3056845" lon="14.2595834"><ele>104.5</ele><time>2026-05-03T10:19:05.344Z</time></trkpt><trkpt lat="42.3056786" lon="14.2594021"><ele>104.0</ele><time>2026-05-03T10:19:06.335Z</time></trkpt><trkpt lat="42.3056899" lon="14.2592247"><ele>103.5</ele><time>2026-05-03T10:19:07.337Z</time></trkpt><trkpt lat="42.3057006" lon="14.2590569"><ele>103.0</ele><time>2026-05-03T10:19:08.335Z</time></trkpt><trkpt lat="42.3057114" lon="14.2588974"><ele>102.4</ele><time>2026-05-03T10:19:09.343Z</time></trkpt><trkpt lat="42.3057262" lon="14.2587653"><ele>101.80000000000001</ele><time>2026-05-03T10:19:10.345Z</time></trkpt><trkpt lat="42.3057381" lon="14.2586646"><ele>101.2</ele><time>2026-05-03T10:19:11.351Z</time></trkpt><trkpt lat="42.3058017" lon="14.2585487"><ele>100.6</ele><time>2026-05-03T10:19:13.353Z</time></trkpt><trkpt lat="42.3059129" lon="14.2585098"><ele>100.0</ele><time>2026-05-03T10:19:15.349Z</time></trkpt><trkpt lat="42.3059724" lon="14.2585417"><ele>100.0</ele><time>2026-05-03T10:19:16.348Z</time></trkpt><trkpt lat="42.3060342" lon="14.2586018"><ele>100.0</ele><time>2026-05-03T10:19:17.347Z</time></trkpt><trkpt lat="42.3061877" lon="14.2587844"><ele>100.0</ele><time>2026-05-03T10:19:19.352Z</time></trkpt><trkpt lat="42.3062797" lon="14.2588934"><ele>100.0</ele><time>2026-05-03T10:19:20.346Z</time></trkpt><trkpt lat="42.3063723" lon="14.2589965"><ele>98.25</ele><time>2026-05-03T10:19:21.354Z</time></trkpt><trkpt lat="42.3064684" lon="14.2591005"><ele>96.5</ele><time>2026-05-03T10:19:22.341Z</time></trkpt><trkpt lat="42.3065638" lon="14.2592069"><ele>94.75</ele><time>2026-05-03T10:19:23.362Z</time></trkpt><trkpt lat="42.3066635" lon="14.2593155"><ele>93.0</ele><time>2026-05-03T10:19:24.344Z</time></trkpt><trkpt lat="42.3067664" lon="14.2594259"><ele>93.0</ele><time>2026-05-03T10:19:25.346Z</time></trkpt><trkpt lat="42.3068726" lon="14.2595358"><ele>93.0</ele><time>2026-05-03T10:19:26.341Z</time></trkpt><trkpt lat="42.3069808" lon="14.2596507"><ele>93.0</ele><time>2026-05-03T10:19:27.345Z</time></trkpt><trkpt lat="42.3070894" lon="14.2597709"><ele>93.0</ele><time>2026-05-03T10:19:28.357Z</time></trkpt><trkpt lat="42.3072035" lon="14.2598961"><ele>93.25</ele><time>2026-05-03T10:19:29.355Z</time></trkpt><trkpt lat="42.3073177" lon="14.2600238"><ele>93.5</ele><time>2026-05-03T10:19:30.345Z</time></trkpt><trkpt lat="42.3074326" lon="14.260149"><ele>93.75</ele><time>2026-05-03T10:19:31.336Z</time></trkpt><trkpt lat="42.3075457" lon="14.2602722"><ele>94.0</ele><time>2026-05-03T10:19:32.346Z</time></trkpt><trkpt lat="42.3076535" lon="14.2603956"><ele>94.0</ele><time>2026-05-03T10:19:33.345Z</time></trkpt><trkpt lat="42.3077515" lon="14.2604983"><ele>94.0</ele><time>2026-05-03T10:19:34.347Z</time></trkpt><trkpt lat="42.3078411" lon="14.2605943"><ele>94.0</ele><time>2026-05-03T10:19:35.353Z</time></trkpt><trkpt lat="42.3079226" lon="14.2606831"><ele>94.0</ele><time>2026-05-03T10:19:36.329Z</time></trkpt><trkpt lat="42.3079983" lon="14.2607583"><ele>94.0</ele><time>2026-05-03T10:19:37.342Z</time></trkpt><trkpt lat="42.308065" lon="14.2608347"><ele>92.75</ele><time>2026-05-03T10:19:38.349Z</time></trkpt><trkpt lat="42.3081966" lon="14.2609615"><ele>91.5</ele><time>2026-05-03T10:19:40.336Z</time></trkpt><trkpt lat="42.3082523" lon="14.2610185"><ele>90.25</ele><time>2026-05-03T10:19:41.356Z</time></trkpt><trkpt lat="42.3083466" lon="14.2611285"><ele>89.0</ele><time>2026-05-03T10:19:43.347Z</time></trkpt><trkpt lat="42.308433" lon="14.2612319"><ele>89.0</ele><time>2026-05-03T10:19:45.335Z</time></trkpt><trkpt lat="42.3084865" lon="14.2613234"><ele>89.0</ele><time>2026-05-03T10:19:47.333Z</time></trkpt><trkpt lat="42.3085487" lon="14.2613775"><ele>89.0</ele><time>2026-05-03T10:19:50.361Z</time></trkpt><trkpt lat="42.3085338" lon="14.2612788"><ele>89.0</ele><time>2026-05-03T10:19:53.34Z</time></trkpt><trkpt lat="42.3084629" lon="14.2611852"><ele>89.0</ele><time>2026-05-03T10:19:55.343Z</time></trkpt><trkpt lat="42.3083823" lon="14.2611104"><ele>89.0</ele><time>2026-05-03T10:19:57.338Z</time></trkpt><trkpt lat="42.308324" lon="14.26105"><ele>89.0</ele><time>2026-05-03T10:19:58.378Z</time></trkpt><trkpt lat="42.308272" lon="14.2609898"><ele>89.0</ele><time>2026-05-03T10:19:59.366Z</time></trkpt><trkpt lat="42.3081167" lon="14.2608038"><ele>89.0</ele><time>2026-05-03T10:20:03.365Z</time></trkpt><trkpt lat="42.3080706" lon="14.2607375"><ele>89.0</ele><time>2026-05-03T10:20:04.337Z</time></trkpt><trkpt lat="42.3080112" lon="14.2606685"><ele>89.0</ele><time>2026-05-03T10:20:05.334Z</time></trkpt><trkpt lat="42.3079374" lon="14.2605821"><ele>90.25</ele><time>2026-05-03T10:20:06.334Z</time></trkpt><trkpt lat="42.3078549" lon="14.2604838"><ele>91.5</ele><time>2026-05-03T10:20:07.35Z</time></trkpt><trkpt lat="42.3077672" lon="14.2603736"><ele>92.75</ele><time>2026-05-03T10:20:08.331Z</time></trkpt><trkpt lat="42.3076594" lon="14.2602536"><ele>94.0</ele><time>2026-05-03T10:20:09.347Z</time></trkpt><trkpt lat="42.3075426" lon="14.2601382"><ele>94.0</ele><time>2026-05-03T10:20:10.334Z</time></trkpt><trkpt lat="42.307432" lon="14.2600142"><ele>94.0</ele><time>2026-05-03T10:20:11.352Z</time></trkpt><trkpt lat="42.3073248" lon="14.2598962"><ele>94.0</ele><time>2026-05-03T10:20:12.339Z</time></trkpt><trkpt lat="42.3072168" lon="14.259785"><ele>94.0</ele><time>2026-05-03T10:20:13.344Z</time></trkpt><trkpt lat="42.3071148" lon="14.2596778"><ele>93.75</ele><time>2026-05-03T10:20:14.342Z</time></trkpt><trkpt lat="42.3070109" lon="14.259573"><ele>93.5</ele><time>2026-05-03T10:20:15.342Z</time></trkpt><trkpt lat="42.3069104" lon="14.2594758"><ele>93.25</ele><time>2026-05-03T10:20:16.343Z</time></trkpt><trkpt lat="42.3068169" lon="14.2593724"><ele>93.0</ele><time>2026-05-03T10:20:17.35Z</time></trkpt><trkpt lat="42.3067292" lon="14.2592843"><ele>93.0</ele><time>2026-05-03T10:20:18.355Z</time></trkpt><trkpt lat="42.3066379" lon="14.2592001"><ele>93.0</ele><time>2026-05-03T10:20:19.349Z</time></trkpt><trkpt lat="42.3065496" lon="14.2591084"><ele>93.0</ele><time>2026-05-03T10:20:20.342Z</time></trkpt><trkpt lat="42.3063793" lon="14.258923"><ele>93.0</ele><time>2026-05-03T10:20:22.343Z</time></trkpt><trkpt lat="42.3062942" lon="14.2588219"><ele>94.4</ele><time>2026-05-03T10:20:23.328Z</time></trkpt><trkpt lat="42.3062025" lon="14.2587203"><ele>95.80000000000001</ele><time>2026-05-03T10:20:24.354Z</time></trkpt><trkpt lat="42.3061152" lon="14.2586267"><ele>97.2</ele><time>2026-05-03T10:20:25.343Z</time></trkpt><trkpt lat="42.3060274" lon="14.2585404"><ele>98.6</ele><time>2026-05-03T10:20:26.343Z</time></trkpt><trkpt lat="42.3059459" lon="14.2584567"><ele>100.0</ele><time>2026-05-03T10:20:27.34Z</time></trkpt><trkpt lat="42.3058705" lon="14.2583786"><ele>100.00000000000001</ele><time>2026-05-03T10:20:28.344Z</time></trkpt><trkpt lat="42.3058257" lon="14.2583009"><ele>100.0</ele><time>2026-05-03T10:20:29.355Z</time></trkpt><trkpt lat="42.3057402" lon="14.2581936"><ele>100.0</ele><time>2026-05-03T10:20:31.338Z</time></trkpt><trkpt lat="42.3056949" lon="14.2581306"><ele>100.0</ele><time>2026-05-03T10:20:32.36Z</time></trkpt><trkpt lat="42.3056527" lon="14.258063"><ele>100.00000000000001</ele><time>2026-05-03T10:20:33.362Z</time></trkpt><trkpt lat="42.3056073" lon="14.257903"><ele>100.0</ele><time>2026-05-03T10:20:35.362Z</time></trkpt><trkpt lat="42.305588" lon="14.2578098"><ele>99.4</ele><time>2026-05-03T10:20:36.338Z</time></trkpt><trkpt lat="42.305575" lon="14.2577252"><ele>98.8</ele><time>2026-05-03T10:20:37.35Z</time></trkpt><trkpt lat="42.3055551" lon="14.2575607"><ele>98.19999999999999</ele><time>2026-05-03T10:20:39.356Z</time></trkpt><trkpt lat="42.3055392" lon="14.2574725"><ele>97.6</ele><time>2026-05-03T10:20:40.357Z</time></trkpt><trkpt lat="42.3055202" lon="14.257385"><ele>97.0</ele><time>2026-05-03T10:20:41.345Z</time></trkpt><trkpt lat="42.3055027" lon="14.2571798"><ele>96.8</ele><time>2026-05-03T10:20:43.351Z</time></trkpt><trkpt lat="42.3055026" lon="14.2570527"><ele>96.6</ele><time>2026-05-03T10:20:44.342Z</time></trkpt><trkpt lat="42.3054951" lon="14.2569231"><ele>96.39999999999999</ele><time>2026-05-03T10:20:45.361Z</time></trkpt><trkpt lat="42.3054776" lon="14.2567975"><ele>96.19999999999999</ele><time>2026-05-03T10:20:46.35Z</time></trkpt><trkpt lat="42.3054581" lon="14.2566748"><ele>96.0</ele><time>2026-05-03T10:20:47.348Z</time></trkpt><trkpt lat="42.305446" lon="14.2565597"><ele>96.33333333333333</ele><time>2026-05-03T10:20:48.35Z</time></trkpt><trkpt lat="42.3054359" lon="14.2564451"><ele>96.66666666666666</ele><time>2026-05-03T10:20:49.334Z</time></trkpt><trkpt lat="42.3054298" lon="14.2563285"><ele>97.0</ele><time>2026-05-03T10:20:50.342Z</time></trkpt><trkpt lat="42.3054259" lon="14.2562229"><ele>97.33333333333333</ele><time>2026-05-03T10:20:51.342Z</time></trkpt><trkpt lat="42.3054509" lon="14.256137"><ele>97.66666666666666</ele><time>2026-05-03T10:20:52.341Z</time></trkpt><trkpt lat="42.3055075" lon="14.2560562"><ele>98.0</ele><time>2026-05-03T10:20:53.325Z</time></trkpt><trkpt lat="42.3055755" lon="14.255987"><ele>98.2</ele><time>2026-05-03T10:20:54.347Z</time></trkpt><trkpt lat="42.3056449" lon="14.2559275"><ele>98.4</ele><time>2026-05-03T10:20:55.336Z</time></trkpt><trkpt lat="42.3057272" lon="14.2558841"><ele>98.60000000000001</ele><time>2026-05-03T10:20:56.339Z</time></trkpt><trkpt lat="42.3058347" lon="14.255879"><ele>98.80000000000001</ele><time>2026-05-03T10:20:57.337Z</time></trkpt><trkpt lat="42.305957" lon="14.2559014"><ele>99.0</ele><time>2026-05-03T10:20:58.338Z</time></trkpt><trkpt lat="42.3060749" lon="14.2559429"><ele>99.0</ele><time>2026-05-03T10:20:59.329Z</time></trkpt><trkpt lat="42.3061866" lon="14.2559903"><ele>99.0</ele><time>2026-05-03T10:21:00.359Z</time></trkpt><trkpt lat="42.3062941" lon="14.2560532"><ele>99.0</ele><time>2026-05-03T10:21:01.345Z</time></trkpt><trkpt lat="42.3063937" lon="14.2561405"><ele>99.0</ele><time>2026-05-03T10:21:02.33Z</time></trkpt><trkpt lat="42.3066011" lon="14.2563764"><ele>99.75</ele><time>2026-05-03T10:21:04.337Z</time></trkpt><trkpt lat="42.3067045" lon="14.256491"><ele>100.5</ele><time>2026-05-03T10:21:05.353Z</time></trkpt><trkpt lat="42.3068098" lon="14.2566137"><ele>101.25</ele><time>2026-05-03T10:21:06.356Z</time></trkpt><trkpt lat="42.3069153" lon="14.2567454"><ele>102.0</ele><time>2026-05-03T10:21:07.341Z</time></trkpt><trkpt lat="42.3070186" lon="14.2568829"><ele>102.0</ele><time>2026-05-03T10:21:08.36Z</time></trkpt><trkpt lat="42.3071212" lon="14.2570168"><ele>102.0</ele><time>2026-05-03T10:21:09.344Z</time></trkpt><trkpt lat="42.3072217" lon="14.2571548"><ele>102.0</ele><time>2026-05-03T10:21:10.354Z</time></trkpt><trkpt lat="42.3073074" lon="14.2572971"><ele>102.0</ele><time>2026-05-03T10:21:11.347Z</time></trkpt><trkpt lat="42.3073752" lon="14.2574416"><ele>103.6</ele><time>2026-05-03T10:21:12.355Z</time></trkpt><trkpt lat="42.3074348" lon="14.2575881"><ele>105.19999999999999</ele><time>2026-05-03T10:21:13.351Z</time></trkpt><trkpt lat="42.307482" lon="14.2577257"><ele>106.8</ele><time>2026-05-03T10:21:14.341Z</time></trkpt><trkpt lat="42.3075043" lon="14.2578698"><ele>108.4</ele><time>2026-05-03T10:21:16.352Z</time></trkpt><trkpt lat="42.3075075" lon="14.2579849"><ele>110.0</ele><time>2026-05-03T10:21:18.327Z</time></trkpt><trkpt lat="42.3075328" lon="14.258067"><ele>108.8</ele><time>2026-05-03T10:21:19.342Z</time></trkpt><trkpt lat="42.3075633" lon="14.2581644"><ele>107.6</ele><time>2026-05-03T10:21:20.349Z</time></trkpt><trkpt lat="42.3075981" lon="14.2582793"><ele>106.4</ele><time>2026-05-03T10:21:21.341Z</time></trkpt><trkpt lat="42.3076387" lon="14.2583961"><ele>105.2</ele><time>2026-05-03T10:21:22.344Z</time></trkpt><trkpt lat="42.3076823" lon="14.2585097"><ele>104.0</ele><time>2026-05-03T10:21:23.344Z</time></trkpt><trkpt lat="42.3077834" lon="14.2587086"><ele>104.0</ele><time>2026-05-03T10:21:25.338Z</time></trkpt><trkpt lat="42.3078487" lon="14.2587893"><ele>104.0</ele><time>2026-05-03T10:21:26.343Z</time></trkpt><trkpt lat="42.3079249" lon="14.2588675"><ele>104.0</ele><time>2026-05-03T10:21:27.351Z</time></trkpt><trkpt lat="42.3080138" lon="14.2589317"><ele>104.0</ele><time>2026-05-03T10:21:28.34Z</time></trkpt><trkpt lat="42.3081081" lon="14.258986"><ele>104.0</ele><time>2026-05-03T10:21:29.341Z</time></trkpt><trkpt lat="42.3082042" lon="14.2590374"><ele>104.6</ele><time>2026-05-03T10:21:30.351Z</time></trkpt><trkpt lat="42.3083027" lon="14.259093"><ele>105.2</ele><time>2026-05-03T10:21:31.339Z</time></trkpt><trkpt lat="42.3083928" lon="14.2591436"><ele>105.79999999999998</ele><time>2026-05-03T10:21:32.346Z</time></trkpt><trkpt lat="42.3084799" lon="14.2592093"><ele>106.39999999999999</ele><time>2026-05-03T10:21:33.332Z</time></trkpt><trkpt lat="42.3085574" lon="14.2592937"><ele>107.0</ele><time>2026-05-03T10:21:34.361Z</time></trkpt><trkpt lat="42.3086316" lon="14.2593731"><ele>107.0</ele><time>2026-05-03T10:21:35.348Z</time></trkpt><trkpt lat="42.3087014" lon="14.2594542"><ele>106.99999999999999</ele><time>2026-05-03T10:21:36.333Z</time></trkpt><trkpt lat="42.3087735" lon="14.2595506"><ele>106.99999999999999</ele><time>2026-05-03T10:21:37.359Z</time></trkpt><trkpt lat="42.3088441" lon="14.2596529"><ele>107.0</ele><time>2026-05-03T10:21:38.347Z</time></trkpt><trkpt lat="42.3089106" lon="14.2597403"><ele>107.0</ele><time>2026-05-03T10:21:39.342Z</time></trkpt><trkpt lat="42.3089873" lon="14.2598015"><ele>104.6</ele><time>2026-05-03T10:21:40.344Z</time></trkpt><trkpt lat="42.3090831" lon="14.2598377"><ele>102.19999999999999</ele><time>2026-05-03T10:21:41.356Z</time></trkpt><trkpt lat="42.3091971" lon="14.2598512"><ele>99.8</ele><time>2026-05-03T10:21:42.34Z</time></trkpt><trkpt lat="42.309316" lon="14.2598496"><ele>97.4</ele><time>2026-05-03T10:21:43.346Z</time></trkpt><trkpt lat="42.3094265" lon="14.2598353"><ele>95.0</ele><time>2026-05-03T10:21:44.35Z</time></trkpt><trkpt lat="42.3096198" lon="14.2598301"><ele>95.0</ele><time>2026-05-03T10:21:46.339Z</time></trkpt><trkpt lat="42.3096983" lon="14.2598517"><ele>95.0</ele><time>2026-05-03T10:21:47.349Z</time></trkpt><trkpt lat="42.3097843" lon="14.25994"><ele>95.0</ele><time>2026-05-03T10:21:49.34Z</time></trkpt><trkpt lat="42.3097913" lon="14.2601022"><ele>95.0</ele><time>2026-05-03T10:21:51.353Z</time></trkpt><trkpt lat="42.3097713" lon="14.2602107"><ele>95.0</ele><time>2026-05-03T10:21:52.375Z</time></trkpt><trkpt lat="42.3097478" lon="14.2603121"><ele>94.4</ele><time>2026-05-03T10:21:53.354Z</time></trkpt><trkpt lat="42.3097419" lon="14.2604057"><ele>93.8</ele><time>2026-05-03T10:21:54.345Z</time></trkpt><trkpt lat="42.3097674" lon="14.2604939"><ele>93.19999999999999</ele><time>2026-05-03T10:21:55.364Z</time></trkpt><trkpt lat="42.3098165" lon="14.2605976"><ele>92.6</ele><time>2026-05-03T10:21:56.35Z</time></trkpt><trkpt lat="42.3098894" lon="14.2607085"><ele>92.0</ele><time>2026-05-03T10:21:57.356Z</time></trkpt><trkpt lat="42.3099693" lon="14.260813"><ele>92.0</ele><time>2026-05-03T10:21:58.338Z</time></trkpt><trkpt lat="42.3100575" lon="14.2609162"><ele>92.0</ele><time>2026-05-03T10:21:59.364Z</time></trkpt><trkpt lat="42.3101428" lon="14.2610177"><ele>92.0</ele><time>2026-05-03T10:22:00.348Z</time></trkpt><trkpt lat="42.310223" lon="14.2611038"><ele>92.0</ele><time>2026-05-03T10:22:01.342Z</time></trkpt><trkpt lat="42.310294" lon="14.2611879"><ele>92.0</ele><time>2026-05-03T10:22:02.348Z</time></trkpt><trkpt lat="42.310359" lon="14.2612797"><ele>92.0</ele><time>2026-05-03T10:22:03.354Z</time></trkpt><trkpt lat="42.3104241" lon="14.2613718"><ele>92.0</ele><time>2026-05-03T10:22:04.338Z</time></trkpt><trkpt lat="42.310491" lon="14.2614679"><ele>92.0</ele><time>2026-05-03T10:22:05.347Z</time></trkpt><trkpt lat="42.3106223" lon="14.2616715"><ele>92.0</ele><time>2026-05-03T10:22:07.341Z</time></trkpt><trkpt lat="42.3106841" lon="14.2617621"><ele>91.83333333333334</ele><time>2026-05-03T10:22:08.339Z</time></trkpt><trkpt lat="42.3107432" lon="14.2618482"><ele>91.66666666666667</ele><time>2026-05-03T10:22:09.334Z</time></trkpt><trkpt lat="42.3108098" lon="14.2619232"><ele>91.5</ele><time>2026-05-03T10:22:10.345Z</time></trkpt><trkpt lat="42.3108833" lon="14.2619869"><ele>91.33333333333333</ele><time>2026-05-03T10:22:11.341Z</time></trkpt><trkpt lat="42.3109616" lon="14.2620502"><ele>91.16666666666666</ele><time>2026-05-03T10:22:12.33Z</time></trkpt><trkpt lat="42.3110366" lon="14.2621117"><ele>91.0</ele><time>2026-05-03T10:22:13.367Z</time></trkpt><trkpt lat="42.3111166" lon="14.2621805"><ele>91.0</ele><time>2026-05-03T10:22:14.348Z</time></trkpt><trkpt lat="42.3111961" lon="14.2622545"><ele>91.0</ele><time>2026-05-03T10:22:15.35Z</time></trkpt><trkpt lat="42.3112764" lon="14.2623183"><ele>91.0</ele><time>2026-05-03T10:22:16.35Z</time></trkpt><trkpt lat="42.3113401" lon="14.2623874"><ele>91.0</ele><time>2026-05-03T10:22:17.347Z</time></trkpt><trkpt lat="42.3113945" lon="14.262467"><ele>91.0</ele><time>2026-05-03T10:22:18.354Z</time></trkpt><trkpt lat="42.3114537" lon="14.2625655"><ele>91.0</ele><time>2026-05-03T10:22:19.338Z</time></trkpt><trkpt lat="42.3115167" lon="14.2626654"><ele>90.66666666666666</ele><time>2026-05-03T10:22:20.334Z</time></trkpt><trkpt lat="42.311578" lon="14.2627621"><ele>90.33333333333333</ele><time>2026-05-03T10:22:21.349Z</time></trkpt><trkpt lat="42.3116287" lon="14.2628571"><ele>90.0</ele><time>2026-05-03T10:22:22.347Z</time></trkpt><trkpt lat="42.3116691" lon="14.2629457"><ele>89.66666666666667</ele><time>2026-05-03T10:22:23.346Z</time></trkpt><trkpt lat="42.3117107" lon="14.2630339"><ele>89.33333333333334</ele><time>2026-05-03T10:22:24.349Z</time></trkpt><trkpt lat="42.3117425" lon="14.2631408"><ele>89.0</ele><time>2026-05-03T10:22:25.345Z</time></trkpt><trkpt lat="42.3117674" lon="14.2632462"><ele>87.6</ele><time>2026-05-03T10:22:26.337Z</time></trkpt><trkpt lat="42.3117967" lon="14.2634229"><ele>86.2</ele><time>2026-05-03T10:22:29.351Z</time></trkpt><trkpt lat="42.3117896" lon="14.2635174"><ele>84.8</ele><time>2026-05-03T10:22:31.355Z</time></trkpt><trkpt lat="42.311777" lon="14.2636466"><ele>83.39999999999999</ele><time>2026-05-03T10:22:33.343Z</time></trkpt><trkpt lat="42.31176" lon="14.2637692"><ele>82.0</ele><time>2026-05-03T10:22:35.343Z</time></trkpt><trkpt lat="42.3117299" lon="14.2639095"><ele>82.66666666666666</ele><time>2026-05-03T10:22:37.342Z</time></trkpt><trkpt lat="42.3116727" lon="14.2639781"><ele>83.33333333333333</ele><time>2026-05-03T10:22:39.35Z</time></trkpt><trkpt lat="42.3116154" lon="14.2640429"><ele>84.0</ele><time>2026-05-03T10:22:41.362Z</time></trkpt><trkpt lat="42.3115804" lon="14.2641145"><ele>84.66666666666667</ele><time>2026-05-03T10:22:42.345Z</time></trkpt><trkpt lat="42.3115407" lon="14.2642083"><ele>85.33333333333334</ele><time>2026-05-03T10:22:43.343Z</time></trkpt><trkpt lat="42.3114997" lon="14.2643033"><ele>86.0</ele><time>2026-05-03T10:22:44.333Z</time></trkpt><trkpt lat="42.3114645" lon="14.2643993"><ele>86.0</ele><time>2026-05-03T10:22:46.348Z</time></trkpt><trkpt lat="42.3114533" lon="14.2644862"><ele>86.0</ele><time>2026-05-03T10:22:50.342Z</time></trkpt><trkpt lat="42.3116303" lon="14.2646092"><ele>86.0</ele><time>2026-05-03T10:22:57.347Z</time></trkpt><trkpt lat="42.3116818" lon="14.2646659"><ele>86.0</ele><time>2026-05-03T10:22:58.346Z</time></trkpt><trkpt lat="42.3117593" lon="14.2647682"><ele>86.0</ele><time>2026-05-03T10:23:00.362Z</time></trkpt><trkpt lat="42.3118334" lon="14.2648716"><ele>86.0</ele><time>2026-05-03T10:23:02.36Z</time></trkpt><trkpt lat="42.3118799" lon="14.2649422"><ele>86.0</ele><time>2026-05-03T10:23:04.335Z</time></trkpt><trkpt lat="42.3118583" lon="14.2648579"><ele>86.0</ele><time>2026-05-03T10:23:08.343Z</time></trkpt><trkpt lat="42.3117947" lon="14.2647787"><ele>86.0</ele><time>2026-05-03T10:23:10.33Z</time></trkpt><trkpt lat="42.3117242" lon="14.2646861"><ele>86.0</ele><time>2026-05-03T10:23:12.336Z</time></trkpt><trkpt lat="42.3115673" lon="14.2645039"><ele>86.0</ele><time>2026-05-03T10:23:16.337Z</time></trkpt><trkpt lat="42.3114866" lon="14.2644147"><ele>86.0</ele><time>2026-05-03T10:24:20.331Z</time></trkpt><trkpt lat="42.3113694" lon="14.2642994"><ele>86.0</ele><time>2026-05-03T10:24:22.345Z</time></trkpt><trkpt lat="42.3113054" lon="14.2642331"><ele>86.0</ele><time>2026-05-03T10:24:23.339Z</time></trkpt><trkpt lat="42.3112354" lon="14.2641569"><ele>86.0</ele><time>2026-05-03T10:24:24.355Z</time></trkpt><trkpt lat="42.3111626" lon="14.2640736"><ele>86.4</ele><time>2026-05-03T10:24:25.341Z</time></trkpt><trkpt lat="42.3110823" lon="14.2639853"><ele>86.8</ele><time>2026-05-03T10:24:26.342Z</time></trkpt><trkpt lat="42.3109936" lon="14.2638937"><ele>87.2</ele><time>2026-05-03T10:24:27.348Z</time></trkpt><trkpt lat="42.3109066" lon="14.2638022"><ele>87.60000000000001</ele><time>2026-05-03T10:24:28.36Z</time></trkpt><trkpt lat="42.3108158" lon="14.2637073"><ele>88.0</ele><time>2026-05-03T10:24:29.332Z</time></trkpt><trkpt lat="42.3107264" lon="14.2636063"><ele>88.0</ele><time>2026-05-03T10:24:30.35Z</time></trkpt><trkpt lat="42.3106488" lon="14.263511"><ele>88.0</ele><time>2026-05-03T10:24:31.346Z</time></trkpt><trkpt lat="42.3105766" lon="14.2634297"><ele>88.0</ele><time>2026-05-03T10:24:32.36Z</time></trkpt><trkpt lat="42.3105069" lon="14.2633521"><ele>88.0</ele><time>2026-05-03T10:24:33.356Z</time></trkpt><trkpt lat="42.3104389" lon="14.2632754"><ele>88.0</ele><time>2026-05-03T10:24:34.331Z</time></trkpt><trkpt lat="42.3103765" lon="14.2631993"><ele>88.0</ele><time>2026-05-03T10:24:35.354Z</time></trkpt><trkpt lat="42.31032" lon="14.2631297"><ele>88.0</ele><time>2026-05-03T10:24:36.342Z</time></trkpt><trkpt lat="42.310266" lon="14.2630752"><ele>88.0</ele><time>2026-05-03T10:24:37.337Z</time></trkpt><trkpt lat="42.3101653" lon="14.2629772"><ele>88.0</ele><time>2026-05-03T10:24:39.353Z</time></trkpt><trkpt lat="42.3100762" lon="14.2628789"><ele>88.0</ele><time>2026-05-03T10:24:41.344Z</time></trkpt><trkpt lat="42.3100213" lon="14.262879"><ele>88.0</ele><time>2026-05-03T10:28:05.346Z</time></trkpt><trkpt lat="42.31008" lon="14.2629605"><ele>88.0</ele><time>2026-05-03T10:28:06.339Z</time></trkpt><trkpt lat="42.310135" lon="14.2630483"><ele>88.0</ele><time>2026-05-03T10:28:07.377Z</time></trkpt><trkpt lat="42.3101974" lon="14.2631282"><ele>88.0</ele><time>2026-05-03T10:28:08.339Z</time></trkpt><trkpt lat="42.3103347" lon="14.2632812"><ele>88.0</ele><time>2026-05-03T10:28:10.356Z</time></trkpt><trkpt lat="42.3104061" lon="14.2633655"><ele>88.0</ele><time>2026-05-03T10:28:11.345Z</time></trkpt><trkpt lat="42.3104775" lon="14.2634513"><ele>88.0</ele><time>2026-05-03T10:28:12.336Z</time></trkpt><trkpt lat="42.3105462" lon="14.2635285"><ele>88.0</ele><time>2026-05-03T10:28:13.339Z</time></trkpt><trkpt lat="42.310612" lon="14.2635995"><ele>88.0</ele><time>2026-05-03T10:28:14.339Z</time></trkpt><trkpt lat="42.3106799" lon="14.2636668"><ele>88.0</ele><time>2026-05-03T10:28:15.349Z</time></trkpt><trkpt lat="42.3107534" lon="14.2637347"><ele>88.0</ele><time>2026-05-03T10:28:16.328Z</time></trkpt><trkpt lat="42.3108246" lon="14.2638063"><ele>88.0</ele><time>2026-05-03T10:28:17.343Z</time></trkpt><trkpt lat="42.3109076" lon="14.2638902"><ele>90.0</ele><time>2026-05-03T10:28:18.356Z</time></trkpt><trkpt lat="42.3109946" lon="14.2639853"><ele>92.0</ele><time>2026-05-03T10:28:19.33Z</time></trkpt><trkpt lat="42.3110684" lon="14.264068"><ele>94.0</ele><time>2026-05-03T10:28:20.367Z</time></trkpt><trkpt lat="42.3111411" lon="14.264139"><ele>96.0</ele><time>2026-05-03T10:28:21.388Z</time></trkpt><trkpt lat="42.3112083" lon="14.2642103"><ele>98.0</ele><time>2026-05-03T10:28:22.358Z</time></trkpt><trkpt lat="42.311271" lon="14.264274"><ele>98.0</ele><time>2026-05-03T10:28:23.337Z</time></trkpt><trkpt lat="42.3113281" lon="14.2643357"><ele>98.0</ele><time>2026-05-03T10:28:24.36Z</time></trkpt><trkpt lat="42.3113803" lon="14.2643859"><ele>98.0</ele><time>2026-05-03T10:28:25.327Z</time></trkpt><trkpt lat="42.3114551" lon="14.2644204"><ele>98.0</ele><time>2026-05-03T10:28:27.342Z</time></trkpt><trkpt lat="42.3115062" lon="14.2643293"><ele>98.0</ele><time>2026-05-03T10:28:30.349Z</time></trkpt><trkpt lat="42.3116243" lon="14.2640436"><ele>95.99999999999999</ele><time>2026-05-03T10:28:34.33Z</time></trkpt><trkpt lat="42.3116967" lon="14.2639472"><ele>94.0</ele><time>2026-05-03T10:28:36.335Z</time></trkpt><trkpt lat="42.3117648" lon="14.2639874"><ele>92.0</ele><time>2026-05-03T10:28:40.368Z</time></trkpt><trkpt lat="42.3118066" lon="14.2641001"><ele>90.0</ele><time>2026-05-03T10:28:42.346Z</time></trkpt><trkpt lat="42.3118643" lon="14.2641619"><ele>88.0</ele><time>2026-05-03T10:28:44.328Z</time></trkpt><trkpt lat="42.3119089" lon="14.2642324"><ele>86.0</ele><time>2026-05-03T10:28:46.373Z</time></trkpt><trkpt lat="42.3119725" lon="14.2643384"><ele>86.0</ele><time>2026-05-03T10:28:48.339Z</time></trkpt><trkpt lat="42.3120725" lon="14.2644633"><ele>86.0</ele><time>2026-05-03T10:28:50.34Z</time></trkpt><trkpt lat="42.3121253" lon="14.264544"><ele>86.0</ele><time>2026-05-03T10:28:51.356Z</time></trkpt><trkpt lat="42.3122134" lon="14.2647053"><ele>86.0</ele><time>2026-05-03T10:28:53.361Z</time></trkpt><trkpt lat="42.3122645" lon="14.2647815"><ele>86.0</ele><time>2026-05-03T10:28:54.335Z</time></trkpt><trkpt lat="42.3123084" lon="14.2648469"><ele>85.5</ele><time>2026-05-03T10:28:55.328Z</time></trkpt><trkpt lat="42.3123769" lon="14.2649718"><ele>85.0</ele><time>2026-05-03T10:28:57.354Z</time></trkpt><trkpt lat="42.3124427" lon="14.265084"><ele>84.5</ele><time>2026-05-03T10:28:59.336Z</time></trkpt><trkpt lat="42.3124948" lon="14.2651787"><ele>84.0</ele><time>2026-05-03T10:29:01.353Z</time></trkpt><trkpt lat="42.3125241" lon="14.2652596"><ele>83.5</ele><time>2026-05-03T10:29:03.332Z</time></trkpt><trkpt lat="42.3125665" lon="14.2653405"><ele>83.0</ele><time>2026-05-03T10:29:05.33Z</time></trkpt><trkpt lat="42.3126195" lon="14.2654318"><ele>83.0</ele><time>2026-05-03T10:29:08.335Z</time></trkpt><trkpt lat="42.3126756" lon="14.2655177"><ele>83.0</ele><time>2026-05-03T10:29:10.335Z</time></trkpt><trkpt lat="42.3127234" lon="14.2656036"><ele>83.0</ele><time>2026-05-03T10:29:17.381Z</time></trkpt><trkpt lat="42.3128468" lon="14.2657104"><ele>83.0</ele><time>2026-05-03T10:29:23.347Z</time></trkpt><trkpt lat="42.3129483" lon="14.2658288"><ele>83.0</ele><time>2026-05-03T10:29:27.348Z</time></trkpt><trkpt lat="42.3130577" lon="14.2658794"><ele>83.2</ele><time>2026-05-03T10:29:29.364Z</time></trkpt><trkpt lat="42.3131667" lon="14.2659081"><ele>83.4</ele><time>2026-05-03T10:29:31.321Z</time></trkpt><trkpt lat="42.3132658" lon="14.2659378"><ele>83.60000000000001</ele><time>2026-05-03T10:29:33.334Z</time></trkpt><trkpt lat="42.3133477" lon="14.2659533"><ele>83.80000000000001</ele><time>2026-05-03T10:29:35.334Z</time></trkpt><trkpt lat="42.3134124" lon="14.2659678"><ele>84.0</ele><time>2026-05-03T10:29:42.348Z</time></trkpt><trkpt lat="42.3136309" lon="14.2660015"><ele>84.0</ele><time>2026-05-03T10:29:45.353Z</time></trkpt><trkpt lat="42.3137137" lon="14.2660077"><ele>84.0</ele><time>2026-05-03T10:29:46.365Z</time></trkpt><trkpt lat="42.3138033" lon="14.2660038"><ele>84.0</ele><time>2026-05-03T10:29:47.331Z</time></trkpt><trkpt lat="42.3138906" lon="14.2660082"><ele>84.0</ele><time>2026-05-03T10:29:48.34Z</time></trkpt><trkpt lat="42.3139714" lon="14.2660378"><ele>84.0</ele><time>2026-05-03T10:29:49.335Z</time></trkpt><trkpt lat="42.3140506" lon="14.2660892"><ele>84.0</ele><time>2026-05-03T10:29:50.344Z</time></trkpt><trkpt lat="42.3141054" lon="14.2661728"><ele>83.5</ele><time>2026-05-03T10:29:51.364Z</time></trkpt><trkpt lat="42.3141488" lon="14.2662825"><ele>83.0</ele><time>2026-05-03T10:29:52.352Z</time></trkpt><trkpt lat="42.3141878" lon="14.2664025"><ele>82.5</ele><time>2026-05-03T10:29:53.354Z</time></trkpt><trkpt lat="42.3142657" lon="14.2666407"><ele>82.0</ele><time>2026-05-03T10:29:55.335Z</time></trkpt><trkpt lat="42.3142998" lon="14.2667561"><ele>82.66666666666666</ele><time>2026-05-03T10:29:56.33Z</time></trkpt><trkpt lat="42.3143363" lon="14.2668632"><ele>83.33333333333333</ele><time>2026-05-03T10:29:57.345Z</time></trkpt><trkpt lat="42.3143707" lon="14.2669694"><ele>84.0</ele><time>2026-05-03T10:29:58.359Z</time></trkpt><trkpt lat="42.3144094" lon="14.2670745"><ele>84.66666666666667</ele><time>2026-05-03T10:29:59.34Z</time></trkpt><trkpt lat="42.3144516" lon="14.2671742"><ele>85.33333333333334</ele><time>2026-05-03T10:30:00.343Z</time></trkpt><trkpt lat="42.3144949" lon="14.2672873"><ele>86.0</ele><time>2026-05-03T10:30:01.366Z</time></trkpt><trkpt lat="42.3145396" lon="14.2674094"><ele>85.6</ele><time>2026-05-03T10:30:02.339Z</time></trkpt><trkpt lat="42.3145782" lon="14.2675248"><ele>85.19999999999999</ele><time>2026-05-03T10:30:03.354Z</time></trkpt><trkpt lat="42.3146483" lon="14.2677542"><ele>84.80000000000001</ele><time>2026-05-03T10:30:05.369Z</time></trkpt><trkpt lat="42.3146799" lon="14.2678611"><ele>84.4</ele><time>2026-05-03T10:30:06.335Z</time></trkpt><trkpt lat="42.3147127" lon="14.2679627"><ele>84.0</ele><time>2026-05-03T10:30:07.348Z</time></trkpt><trkpt lat="42.3147555" lon="14.2680802"><ele>84.66666666666667</ele><time>2026-05-03T10:30:08.348Z</time></trkpt><trkpt lat="42.3148038" lon="14.2682031"><ele>85.33333333333333</ele><time>2026-05-03T10:30:09.342Z</time></trkpt><trkpt lat="42.3148455" lon="14.268312"><ele>86.0</ele><time>2026-05-03T10:30:10.334Z</time></trkpt><trkpt lat="42.3148789" lon="14.2684034"><ele>86.66666666666666</ele><time>2026-05-03T10:30:11.347Z</time></trkpt><trkpt lat="42.3149053" lon="14.268489"><ele>87.33333333333333</ele><time>2026-05-03T10:30:12.361Z</time></trkpt><trkpt lat="42.3149308" lon="14.2685884"><ele>88.0</ele><time>2026-05-03T10:30:14.328Z</time></trkpt><trkpt lat="42.3149657" lon="14.2687029"><ele>88.0</ele><time>2026-05-03T10:30:17.34Z</time></trkpt><trkpt lat="42.3150491" lon="14.268817"><ele>88.0</ele><time>2026-05-03T10:30:19.347Z</time></trkpt><trkpt lat="42.3151374" lon="14.2688562"><ele>88.0</ele><time>2026-05-03T10:30:21.349Z</time></trkpt><trkpt lat="42.3152136" lon="14.2687709"><ele>88.0</ele><time>2026-05-03T10:30:23.349Z</time></trkpt><trkpt lat="42.3152679" lon="14.2687056"><ele>88.0</ele><time>2026-05-03T10:30:24.333Z</time></trkpt><trkpt lat="42.3153993" lon="14.2685477"><ele>88.0</ele><time>2026-05-03T10:30:26.336Z</time></trkpt><trkpt lat="42.315463" lon="14.2684702"><ele>88.0</ele><time>2026-05-03T10:30:27.346Z</time></trkpt><trkpt lat="42.3155245" lon="14.2684053"><ele>88.0</ele><time>2026-05-03T10:30:28.346Z</time></trkpt><trkpt lat="42.3155857" lon="14.2683455"><ele>88.0</ele><time>2026-05-03T10:30:29.336Z</time></trkpt><trkpt lat="42.3156446" lon="14.2682861"><ele>88.0</ele><time>2026-05-03T10:30:30.351Z</time></trkpt><trkpt lat="42.315701" lon="14.268226"><ele>88.0</ele><time>2026-05-03T10:30:31.344Z</time></trkpt><trkpt lat="42.3157567" lon="14.2681687"><ele>87.0</ele><time>2026-05-03T10:30:32.346Z</time></trkpt><trkpt lat="42.3158157" lon="14.2681186"><ele>86.0</ele><time>2026-05-03T10:30:33.351Z</time></trkpt><trkpt lat="42.3158785" lon="14.2680837"><ele>85.0</ele><time>2026-05-03T10:30:34.339Z</time></trkpt><trkpt lat="42.3159492" lon="14.2680689"><ele>84.0</ele><time>2026-05-03T10:30:35.354Z</time></trkpt><trkpt lat="42.3160205" lon="14.2680608"><ele>83.0</ele><time>2026-05-03T10:30:36.337Z</time></trkpt><trkpt lat="42.3160975" lon="14.268057"><ele>82.0</ele><time>2026-05-03T10:30:37.362Z</time></trkpt><trkpt lat="42.3162229" lon="14.2680354"><ele>81.6</ele><time>2026-05-03T10:30:39.349Z</time></trkpt><trkpt lat="42.3163033" lon="14.2680332"><ele>81.19999999999999</ele><time>2026-05-03T10:30:40.362Z</time></trkpt><trkpt lat="42.3164058" lon="14.2680297"><ele>80.8</ele><time>2026-05-03T10:30:41.323Z</time></trkpt><trkpt lat="42.3165236" lon="14.2680317"><ele>80.4</ele><time>2026-05-03T10:30:42.359Z</time></trkpt><trkpt lat="42.3166453" lon="14.2680404"><ele>80.0</ele><time>2026-05-03T10:30:43.335Z</time></trkpt><trkpt lat="42.3167582" lon="14.2680435"><ele>80.4</ele><time>2026-05-03T10:30:44.339Z</time></trkpt><trkpt lat="42.3168541" lon="14.2680395"><ele>80.8</ele><time>2026-05-03T10:30:45.34Z</time></trkpt><trkpt lat="42.3170307" lon="14.2680491"><ele>81.19999999999999</ele><time>2026-05-03T10:30:47.337Z</time></trkpt><trkpt lat="42.3171079" lon="14.2680503"><ele>81.6</ele><time>2026-05-03T10:30:48.352Z</time></trkpt><trkpt lat="42.3171784" lon="14.2680363"><ele>82.0</ele><time>2026-05-03T10:30:49.347Z</time></trkpt><trkpt lat="42.3172612" lon="14.2680181"><ele>82.0</ele><time>2026-05-03T10:30:50.349Z</time></trkpt><trkpt lat="42.3173529" lon="14.2679968"><ele>82.0</ele><time>2026-05-03T10:30:51.33Z</time></trkpt><trkpt lat="42.3174454" lon="14.2679727"><ele>82.0</ele><time>2026-05-03T10:30:52.356Z</time></trkpt><trkpt lat="42.3175269" lon="14.267958"><ele>82.0</ele><time>2026-05-03T10:30:53.348Z</time></trkpt><trkpt lat="42.3175974" lon="14.2679436"><ele>82.0</ele><time>2026-05-03T10:30:54.348Z</time></trkpt><trkpt lat="42.3176625" lon="14.2679312"><ele>82.0</ele><time>2026-05-03T10:30:55.333Z</time></trkpt><trkpt lat="42.3177688" lon="14.2678948"><ele>82.0</ele><time>2026-05-03T10:30:57.348Z</time></trkpt><trkpt lat="42.3178481" lon="14.2679213"><ele>82.0</ele><time>2026-05-03T10:30:59.355Z</time></trkpt><trkpt lat="42.3179238" lon="14.2679193"><ele>82.0</ele><time>2026-05-03T10:31:01.337Z</time></trkpt><trkpt lat="42.3179878" lon="14.267899"><ele>82.0</ele><time>2026-05-03T10:31:02.351Z</time></trkpt><trkpt lat="42.3180639" lon="14.2678658"><ele>82.0</ele><time>2026-05-03T10:31:03.343Z</time></trkpt><trkpt lat="42.318139" lon="14.2678038"><ele>82.0</ele><time>2026-05-03T10:31:04.342Z</time></trkpt><trkpt lat="42.3181985" lon="14.2677373"><ele>81.75</ele><time>2026-05-03T10:31:05.343Z</time></trkpt><trkpt lat="42.3182637" lon="14.2676687"><ele>81.5</ele><time>2026-05-03T10:31:06.336Z</time></trkpt><trkpt lat="42.3183927" lon="14.2674939"><ele>81.25</ele><time>2026-05-03T10:31:08.334Z</time></trkpt><trkpt lat="42.3184573" lon="14.26739"><ele>81.0</ele><time>2026-05-03T10:31:09.337Z</time></trkpt><trkpt lat="42.3185103" lon="14.2672928"><ele>82.5</ele><time>2026-05-03T10:31:10.342Z</time></trkpt><trkpt lat="42.3185428" lon="14.2672074"><ele>84.0</ele><time>2026-05-03T10:31:11.348Z</time></trkpt><trkpt lat="42.3185705" lon="14.2671289"><ele>85.5</ele><time>2026-05-03T10:31:12.367Z</time></trkpt><trkpt lat="42.3186035" lon="14.2670406"><ele>87.0</ele><time>2026-05-03T10:31:13.365Z</time></trkpt><trkpt lat="42.318637" lon="14.2669234"><ele>88.5</ele><time>2026-05-03T10:31:14.342Z</time></trkpt><trkpt lat="42.3186581" lon="14.2668185"><ele>90.0</ele><time>2026-05-03T10:31:15.326Z</time></trkpt><trkpt lat="42.3187019" lon="14.2666639"><ele>90.0</ele><time>2026-05-03T10:31:17.351Z</time></trkpt><trkpt lat="42.3187584" lon="14.2666023"><ele>90.0</ele><time>2026-05-03T10:31:18.351Z</time></trkpt><trkpt lat="42.3188204" lon="14.266544"><ele>90.0</ele><time>2026-05-03T10:31:19.329Z</time></trkpt><trkpt lat="42.3188797" lon="14.2664905"><ele>90.0</ele><time>2026-05-03T10:31:20.34Z</time></trkpt><trkpt lat="42.3189315" lon="14.2664361"><ele>90.0</ele><time>2026-05-03T10:31:21.343Z</time></trkpt><trkpt lat="42.3190314" lon="14.2663234"><ele>90.0</ele><time>2026-05-03T10:31:23.335Z</time></trkpt><trkpt lat="42.3191084" lon="14.2662589"><ele>92.75</ele><time>2026-05-03T10:31:24.341Z</time></trkpt><trkpt lat="42.3191919" lon="14.266192"><ele>95.5</ele><time>2026-05-03T10:31:25.341Z</time></trkpt><trkpt lat="42.3192763" lon="14.2661199"><ele>98.25</ele><time>2026-05-03T10:31:26.351Z</time></trkpt><trkpt lat="42.3193667" lon="14.2660402"><ele>101.0</ele><time>2026-05-03T10:31:27.334Z</time></trkpt><trkpt lat="42.3195468" lon="14.2658764"><ele>101.0</ele><time>2026-05-03T10:31:29.329Z</time></trkpt><trkpt lat="42.3196358" lon="14.265787"><ele>101.0</ele><time>2026-05-03T10:31:30.335Z</time></trkpt><trkpt lat="42.319716" lon="14.2657047"><ele>101.0</ele><time>2026-05-03T10:31:31.354Z</time></trkpt><trkpt lat="42.3197973" lon="14.2656389"><ele>101.0</ele><time>2026-05-03T10:31:32.34Z</time></trkpt><trkpt lat="42.3198905" lon="14.2655813"><ele>101.0</ele><time>2026-05-03T10:31:33.351Z</time></trkpt><trkpt lat="42.3199917" lon="14.2655353"><ele>103.4</ele><time>2026-05-03T10:31:34.349Z</time></trkpt><trkpt lat="42.3200806" lon="14.2655144"><ele>105.8</ele><time>2026-05-03T10:31:35.341Z</time></trkpt><trkpt lat="42.3201534" lon="14.265491"><ele>108.20000000000002</ele><time>2026-05-03T10:31:37.349Z</time></trkpt><trkpt lat="42.3201872" lon="14.2653863"><ele>110.60000000000001</ele><time>2026-05-03T10:31:52.326Z</time></trkpt><trkpt lat="42.320247" lon="14.2651944"><ele>113.0</ele><time>2026-05-03T10:31:54.351Z</time></trkpt><trkpt lat="42.320293" lon="14.2650837"><ele>112.99999999999999</ele><time>2026-05-03T10:31:55.347Z</time></trkpt><trkpt lat="42.3203339" lon="14.26498"><ele>113.0</ele><time>2026-05-03T10:31:56.374Z</time></trkpt><trkpt lat="42.3203742" lon="14.2649092"><ele>113.0</ele><time>2026-05-03T10:31:57.358Z</time></trkpt><trkpt lat="42.3204763" lon="14.2648168"><ele>113.0</ele><time>2026-05-03T10:31:59.336Z</time></trkpt><trkpt lat="42.3205341" lon="14.264756"><ele>112.99999999999999</ele><time>2026-05-03T10:32:00.337Z</time></trkpt><trkpt lat="42.3205869" lon="14.2647039"><ele>113.0</ele><time>2026-05-03T10:32:01.345Z</time></trkpt><trkpt lat="42.3206598" lon="14.2646223"><ele>113.99999999999999</ele><time>2026-05-03T10:32:03.348Z</time></trkpt><trkpt lat="42.3207315" lon="14.2645454"><ele>115.0</ele><time>2026-05-03T10:32:05.356Z</time></trkpt><trkpt lat="42.3208026" lon="14.2644687"><ele>116.0</ele><time>2026-05-03T10:32:07.343Z</time></trkpt><trkpt lat="42.3208588" lon="14.2644143"><ele>117.0</ele><time>2026-05-03T10:32:09.348Z</time></trkpt><trkpt lat="42.3209313" lon="14.2643444"><ele>117.99999999999999</ele><time>2026-05-03T10:32:12.341Z</time></trkpt><trkpt lat="42.3209881" lon="14.2642869"><ele>119.0</ele><time>2026-05-03T10:32:17.348Z</time></trkpt><trkpt lat="42.3211133" lon="14.2641674"><ele>119.0</ele><time>2026-05-03T10:32:26.353Z</time></trkpt><trkpt lat="42.3212042" lon="14.2640917"><ele>119.0</ele><time>2026-05-03T10:32:28.333Z</time></trkpt><trkpt lat="42.3212699" lon="14.2640135"><ele>119.0</ele><time>2026-05-03T10:32:30.329Z</time></trkpt><trkpt lat="42.321352" lon="14.2639222"><ele>119.0</ele><time>2026-05-03T10:32:32.341Z</time></trkpt><trkpt lat="42.3214055" lon="14.2638528"><ele>119.0</ele><time>2026-05-03T10:32:33.336Z</time></trkpt><trkpt lat="42.3214687" lon="14.2637642"><ele>121.33333333333333</ele><time>2026-05-03T10:32:34.357Z</time></trkpt><trkpt lat="42.3215245" lon="14.263691"><ele>123.66666666666666</ele><time>2026-05-03T10:32:35.342Z</time></trkpt><trkpt lat="42.3215723" lon="14.263627"><ele>126.0</ele><time>2026-05-03T10:32:36.335Z</time></trkpt><trkpt lat="42.3216228" lon="14.2635638"><ele>128.33333333333334</ele><time>2026-05-03T10:32:37.336Z</time></trkpt><trkpt lat="42.3216747" lon="14.2634979"><ele>130.66666666666669</ele><time>2026-05-03T10:32:38.359Z</time></trkpt><trkpt lat="42.321748" lon="14.263356"><ele>133.0</ele><time>2026-05-03T10:32:40.349Z</time></trkpt><trkpt lat="42.3217365" lon="14.2632152"><ele>133.0</ele><time>2026-05-03T10:32:42.346Z</time></trkpt><trkpt lat="42.3216897" lon="14.2631265"><ele>133.0</ele><time>2026-05-03T10:32:44.351Z</time></trkpt><trkpt lat="42.3216378" lon="14.2630714"><ele>133.0</ele><time>2026-05-03T10:32:46.341Z</time></trkpt><trkpt lat="42.3215809" lon="14.2630258"><ele>133.0</ele><time>2026-05-03T10:33:39.33Z</time></trkpt><trkpt lat="42.3214377" lon="14.2628644"><ele>133.0</ele><time>2026-05-03T10:33:41.359Z</time></trkpt><trkpt lat="42.3213567" lon="14.2627726"><ele>135.20000000000002</ele><time>2026-05-03T10:33:42.335Z</time></trkpt><trkpt lat="42.3212881" lon="14.2626878"><ele>137.4</ele><time>2026-05-03T10:33:43.349Z</time></trkpt><trkpt lat="42.3212185" lon="14.2626009"><ele>139.60000000000002</ele><time>2026-05-03T10:33:44.338Z</time></trkpt><trkpt lat="42.3211559" lon="14.2625166"><ele>141.8</ele><time>2026-05-03T10:33:45.323Z</time></trkpt><trkpt lat="42.3210893" lon="14.2624361"><ele>144.0</ele><time>2026-05-03T10:33:46.346Z</time></trkpt><trkpt lat="42.3210165" lon="14.2623669"><ele>144.00000000000003</ele><time>2026-05-03T10:33:47.334Z</time></trkpt><trkpt lat="42.3209369" lon="14.2623185"><ele>144.0</ele><time>2026-05-03T10:33:48.328Z</time></trkpt><trkpt lat="42.3208701" lon="14.2622789"><ele>144.0</ele><time>2026-05-03T10:33:49.341Z</time></trkpt><trkpt lat="42.320806" lon="14.2622465"><ele>144.0</ele><time>2026-05-03T10:33:50.335Z</time></trkpt><trkpt lat="42.3207387" lon="14.2622184"><ele>144.0</ele><time>2026-05-03T10:33:51.34Z</time></trkpt><trkpt lat="42.3206671" lon="14.2621937"><ele>144.00000000000003</ele><time>2026-05-03T10:33:52.328Z</time></trkpt><trkpt lat="42.3206003" lon="14.2621673"><ele>144.0</ele><time>2026-05-03T10:33:53.343Z</time></trkpt><trkpt lat="42.3205288" lon="14.2621369"><ele>147.2</ele><time>2026-05-03T10:33:54.333Z</time></trkpt><trkpt lat="42.3204377" lon="14.2620994"><ele>150.4</ele><time>2026-05-03T10:33:55.323Z</time></trkpt><trkpt lat="42.3203356" lon="14.2620563"><ele>153.6</ele><time>2026-05-03T10:33:56.346Z</time></trkpt><trkpt lat="42.320232" lon="14.2620131"><ele>156.8</ele><time>2026-05-03T10:33:57.338Z</time></trkpt><trkpt lat="42.3201305" lon="14.2619826"><ele>160.0</ele><time>2026-05-03T10:33:58.333Z</time></trkpt><trkpt lat="42.3200294" lon="14.26197"><ele>160.0</ele><time>2026-05-03T10:33:59.341Z</time></trkpt><trkpt lat="42.3199274" lon="14.2619654"><ele>160.0</ele><time>2026-05-03T10:34:00.361Z</time></trkpt><trkpt lat="42.3197412" lon="14.2619796"><ele>160.0</ele><time>2026-05-03T10:34:02.368Z</time></trkpt><trkpt lat="42.3196458" lon="14.2619933"><ele>160.0</ele><time>2026-05-03T10:34:03.347Z</time></trkpt><trkpt lat="42.31954" lon="14.2620066"><ele>160.8</ele><time>2026-05-03T10:34:04.338Z</time></trkpt><trkpt lat="42.3194255" lon="14.2620179"><ele>161.6</ele><time>2026-05-03T10:34:05.339Z</time></trkpt><trkpt lat="42.319314" lon="14.2620338"><ele>162.39999999999998</ele><time>2026-05-03T10:34:06.349Z</time></trkpt><trkpt lat="42.3192146" lon="14.2620384"><ele>163.2</ele><time>2026-05-03T10:34:07.347Z</time></trkpt><trkpt lat="42.3191211" lon="14.2620379"><ele>164.0</ele><time>2026-05-03T10:34:08.357Z</time></trkpt><trkpt lat="42.3190368" lon="14.262019"><ele>164.0</ele><time>2026-05-03T10:34:09.358Z</time></trkpt><trkpt lat="42.3189673" lon="14.2619983"><ele>164.0</ele><time>2026-05-03T10:34:10.345Z</time></trkpt><trkpt lat="42.3188545" lon="14.2619654"><ele>164.0</ele><time>2026-05-03T10:34:12.33Z</time></trkpt><trkpt lat="42.3187898" lon="14.2619611"><ele>164.0</ele><time>2026-05-03T10:34:13.334Z</time></trkpt><trkpt lat="42.3187105" lon="14.2619492"><ele>164.0</ele><time>2026-05-03T10:34:14.347Z</time></trkpt><trkpt lat="42.3186231" lon="14.2619328"><ele>164.0</ele><time>2026-05-03T10:34:15.336Z</time></trkpt><trkpt lat="42.3185223" lon="14.2619161"><ele>163.75</ele><time>2026-05-03T10:34:16.342Z</time></trkpt><trkpt lat="42.3184132" lon="14.2619075"><ele>163.5</ele><time>2026-05-03T10:34:17.355Z</time></trkpt><trkpt lat="42.3182992" lon="14.2618998"><ele>163.25</ele><time>2026-05-03T10:34:18.339Z</time></trkpt><trkpt lat="42.3181685" lon="14.261897"><ele>163.0</ele><time>2026-05-03T10:34:19.35Z</time></trkpt><trkpt lat="42.3180166" lon="14.2618971"><ele>163.66666666666669</ele><time>2026-05-03T10:34:20.343Z</time></trkpt><trkpt lat="42.3178733" lon="14.2618986"><ele>164.33333333333334</ele><time>2026-05-03T10:34:21.359Z</time></trkpt><trkpt lat="42.3176391" lon="14.2618999"><ele>165.0</ele><time>2026-05-03T10:34:23.352Z</time></trkpt><trkpt lat="42.3175458" lon="14.2618852"><ele>165.0</ele><time>2026-05-03T10:34:24.363Z</time></trkpt><trkpt lat="42.3174865" lon="14.2618476"><ele>165.0</ele><time>2026-05-03T10:34:25.368Z</time></trkpt><trkpt lat="42.3173946" lon="14.2617454"><ele>165.0</ele><time>2026-05-03T10:34:27.348Z</time></trkpt><trkpt lat="42.3173192" lon="14.2617008"><ele>165.0</ele><time>2026-05-03T10:34:28.354Z</time></trkpt><trkpt lat="42.3172353" lon="14.2616553"><ele>165.0</ele><time>2026-05-03T10:34:29.341Z</time></trkpt><trkpt lat="42.3171516" lon="14.2616179"><ele>165.0</ele><time>2026-05-03T10:34:30.36Z</time></trkpt><trkpt lat="42.3170869" lon="14.2615654"><ele>165.16666666666666</ele><time>2026-05-03T10:34:31.344Z</time></trkpt><trkpt lat="42.3170382" lon="14.2614817"><ele>165.33333333333334</ele><time>2026-05-03T10:34:32.366Z</time></trkpt><trkpt lat="42.3169898" lon="14.2613975"><ele>165.5</ele><time>2026-05-03T10:34:33.342Z</time></trkpt><trkpt lat="42.3169334" lon="14.26132"><ele>165.66666666666669</ele><time>2026-05-03T10:34:34.358Z</time></trkpt><trkpt lat="42.3168747" lon="14.2612792"><ele>165.83333333333334</ele><time>2026-05-03T10:34:35.343Z</time></trkpt><trkpt lat="42.3168107" lon="14.2612701"><ele>166.0</ele><time>2026-05-03T10:34:36.343Z</time></trkpt><trkpt lat="42.3166902" lon="14.2612828"><ele>166.0</ele><time>2026-05-03T10:34:38.342Z</time></trkpt><trkpt lat="42.3166176" lon="14.2612579"><ele>166.0</ele><time>2026-05-03T10:34:39.399Z</time></trkpt><trkpt lat="42.3165391" lon="14.2611948"><ele>166.0</ele><time>2026-05-03T10:34:40.356Z</time></trkpt><trkpt lat="42.3164617" lon="14.2611124"><ele>166.0</ele><time>2026-05-03T10:34:41.329Z</time></trkpt><trkpt lat="42.3163848" lon="14.2610342"><ele>166.0</ele><time>2026-05-03T10:34:42.333Z</time></trkpt><trkpt lat="42.3161959" lon="14.2608702"><ele>167.0</ele><time>2026-05-03T10:34:44.34Z</time></trkpt><trkpt lat="42.3160889" lon="14.260779"><ele>168.0</ele><time>2026-05-03T10:34:45.347Z</time></trkpt><trkpt lat="42.3159813" lon="14.260671"><ele>169.0</ele><time>2026-05-03T10:34:46.343Z</time></trkpt><trkpt lat="42.3158683" lon="14.2605541"><ele>170.0</ele><time>2026-05-03T10:34:47.347Z</time></trkpt><trkpt lat="42.31576" lon="14.2604332"><ele>170.0</ele><time>2026-05-03T10:34:48.337Z</time></trkpt><trkpt lat="42.3156562" lon="14.2603277"><ele>170.0</ele><time>2026-05-03T10:34:49.354Z</time></trkpt><trkpt lat="42.3155614" lon="14.2602242"><ele>170.0</ele><time>2026-05-03T10:34:50.347Z</time></trkpt><trkpt lat="42.3154757" lon="14.2601265"><ele>170.0</ele><time>2026-05-03T10:34:51.347Z</time></trkpt><trkpt lat="42.315401" lon="14.2600414"><ele>171.0</ele><time>2026-05-03T10:34:52.36Z</time></trkpt><trkpt lat="42.3153272" lon="14.2599484"><ele>172.0</ele><time>2026-05-03T10:34:53.35Z</time></trkpt><trkpt lat="42.3152638" lon="14.2598592"><ele>173.0</ele><time>2026-05-03T10:34:54.348Z</time></trkpt><trkpt lat="42.3152045" lon="14.2597681"><ele>174.0</ele><time>2026-05-03T10:34:55.332Z</time></trkpt><trkpt lat="42.3151562" lon="14.259687"><ele>175.0</ele><time>2026-05-03T10:34:56.352Z</time></trkpt><trkpt lat="42.3151085" lon="14.2596233"><ele>176.0</ele><time>2026-05-03T10:34:57.344Z</time></trkpt><trkpt lat="42.3150548" lon="14.2595638"><ele>176.0</ele><time>2026-05-03T10:34:58.348Z</time></trkpt><trkpt lat="42.314997" lon="14.2595085"><ele>176.0</ele><time>2026-05-03T10:34:59.356Z</time></trkpt><trkpt lat="42.3149386" lon="14.2594512"><ele>176.0</ele><time>2026-05-03T10:35:00.351Z</time></trkpt><trkpt lat="42.3148774" lon="14.2593852"><ele>176.0</ele><time>2026-05-03T10:35:01.35Z</time></trkpt><trkpt lat="42.3148192" lon="14.2593211"><ele>176.0</ele><time>2026-05-03T10:35:02.345Z</time></trkpt><trkpt lat="42.3147679" lon="14.2592457"><ele>176.0</ele><time>2026-05-03T10:35:03.348Z</time></trkpt><trkpt lat="42.3146852" lon="14.2590584"><ele>175.16666666666666</ele><time>2026-05-03T10:35:05.349Z</time></trkpt><trkpt lat="42.3146422" lon="14.2589665"><ele>174.33333333333331</ele><time>2026-05-03T10:35:06.344Z</time></trkpt><trkpt lat="42.3145917" lon="14.2588755"><ele>173.5</ele><time>2026-05-03T10:35:07.353Z</time></trkpt><trkpt lat="42.3145388" lon="14.2587835"><ele>172.66666666666666</ele><time>2026-05-03T10:35:08.358Z</time></trkpt><trkpt lat="42.3144899" lon="14.2586905"><ele>171.83333333333334</ele><time>2026-05-03T10:35:09.349Z</time></trkpt><trkpt lat="42.3144385" lon="14.2586176"><ele>171.0</ele><time>2026-05-03T10:35:10.349Z</time></trkpt><trkpt lat="42.3143731" lon="14.2585423"><ele>171.0</ele><time>2026-05-03T10:35:11.358Z</time></trkpt><trkpt lat="42.3142949" lon="14.2584555"><ele>171.0</ele><time>2026-05-03T10:35:12.338Z</time></trkpt><trkpt lat="42.3142166" lon="14.2583609"><ele>171.0</ele><time>2026-05-03T10:35:13.358Z</time></trkpt><trkpt lat="42.3141511" lon="14.2582799"><ele>171.0</ele><time>2026-05-03T10:35:14.328Z</time></trkpt><trkpt lat="42.3141019" lon="14.2581941"><ele>171.0</ele><time>2026-05-03T10:35:15.347Z</time></trkpt><trkpt lat="42.3140657" lon="14.2581105"><ele>171.0</ele><time>2026-05-03T10:35:16.341Z</time></trkpt><trkpt lat="42.3140181" lon="14.2580282"><ele>171.0</ele><time>2026-05-03T10:35:17.345Z</time></trkpt><trkpt lat="42.3139597" lon="14.2579459"><ele>171.0</ele><time>2026-05-03T10:35:18.351Z</time></trkpt><trkpt lat="42.3138986" lon="14.2578496"><ele>171.0</ele><time>2026-05-03T10:35:19.353Z</time></trkpt><trkpt lat="42.3138403" lon="14.2577746"><ele>171.0</ele><time>2026-05-03T10:35:20.352Z</time></trkpt><trkpt lat="42.3137776" lon="14.257717"><ele>171.0</ele><time>2026-05-03T10:35:21.347Z</time></trkpt><trkpt lat="42.3137187" lon="14.2576547"><ele>171.0</ele><time>2026-05-03T10:35:22.35Z</time></trkpt><trkpt lat="42.3136678" lon="14.2575896"><ele>171.0</ele><time>2026-05-03T10:35:23.363Z</time></trkpt><trkpt lat="42.3135457" lon="14.2575141"><ele>171.0</ele><time>2026-05-03T10:35:25.344Z</time></trkpt><trkpt lat="42.3133431" lon="14.2574689"><ele>171.0</ele><time>2026-05-03T10:35:27.358Z</time></trkpt><trkpt lat="42.3132501" lon="14.2574357"><ele>171.0</ele><time>2026-05-03T10:35:28.361Z</time></trkpt><trkpt lat="42.3131611" lon="14.2574176"><ele>171.0</ele><time>2026-05-03T10:35:29.336Z</time></trkpt><trkpt lat="42.3130737" lon="14.2574184"><ele>171.0</ele><time>2026-05-03T10:35:30.327Z</time></trkpt><trkpt lat="42.3129949" lon="14.257428"><ele>171.0</ele><time>2026-05-03T10:35:31.338Z</time></trkpt><trkpt lat="42.3129124" lon="14.2574191"><ele>171.0</ele><time>2026-05-03T10:35:32.333Z</time></trkpt><trkpt lat="42.3128299" lon="14.2574072"><ele>171.0</ele><time>2026-05-03T10:35:33.346Z</time></trkpt><trkpt lat="42.3127494" lon="14.2573804"><ele>171.0</ele><time>2026-05-03T10:35:34.36Z</time></trkpt><trkpt lat="42.3126571" lon="14.2573197"><ele>170.8</ele><time>2026-05-03T10:35:35.359Z</time></trkpt><trkpt lat="42.3125715" lon="14.2572431"><ele>170.60000000000002</ele><time>2026-05-03T10:35:36.344Z</time></trkpt><trkpt lat="42.3124809" lon="14.2571605"><ele>170.4</ele><time>2026-05-03T10:35:37.338Z</time></trkpt><trkpt lat="42.3123862" lon="14.2570804"><ele>170.2</ele><time>2026-05-03T10:35:38.347Z</time></trkpt><trkpt lat="42.3122961" lon="14.2570075"><ele>170.0</ele><time>2026-05-03T10:35:39.341Z</time></trkpt><trkpt lat="42.3122091" lon="14.2569404"><ele>170.0</ele><time>2026-05-03T10:35:40.366Z</time></trkpt><trkpt lat="42.3121218" lon="14.2568783"><ele>170.0</ele><time>2026-05-03T10:35:41.352Z</time></trkpt><trkpt lat="42.3120309" lon="14.256846"><ele>170.0</ele><time>2026-05-03T10:35:42.355Z</time></trkpt><trkpt lat="42.3119388" lon="14.2568398"><ele>170.0</ele><time>2026-05-03T10:35:43.37Z</time></trkpt><trkpt lat="42.3118465" lon="14.2568413"><ele>170.0</ele><time>2026-05-03T10:35:44.334Z</time></trkpt><trkpt lat="42.311767" lon="14.2568333"><ele>170.0</ele><time>2026-05-03T10:35:45.357Z</time></trkpt><trkpt lat="42.3116882" lon="14.2567864"><ele>170.0</ele><time>2026-05-03T10:35:47.355Z</time></trkpt><trkpt lat="42.3116154" lon="14.2566074"><ele>170.0</ele><time>2026-05-03T10:35:50.354Z</time></trkpt><trkpt lat="42.3115889" lon="14.2565105"><ele>170.0</ele><time>2026-05-03T10:35:51.347Z</time></trkpt><trkpt lat="42.3115619" lon="14.2564107"><ele>170.0</ele><time>2026-05-03T10:35:52.35Z</time></trkpt><trkpt lat="42.3115309" lon="14.2563149"><ele>169.2</ele><time>2026-05-03T10:35:53.341Z</time></trkpt><trkpt lat="42.3114914" lon="14.2562218"><ele>168.4</ele><time>2026-05-03T10:35:54.35Z</time></trkpt><trkpt lat="42.3114326" lon="14.2561421"><ele>167.60000000000002</ele><time>2026-05-03T10:35:55.352Z</time></trkpt><trkpt lat="42.3113574" lon="14.2560755"><ele>166.8</ele><time>2026-05-03T10:35:56.351Z</time></trkpt><trkpt lat="42.3112713" lon="14.2560115"><ele>166.0</ele><time>2026-05-03T10:35:57.348Z</time></trkpt><trkpt lat="42.3111868" lon="14.255933"><ele>166.0</ele><time>2026-05-03T10:35:58.36Z</time></trkpt><trkpt lat="42.3111191" lon="14.2558456"><ele>166.0</ele><time>2026-05-03T10:35:59.348Z</time></trkpt><trkpt lat="42.3110558" lon="14.2557556"><ele>166.0</ele><time>2026-05-03T10:36:00.325Z</time></trkpt><trkpt lat="42.3110042" lon="14.2556559"><ele>166.0</ele><time>2026-05-03T10:36:01.339Z</time></trkpt><trkpt lat="42.3109651" lon="14.2555428"><ele>166.0</ele><time>2026-05-03T10:36:02.343Z</time></trkpt><trkpt lat="42.3109339" lon="14.2554173"><ele>168.0</ele><time>2026-05-03T10:36:03.363Z</time></trkpt><trkpt lat="42.3108945" lon="14.2552986"><ele>170.0</ele><time>2026-05-03T10:36:04.351Z</time></trkpt><trkpt lat="42.3108509" lon="14.2551936"><ele>172.0</ele><time>2026-05-03T10:36:05.357Z</time></trkpt><trkpt lat="42.3108109" lon="14.2550995"><ele>174.0</ele><time>2026-05-03T10:36:06.354Z</time></trkpt><trkpt lat="42.3107848" lon="14.2549758"><ele>176.0</ele><time>2026-05-03T10:36:07.36Z</time></trkpt><trkpt lat="42.3107699" lon="14.2548302"><ele>176.33333333333331</ele><time>2026-05-03T10:36:08.343Z</time></trkpt><trkpt lat="42.3107515" lon="14.2544998"><ele>176.66666666666666</ele><time>2026-05-03T10:36:10.353Z</time></trkpt><trkpt lat="42.3107313" lon="14.2543216"><ele>177.0</ele><time>2026-05-03T10:36:11.345Z</time></trkpt><trkpt lat="42.3107224" lon="14.2541631"><ele>177.0</ele><time>2026-05-03T10:36:12.334Z</time></trkpt><trkpt lat="42.3107032" lon="14.2540338"><ele>177.0</ele><time>2026-05-03T10:36:13.378Z</time></trkpt><trkpt lat="42.3106838" lon="14.2539331"><ele>177.0</ele><time>2026-05-03T10:36:14.354Z</time></trkpt><trkpt lat="42.310659" lon="14.2538493"><ele>177.0</ele><time>2026-05-03T10:36:15.371Z</time></trkpt><trkpt lat="42.3106349" lon="14.253741"><ele>177.0</ele><time>2026-05-03T10:36:17.35Z</time></trkpt><trkpt lat="42.3106668" lon="14.2536448"><ele>177.0</ele><time>2026-05-03T10:38:30.332Z</time></trkpt><trkpt lat="42.31082" lon="14.2535886"><ele>177.0</ele><time>2026-05-03T10:38:34.35Z</time></trkpt><trkpt lat="42.3109105" lon="14.2535889"><ele>177.0</ele><time>2026-05-03T10:38:36.357Z</time></trkpt><trkpt lat="42.3109899" lon="14.2535832"><ele>177.0</ele><time>2026-05-03T10:38:39.337Z</time></trkpt><trkpt lat="42.310957" lon="14.2534911"><ele>177.0</ele><time>2026-05-03T10:38:43.34Z</time></trkpt><trkpt lat="42.3108939" lon="14.2534376"><ele>177.0</ele><time>2026-05-03T10:38:46.326Z</time></trkpt><trkpt lat="42.3108457" lon="14.2533809"><ele>177.0</ele><time>2026-05-03T10:38:48.36Z</time></trkpt><trkpt lat="42.3107906" lon="14.2533174"><ele>177.0</ele><time>2026-05-03T10:38:50.333Z</time></trkpt><trkpt lat="42.3107367" lon="14.2532714"><ele>177.0</ele><time>2026-05-03T10:38:53.361Z</time></trkpt><trkpt lat="42.3106232" lon="14.2531968"><ele>177.0</ele><time>2026-05-03T10:38:59.354Z</time></trkpt><trkpt lat="42.3105366" lon="14.2532378"><ele>177.0</ele><time>2026-05-03T10:39:01.347Z</time></trkpt><trkpt lat="42.31048" lon="14.2532998"><ele>177.0</ele><time>2026-05-03T10:39:03.342Z</time></trkpt><trkpt lat="42.3105338" lon="14.2533525"><ele>177.0</ele><time>2026-05-03T10:39:07.343Z</time></trkpt><trkpt lat="42.3105647" lon="14.2532637"><ele>177.0</ele><time>2026-05-03T10:39:09.331Z</time></trkpt><trkpt lat="42.3106219" lon="14.2531979"><ele>177.0</ele><time>2026-05-03T10:39:11.334Z</time></trkpt><trkpt lat="42.3106941" lon="14.2531951"><ele>177.0</ele><time>2026-05-03T10:39:13.339Z</time></trkpt><trkpt lat="42.3107671" lon="14.2532549"><ele>177.0</ele><time>2026-05-03T10:39:16.36Z</time></trkpt><trkpt lat="42.310904" lon="14.253467"><ele>177.0</ele><time>2026-05-03T10:39:20.346Z</time></trkpt><trkpt lat="42.3109778" lon="14.2535141"><ele>177.0</ele><time>2026-05-03T10:39:22.338Z</time></trkpt><trkpt lat="42.3110402" lon="14.2535562"><ele>177.0</ele><time>2026-05-03T10:39:25.352Z</time></trkpt><trkpt lat="42.3110978" lon="14.2536013"><ele>177.0</ele><time>2026-05-03T10:44:31.326Z</time></trkpt><trkpt lat="42.3112451" lon="14.2536926"><ele>177.0</ele><time>2026-05-03T10:44:40.343Z</time></trkpt><trkpt lat="42.3113423" lon="14.2537325"><ele>177.0</ele><time>2026-05-03T10:44:42.348Z</time></trkpt><trkpt lat="42.3114517" lon="14.2537858"><ele>173.0</ele><time>2026-05-03T10:44:44.337Z</time></trkpt><trkpt lat="42.3115603" lon="14.2538405"><ele>169.0</ele><time>2026-05-03T10:44:46.346Z</time></trkpt><trkpt lat="42.311625" lon="14.2538552"><ele>165.0</ele><time>2026-05-03T10:45:01.338Z</time></trkpt><trkpt lat="42.3115834" lon="14.2536978"><ele>161.0</ele><time>2026-05-03T10:45:08.334Z</time></trkpt><trkpt lat="42.3115102" lon="14.2537276"><ele>157.0</ele><time>2026-05-03T10:45:11.341Z</time></trkpt><trkpt lat="42.3114395" lon="14.2536781"><ele>157.0</ele><time>2026-05-03T10:45:13.349Z</time></trkpt><trkpt lat="42.3114168" lon="14.2535986"><ele>157.0</ele><time>2026-05-03T10:45:17.343Z</time></trkpt><trkpt lat="42.3114703" lon="14.2535296"><ele>157.0</ele><time>2026-05-03T10:45:20.342Z</time></trkpt><trkpt lat="42.311541" lon="14.2534446"><ele>157.0</ele><time>2026-05-03T10:45:22.354Z</time></trkpt><trkpt lat="42.3116955" lon="14.2532658"><ele>157.0</ele><time>2026-05-03T10:45:26.333Z</time></trkpt><trkpt lat="42.3117872" lon="14.2531739"><ele>156.33333333333334</ele><time>2026-05-03T10:45:28.347Z</time></trkpt><trkpt lat="42.3118362" lon="14.2531149"><ele>155.66666666666669</ele><time>2026-05-03T10:45:29.346Z</time></trkpt><trkpt lat="42.3118885" lon="14.2530531"><ele>155.0</ele><time>2026-05-03T10:45:30.352Z</time></trkpt><trkpt lat="42.3119405" lon="14.2529881"><ele>154.33333333333334</ele><time>2026-05-03T10:45:31.328Z</time></trkpt><trkpt lat="42.3119894" lon="14.2529339"><ele>153.66666666666666</ele><time>2026-05-03T10:45:32.334Z</time></trkpt><trkpt lat="42.3120385" lon="14.2528787"><ele>153.0</ele><time>2026-05-03T10:45:33.336Z</time></trkpt><trkpt lat="42.3121347" lon="14.2527647"><ele>153.0</ele><time>2026-05-03T10:45:35.357Z</time></trkpt><trkpt lat="42.312189" lon="14.2527073"><ele>153.0</ele><time>2026-05-03T10:45:36.326Z</time></trkpt><trkpt lat="42.3122404" lon="14.2526467"><ele>153.0</ele><time>2026-05-03T10:45:37.337Z</time></trkpt><trkpt lat="42.3122923" lon="14.2525866"><ele>153.0</ele><time>2026-05-03T10:45:38.351Z</time></trkpt><trkpt lat="42.3123425" lon="14.2525276"><ele>153.0</ele><time>2026-05-03T10:45:39.336Z</time></trkpt><trkpt lat="42.3123961" lon="14.2524662"><ele>153.0</ele><time>2026-05-03T10:45:40.332Z</time></trkpt><trkpt lat="42.3124516" lon="14.2524049"><ele>153.0</ele><time>2026-05-03T10:45:41.327Z</time></trkpt><trkpt lat="42.3125005" lon="14.2523421"><ele>147.4</ele><time>2026-05-03T10:45:42.339Z</time></trkpt><trkpt lat="42.3125549" lon="14.2522786"><ele>141.8</ele><time>2026-05-03T10:45:43.339Z</time></trkpt><trkpt lat="42.3126627" lon="14.2521581"><ele>136.2</ele><time>2026-05-03T10:45:45.331Z</time></trkpt><trkpt lat="42.3127106" lon="14.2520934"><ele>130.6</ele><time>2026-05-03T10:45:46.391Z</time></trkpt><trkpt lat="42.3128004" lon="14.2519852"><ele>125.0</ele><time>2026-05-03T10:45:48.351Z</time></trkpt><trkpt lat="42.3128795" lon="14.25189"><ele>124.99999999999999</ele><time>2026-05-03T10:45:50.357Z</time></trkpt><trkpt lat="42.3129531" lon="14.2518058"><ele>125.0</ele><time>2026-05-03T10:45:52.341Z</time></trkpt><trkpt lat="42.3130045" lon="14.2517336"><ele>125.0</ele><time>2026-05-03T10:45:54.333Z</time></trkpt><trkpt lat="42.3129918" lon="14.2516286"><ele>125.0</ele><time>2026-05-03T10:45:57.369Z</time></trkpt><trkpt lat="42.3129425" lon="14.2515534"><ele>124.99999999999999</ele><time>2026-05-03T10:45:59.337Z</time></trkpt><trkpt lat="42.3129571" lon="14.2514576"><ele>125.0</ele><time>2026-05-03T10:46:06.362Z</time></trkpt><trkpt lat="42.3131059" lon="14.2512864"><ele>122.57142857142857</ele><time>2026-05-03T10:46:10.358Z</time></trkpt><trkpt lat="42.3131482" lon="14.2512083"><ele>120.14285714285715</ele><time>2026-05-03T10:46:11.352Z</time></trkpt><trkpt lat="42.3131938" lon="14.2511263"><ele>117.71428571428572</ele><time>2026-05-03T10:46:12.346Z</time></trkpt><trkpt lat="42.3132417" lon="14.2510521"><ele>115.28571428571428</ele><time>2026-05-03T10:46:13.37Z</time></trkpt><trkpt lat="42.3132917" lon="14.2509764"><ele>112.85714285714286</ele><time>2026-05-03T10:46:14.354Z</time></trkpt><trkpt lat="42.3133412" lon="14.2508996"><ele>110.42857142857143</ele><time>2026-05-03T10:46:15.347Z</time></trkpt><trkpt lat="42.3133842" lon="14.250829"><ele>108.0</ele><time>2026-05-03T10:46:16.347Z</time></trkpt><trkpt lat="42.3134596" lon="14.250704"><ele>107.33333333333333</ele><time>2026-05-03T10:46:18.349Z</time></trkpt><trkpt lat="42.3135409" lon="14.2505794"><ele>106.66666666666666</ele><time>2026-05-03T10:46:20.351Z</time></trkpt><trkpt lat="42.3136207" lon="14.2504455"><ele>106.0</ele><time>2026-05-03T10:46:22.356Z</time></trkpt><trkpt lat="42.3136695" lon="14.2503849"><ele>105.33333333333333</ele><time>2026-05-03T10:46:23.344Z</time></trkpt><trkpt lat="42.3137199" lon="14.2503264"><ele>104.66666666666666</ele><time>2026-05-03T10:46:24.347Z</time></trkpt><trkpt lat="42.3137665" lon="14.2502678"><ele>104.0</ele><time>2026-05-03T10:46:25.355Z</time></trkpt><trkpt lat="42.3138388" lon="14.2501651"><ele>103.0</ele><time>2026-05-03T10:46:27.35Z</time></trkpt><trkpt lat="42.3139488" lon="14.249918"><ele>102.0</ele><time>2026-05-03T10:46:32.356Z</time></trkpt><trkpt lat="42.3139878" lon="14.2498158"><ele>101.0</ele><time>2026-05-03T10:46:33.344Z</time></trkpt><trkpt lat="42.3140434" lon="14.2496999"><ele>100.0</ele><time>2026-05-03T10:46:34.37Z</time></trkpt><trkpt lat="42.3141046" lon="14.2495833"><ele>99.4</ele><time>2026-05-03T10:46:35.35Z</time></trkpt><trkpt lat="42.3141619" lon="14.2494625"><ele>98.8</ele><time>2026-05-03T10:46:36.341Z</time></trkpt><trkpt lat="42.3142114" lon="14.2493551"><ele>98.19999999999999</ele><time>2026-05-03T10:46:37.36Z</time></trkpt><trkpt lat="42.3142605" lon="14.2492515"><ele>97.6</ele><time>2026-05-03T10:46:38.35Z</time></trkpt><trkpt lat="42.3143162" lon="14.2491569"><ele>97.0</ele><time>2026-05-03T10:46:39.332Z</time></trkpt><trkpt lat="42.3143838" lon="14.2490699"><ele>97.00000000000001</ele><time>2026-05-03T10:46:40.347Z</time></trkpt><trkpt lat="42.3144617" lon="14.2489854"><ele>97.0</ele><time>2026-05-03T10:46:41.338Z</time></trkpt><trkpt lat="42.3145342" lon="14.2489014"><ele>97.0</ele><time>2026-05-03T10:46:42.338Z</time></trkpt><trkpt lat="42.3145911" lon="14.2488167"><ele>97.0</ele><time>2026-05-03T10:46:43.35Z</time></trkpt><trkpt lat="42.3146366" lon="14.2487359"><ele>97.00000000000001</ele><time>2026-05-03T10:46:44.344Z</time></trkpt><trkpt lat="42.3146724" lon="14.24864"><ele>97.0</ele><time>2026-05-03T10:46:45.334Z</time></trkpt><trkpt lat="42.3147037" lon="14.2485217"><ele>96.66666666666667</ele><time>2026-05-03T10:46:46.357Z</time></trkpt><trkpt lat="42.3147365" lon="14.2483736"><ele>96.33333333333334</ele><time>2026-05-03T10:46:47.359Z</time></trkpt><trkpt lat="42.3147654" lon="14.2482077"><ele>96.0</ele><time>2026-05-03T10:46:48.355Z</time></trkpt><trkpt lat="42.3148203" lon="14.2478903"><ele>95.8</ele><time>2026-05-03T10:46:50.377Z</time></trkpt><trkpt lat="42.314845" lon="14.2477431"><ele>95.6</ele><time>2026-05-03T10:46:51.346Z</time></trkpt><trkpt lat="42.3148666" lon="14.2476049"><ele>95.4</ele><time>2026-05-03T10:46:52.337Z</time></trkpt><trkpt lat="42.3148867" lon="14.2474863"><ele>95.2</ele><time>2026-05-03T10:46:53.341Z</time></trkpt><trkpt lat="42.3149066" lon="14.247388"><ele>95.0</ele><time>2026-05-03T10:46:54.358Z</time></trkpt><trkpt lat="42.3149228" lon="14.2472569"><ele>95.0</ele><time>2026-05-03T10:46:56.355Z</time></trkpt><trkpt lat="42.3149829" lon="14.2471859"><ele>95.0</ele><time>2026-05-03T10:46:59.357Z</time></trkpt><trkpt lat="42.3150527" lon="14.2471665"><ele>95.0</ele><time>2026-05-03T10:47:03.324Z</time></trkpt><trkpt lat="42.3150893" lon="14.247079"><ele>95.0</ele><time>2026-05-03T10:47:36.354Z</time></trkpt><trkpt lat="42.3151527" lon="14.2468662"><ele>95.0</ele><time>2026-05-03T10:47:40.34Z</time></trkpt><trkpt lat="42.3151456" lon="14.2467383"><ele>95.0</ele><time>2026-05-03T10:48:13.322Z</time></trkpt><trkpt lat="42.3150078" lon="14.246593"><ele>95.0</ele><time>2026-05-03T10:48:16.342Z</time></trkpt><trkpt lat="42.3149307" lon="14.246579"><ele>95.0</ele><time>2026-05-03T10:48:17.338Z</time></trkpt><trkpt lat="42.3148509" lon="14.2465587"><ele>95.0</ele><time>2026-05-03T10:48:18.336Z</time></trkpt><trkpt lat="42.3147754" lon="14.2465317"><ele>95.0</ele><time>2026-05-03T10:48:19.331Z</time></trkpt><trkpt lat="42.3147052" lon="14.2464964"><ele>95.14285714285714</ele><time>2026-05-03T10:48:20.35Z</time></trkpt><trkpt lat="42.3146427" lon="14.2464508"><ele>95.28571428571429</ele><time>2026-05-03T10:48:21.348Z</time></trkpt><trkpt lat="42.3145868" lon="14.2464025"><ele>95.42857142857142</ele><time>2026-05-03T10:48:22.346Z</time></trkpt><trkpt lat="42.3145296" lon="14.2463643"><ele>95.57142857142857</ele><time>2026-05-03T10:48:23.333Z</time></trkpt><trkpt lat="42.3144671" lon="14.2463249"><ele>95.71428571428571</ele><time>2026-05-03T10:48:24.358Z</time></trkpt><trkpt lat="42.3144059" lon="14.2462826"><ele>95.85714285714285</ele><time>2026-05-03T10:48:25.34Z</time></trkpt><trkpt lat="42.3143327" lon="14.2462298"><ele>96.0</ele><time>2026-05-03T10:48:26.344Z</time></trkpt><trkpt lat="42.3142402" lon="14.2461606"><ele>96.0</ele><time>2026-05-03T10:48:27.334Z</time></trkpt><trkpt lat="42.3141458" lon="14.2461004"><ele>96.0</ele><time>2026-05-03T10:48:28.367Z</time></trkpt><trkpt lat="42.3140581" lon="14.2460382"><ele>96.0</ele><time>2026-05-03T10:48:29.338Z</time></trkpt><trkpt lat="42.3139695" lon="14.2459837"><ele>96.0</ele><time>2026-05-03T10:48:30.348Z</time></trkpt><trkpt lat="42.3138727" lon="14.2459343"><ele>96.0</ele><time>2026-05-03T10:48:31.352Z</time></trkpt><trkpt lat="42.3137818" lon="14.2458937"><ele>96.0</ele><time>2026-05-03T10:48:32.336Z</time></trkpt><trkpt lat="42.3136891" lon="14.2458759"><ele>96.0</ele><time>2026-05-03T10:48:33.333Z</time></trkpt><trkpt lat="42.3135893" lon="14.2458609"><ele>96.0</ele><time>2026-05-03T10:48:34.336Z</time></trkpt><trkpt lat="42.3134969" lon="14.245848"><ele>96.0</ele><time>2026-05-03T10:48:35.356Z</time></trkpt><trkpt lat="42.3133191" lon="14.2458352"><ele>96.0</ele><time>2026-05-03T10:48:38.354Z</time></trkpt><trkpt lat="42.3132443" lon="14.2458302"><ele>96.0</ele><time>2026-05-03T10:48:41.387Z</time></trkpt><trkpt lat="42.3131679" lon="14.245819"><ele>96.0</ele><time>2026-05-03T10:48:44.341Z</time></trkpt><trkpt lat="42.3132768" lon="14.2458584"><ele>96.0</ele><time>2026-05-03T10:48:58.342Z</time></trkpt><trkpt lat="42.3134032" lon="14.2459206"><ele>96.0</ele><time>2026-05-03T10:49:03.328Z</time></trkpt><trkpt lat="42.3134252" lon="14.2460278"><ele>96.0</ele><time>2026-05-03T10:49:07.359Z</time></trkpt><trkpt lat="42.313407" lon="14.2461503"><ele>96.0</ele><time>2026-05-03T10:49:10.338Z</time></trkpt><trkpt lat="42.3133669" lon="14.2462333"><ele>96.0</ele><time>2026-05-03T10:49:12.343Z</time></trkpt><trkpt lat="42.3134252" lon="14.2462991"><ele>96.0</ele><time>2026-05-03T10:49:17.333Z</time></trkpt><trkpt lat="42.3135063" lon="14.2463075"><ele>96.0</ele><time>2026-05-03T10:49:20.345Z</time></trkpt><trkpt lat="42.3137168" lon="14.246348"><ele>96.0</ele><time>2026-05-03T10:49:24.352Z</time></trkpt><trkpt lat="42.3138243" lon="14.2464025"><ele>96.0</ele><time>2026-05-03T10:49:26.358Z</time></trkpt><trkpt lat="42.3138833" lon="14.2464376"><ele>96.0</ele><time>2026-05-03T10:49:27.36Z</time></trkpt><trkpt lat="42.3139501" lon="14.2464787"><ele>96.0</ele><time>2026-05-03T10:49:28.352Z</time></trkpt><trkpt lat="42.3140222" lon="14.2465191"><ele>96.0</ele><time>2026-05-03T10:49:29.341Z</time></trkpt><trkpt lat="42.3141032" lon="14.2465651"><ele>96.0</ele><time>2026-05-03T10:49:30.357Z</time></trkpt><trkpt lat="42.3141784" lon="14.246616"><ele>95.8</ele><time>2026-05-03T10:49:31.342Z</time></trkpt><trkpt lat="42.3142397" lon="14.2466544"><ele>95.6</ele><time>2026-05-03T10:49:32.346Z</time></trkpt><trkpt lat="42.3143456" lon="14.2467353"><ele>95.4</ele><time>2026-05-03T10:49:34.341Z</time></trkpt><trkpt lat="42.3144255" lon="14.2468053"><ele>95.2</ele><time>2026-05-03T10:49:36.362Z</time></trkpt><trkpt lat="42.3144941" lon="14.2469237"><ele>95.0</ele><time>2026-05-03T10:49:39.346Z</time></trkpt><trkpt lat="42.3145586" lon="14.2469505"><ele>95.0</ele><time>2026-05-03T10:49:41.346Z</time></trkpt><trkpt lat="42.3147504" lon="14.2470425"><ele>95.0</ele><time>2026-05-03T10:49:45.336Z</time></trkpt><trkpt lat="42.31481" lon="14.2470983"><ele>95.0</ele><time>2026-05-03T10:49:46.34Z</time></trkpt><trkpt lat="42.3148613" lon="14.247148"><ele>95.0</ele><time>2026-05-03T10:49:47.355Z</time></trkpt><trkpt lat="42.3149205" lon="14.2472187"><ele>95.0</ele><time>2026-05-03T10:49:49.34Z</time></trkpt><trkpt lat="42.3149175" lon="14.2473336"><ele>94.6</ele><time>2026-05-03T10:49:51.343Z</time></trkpt><trkpt lat="42.3148958" lon="14.2474205"><ele>94.2</ele><time>2026-05-03T10:49:52.342Z</time></trkpt><trkpt lat="42.3148644" lon="14.2475343"><ele>93.80000000000001</ele><time>2026-05-03T10:49:53.355Z</time></trkpt><trkpt lat="42.3148315" lon="14.2476777"><ele>93.4</ele><time>2026-05-03T10:49:54.35Z</time></trkpt><trkpt lat="42.3148042" lon="14.2478469"><ele>93.0</ele><time>2026-05-03T10:49:55.343Z</time></trkpt><trkpt lat="42.3147794" lon="14.2480224"><ele>93.60000000000001</ele><time>2026-05-03T10:49:56.34Z</time></trkpt><trkpt lat="42.3147505" lon="14.2481776"><ele>94.2</ele><time>2026-05-03T10:49:57.336Z</time></trkpt><trkpt lat="42.3147208" lon="14.2483198"><ele>94.8</ele><time>2026-05-03T10:49:58.346Z</time></trkpt><trkpt lat="42.3146911" lon="14.2484488"><ele>95.4</ele><time>2026-05-03T10:49:59.35Z</time></trkpt><trkpt lat="42.3146621" lon="14.2485788"><ele>96.0</ele><time>2026-05-03T10:50:00.333Z</time></trkpt><trkpt lat="42.3146323" lon="14.2486881"><ele>96.0</ele><time>2026-05-03T10:50:01.355Z</time></trkpt><trkpt lat="42.3145937" lon="14.2487883"><ele>96.0</ele><time>2026-05-03T10:50:02.376Z</time></trkpt><trkpt lat="42.3144581" lon="14.24897"><ele>96.0</ele><time>2026-05-03T10:50:04.333Z</time></trkpt><trkpt lat="42.3143752" lon="14.2490629"><ele>96.0</ele><time>2026-05-03T10:50:05.338Z</time></trkpt><trkpt lat="42.3143027" lon="14.2491408"><ele>96.19999999999999</ele><time>2026-05-03T10:50:06.349Z</time></trkpt><trkpt lat="42.3142402" lon="14.2492393"><ele>96.39999999999999</ele><time>2026-05-03T10:50:07.348Z</time></trkpt><trkpt lat="42.3141878" lon="14.2493654"><ele>96.6</ele><time>2026-05-03T10:50:08.331Z</time></trkpt><trkpt lat="42.3141331" lon="14.249505"><ele>96.8</ele><time>2026-05-03T10:50:09.337Z</time></trkpt><trkpt lat="42.3140782" lon="14.2496338"><ele>97.0</ele><time>2026-05-03T10:50:10.359Z</time></trkpt><trkpt lat="42.3140279" lon="14.249747"><ele>97.50000000000001</ele><time>2026-05-03T10:50:11.349Z</time></trkpt><trkpt lat="42.3139804" lon="14.2498412"><ele>98.0</ele><time>2026-05-03T10:50:12.365Z</time></trkpt><trkpt lat="42.3139452" lon="14.2499282"><ele>98.5</ele><time>2026-05-03T10:50:13.352Z</time></trkpt><trkpt lat="42.313913" lon="14.2500373"><ele>99.0</ele><time>2026-05-03T10:50:15.327Z</time></trkpt><trkpt lat="42.3139599" lon="14.2501468"><ele>99.50000000000001</ele><time>2026-05-03T10:50:18.342Z</time></trkpt><trkpt lat="42.3140092" lon="14.2502056"><ele>100.0</ele><time>2026-05-03T10:50:19.347Z</time></trkpt><trkpt lat="42.3140566" lon="14.250268"><ele>100.0</ele><time>2026-05-03T10:50:20.349Z</time></trkpt><trkpt lat="42.3141228" lon="14.2503351"><ele>100.0</ele><time>2026-05-03T10:50:22.352Z</time></trkpt><trkpt lat="42.3142146" lon="14.2502751"><ele>100.0</ele><time>2026-05-03T10:50:25.354Z</time></trkpt><trkpt lat="42.3142961" lon="14.2501051"><ele>100.0</ele><time>2026-05-03T10:50:27.34Z</time></trkpt><trkpt lat="42.3143487" lon="14.2500117"><ele>100.0</ele><time>2026-05-03T10:50:28.347Z</time></trkpt><trkpt lat="42.3144008" lon="14.2499115"><ele>100.0</ele><time>2026-05-03T10:50:29.342Z</time></trkpt><trkpt lat="42.3144569" lon="14.2498053"><ele>100.0</ele><time>2026-05-03T10:50:30.357Z</time></trkpt><trkpt lat="42.3145134" lon="14.2496882"><ele>100.0</ele><time>2026-05-03T10:50:31.342Z</time></trkpt><trkpt lat="42.3145644" lon="14.2495647"><ele>100.0</ele><time>2026-05-03T10:50:32.344Z</time></trkpt><trkpt lat="42.3146119" lon="14.2494356"><ele>100.0</ele><time>2026-05-03T10:50:33.34Z</time></trkpt><trkpt lat="42.3146545" lon="14.2493124"><ele>99.4</ele><time>2026-05-03T10:50:34.333Z</time></trkpt><trkpt lat="42.3146918" lon="14.2491968"><ele>98.8</ele><time>2026-05-03T10:50:35.325Z</time></trkpt><trkpt lat="42.3147274" lon="14.2490815"><ele>98.19999999999999</ele><time>2026-05-03T10:50:36.356Z</time></trkpt><trkpt lat="42.3147563" lon="14.2489671"><ele>97.6</ele><time>2026-05-03T10:50:37.337Z</time></trkpt><trkpt lat="42.3147859" lon="14.2488463"><ele>97.0</ele><time>2026-05-03T10:50:38.335Z</time></trkpt><trkpt lat="42.3148131" lon="14.2487242"><ele>96.8</ele><time>2026-05-03T10:50:39.357Z</time></trkpt><trkpt lat="42.3148434" lon="14.2485929"><ele>96.6</ele><time>2026-05-03T10:50:40.34Z</time></trkpt><trkpt lat="42.3148784" lon="14.2484532"><ele>96.39999999999999</ele><time>2026-05-03T10:50:41.351Z</time></trkpt><trkpt lat="42.3149103" lon="14.248313"><ele>96.19999999999999</ele><time>2026-05-03T10:50:42.345Z</time></trkpt><trkpt lat="42.3149397" lon="14.2481855"><ele>96.0</ele><time>2026-05-03T10:50:43.359Z</time></trkpt><trkpt lat="42.3149675" lon="14.2480646"><ele>95.4</ele><time>2026-05-03T10:50:44.335Z</time></trkpt><trkpt lat="42.314997" lon="14.2479488"><ele>94.8</ele><time>2026-05-03T10:50:45.34Z</time></trkpt><trkpt lat="42.3150261" lon="14.2478347"><ele>94.2</ele><time>2026-05-03T10:50:46.355Z</time></trkpt><trkpt lat="42.3150757" lon="14.2476136"><ele>93.60000000000001</ele><time>2026-05-03T10:50:48.34Z</time></trkpt><trkpt lat="42.3150984" lon="14.2475176"><ele>93.0</ele><time>2026-05-03T10:50:49.348Z</time></trkpt><trkpt lat="42.3151212" lon="14.2474252"><ele>93.0</ele><time>2026-05-03T10:50:50.366Z</time></trkpt><trkpt lat="42.3151425" lon="14.2473335"><ele>93.0</ele><time>2026-05-03T10:50:51.35Z</time></trkpt><trkpt lat="42.3151623" lon="14.2472506"><ele>93.0</ele><time>2026-05-03T10:50:52.346Z</time></trkpt><trkpt lat="42.3151948" lon="14.2471019"><ele>93.0</ele><time>2026-05-03T10:50:54.335Z</time></trkpt><trkpt lat="42.3152198" lon="14.2469771"><ele>93.0</ele><time>2026-05-03T10:50:56.352Z</time></trkpt><trkpt lat="42.3152475" lon="14.2468662"><ele>93.0</ele><time>2026-05-03T10:50:58.351Z</time></trkpt><trkpt lat="42.3152779" lon="14.2467097"><ele>93.4</ele><time>2026-05-03T10:51:00.343Z</time></trkpt><trkpt lat="42.3153054" lon="14.2465916"><ele>93.80000000000001</ele><time>2026-05-03T10:51:01.338Z</time></trkpt><trkpt lat="42.3153376" lon="14.2464634"><ele>94.2</ele><time>2026-05-03T10:51:02.354Z</time></trkpt><trkpt lat="42.3153721" lon="14.2463274"><ele>94.6</ele><time>2026-05-03T10:51:03.35Z</time></trkpt><trkpt lat="42.3154051" lon="14.2461809"><ele>95.0</ele><time>2026-05-03T10:51:04.338Z</time></trkpt><trkpt lat="42.3154355" lon="14.2460423"><ele>95.4</ele><time>2026-05-03T10:51:05.351Z</time></trkpt><trkpt lat="42.3154675" lon="14.24591"><ele>95.8</ele><time>2026-05-03T10:51:06.345Z</time></trkpt><trkpt lat="42.3154961" lon="14.2457929"><ele>96.19999999999999</ele><time>2026-05-03T10:51:07.35Z</time></trkpt><trkpt lat="42.3155478" lon="14.2455706"><ele>96.6</ele><time>2026-05-03T10:51:09.344Z</time></trkpt><trkpt lat="42.3155715" lon="14.2454767"><ele>97.0</ele><time>2026-05-03T10:51:10.364Z</time></trkpt><trkpt lat="42.3155915" lon="14.2453881"><ele>97.66666666666667</ele><time>2026-05-03T10:51:11.37Z</time></trkpt><trkpt lat="42.3156179" lon="14.2453031"><ele>98.33333333333334</ele><time>2026-05-03T10:51:12.336Z</time></trkpt><trkpt lat="42.315662" lon="14.2452303"><ele>99.0</ele><time>2026-05-03T10:51:13.34Z</time></trkpt><trkpt lat="42.3157307" lon="14.2451833"><ele>99.66666666666666</ele><time>2026-05-03T10:51:14.362Z</time></trkpt><trkpt lat="42.3158062" lon="14.2451687"><ele>100.33333333333333</ele><time>2026-05-03T10:51:15.363Z</time></trkpt><trkpt lat="42.3158985" lon="14.245191"><ele>101.0</ele><time>2026-05-03T10:51:16.355Z</time></trkpt><trkpt lat="42.3159948" lon="14.2452366"><ele>101.0</ele><time>2026-05-03T10:51:17.348Z</time></trkpt><trkpt lat="42.3160959" lon="14.2453057"><ele>101.0</ele><time>2026-05-03T10:51:18.33Z</time></trkpt><trkpt lat="42.3162028" lon="14.245391"><ele>101.0</ele><time>2026-05-03T10:51:19.357Z</time></trkpt><trkpt lat="42.3163024" lon="14.2454784"><ele>101.0</ele><time>2026-05-03T10:51:20.333Z</time></trkpt><trkpt lat="42.3164067" lon="14.245555"><ele>100.25</ele><time>2026-05-03T10:51:21.335Z</time></trkpt><trkpt lat="42.3165187" lon="14.2456334"><ele>99.5</ele><time>2026-05-03T10:51:22.362Z</time></trkpt><trkpt lat="42.3166317" lon="14.2457119"><ele>98.75</ele><time>2026-05-03T10:51:23.34Z</time></trkpt><trkpt lat="42.3167462" lon="14.2457912"><ele>98.0</ele><time>2026-05-03T10:51:24.343Z</time></trkpt><trkpt lat="42.3168589" lon="14.2458737"><ele>98.0</ele><time>2026-05-03T10:51:25.344Z</time></trkpt><trkpt lat="42.3169744" lon="14.2459583"><ele>98.0</ele><time>2026-05-03T10:51:26.335Z</time></trkpt><trkpt lat="42.3170832" lon="14.2460409"><ele>98.0</ele><time>2026-05-03T10:51:27.347Z</time></trkpt><trkpt lat="42.3171903" lon="14.2461186"><ele>98.0</ele><time>2026-05-03T10:51:28.342Z</time></trkpt><trkpt lat="42.3174119" lon="14.246274"><ele>98.0</ele><time>2026-05-03T10:51:30.352Z</time></trkpt><trkpt lat="42.3175251" lon="14.2463491"><ele>98.0</ele><time>2026-05-03T10:51:31.37Z</time></trkpt><trkpt lat="42.3176373" lon="14.2464252"><ele>98.0</ele><time>2026-05-03T10:51:32.369Z</time></trkpt><trkpt lat="42.3177467" lon="14.2465038"><ele>98.0</ele><time>2026-05-03T10:51:33.341Z</time></trkpt><trkpt lat="42.3178571" lon="14.2465794"><ele>98.0</ele><time>2026-05-03T10:51:34.362Z</time></trkpt><trkpt lat="42.317968" lon="14.2466584"><ele>98.0</ele><time>2026-05-03T10:51:35.331Z</time></trkpt><trkpt lat="42.3180767" lon="14.2467334"><ele>98.0</ele><time>2026-05-03T10:51:36.361Z</time></trkpt><trkpt lat="42.31819" lon="14.246808"><ele>98.0</ele><time>2026-05-03T10:51:37.335Z</time></trkpt><trkpt lat="42.3183001" lon="14.2468795"><ele>99.5</ele><time>2026-05-03T10:51:38.366Z</time></trkpt><trkpt lat="42.3184136" lon="14.2469526"><ele>101.0</ele><time>2026-05-03T10:51:39.367Z</time></trkpt><trkpt lat="42.31853" lon="14.2470172"><ele>102.5</ele><time>2026-05-03T10:51:40.338Z</time></trkpt><trkpt lat="42.3186501" lon="14.2470858"><ele>104.0</ele><time>2026-05-03T10:51:41.348Z</time></trkpt><trkpt lat="42.3187763" lon="14.2471658"><ele>104.0</ele><time>2026-05-03T10:51:42.353Z</time></trkpt><trkpt lat="42.3188987" lon="14.2472532"><ele>104.0</ele><time>2026-05-03T10:51:43.348Z</time></trkpt><trkpt lat="42.3190241" lon="14.2473521"><ele>104.0</ele><time>2026-05-03T10:51:44.365Z</time></trkpt><trkpt lat="42.3191502" lon="14.2474526"><ele>104.0</ele><time>2026-05-03T10:51:45.37Z</time></trkpt><trkpt lat="42.3192746" lon="14.24755"><ele>97.0</ele><time>2026-05-03T10:51:46.358Z</time></trkpt><trkpt lat="42.3193978" lon="14.2476446"><ele>97.0</ele><time>2026-05-03T10:51:47.351Z</time></trkpt><trkpt lat="42.3195174" lon="14.2477308"><ele>97.0</ele><time>2026-05-03T10:51:48.353Z</time></trkpt><trkpt lat="42.3196359" lon="14.2478188"><ele>97.0</ele><time>2026-05-03T10:51:49.346Z</time></trkpt></trkseg></trk></gpx>